<?xml version="1.0" encoding="UTF-8" standalone="no" ?>
<gpx xmlns="http://www.topografix.com/GPX/1/1" xmlns:xsi="http://www.w3.org/2001/XMLSchema-instance" xsi:schemaLocation="http://www.topografix.com/GPX/1/1 http://www.topografix.com/GPX/1/1/gpx.xsd" version="1.1" creator="VisuGPX - https://www.visugpx.com">
  <metadata>
    <name>VTT FR Lévignac - Bouconne</name>
    <desc><![CDATA[VTT Foyer rural Lévignac - sortie à Bouconne]]></desc>
  </metadata>
  <trk>
    <name><![CDATA[20130324VTTFRS]]></name>
    <trkseg>
      <trkpt lat="43.66882" lon="1.19726">
        <ele>128.773895</ele>
        <time>2013-03-24T08:38:31Z</time>
      </trkpt>
      <trkpt lat="43.66882" lon="1.19726">
        <ele>128.774094</ele>
        <time>2013-03-24T08:43:02Z</time>
      </trkpt>
      <trkpt lat="43.66882" lon="1.19726">
        <ele>128.765671</ele>
        <time>2013-03-24T08:44:55Z</time>
      </trkpt>
      <trkpt lat="43.66881" lon="1.19724">
        <ele>128.75209</ele>
        <time>2013-03-24T08:47:06Z</time>
      </trkpt>
      <trkpt lat="43.66881" lon="1.19724">
        <ele>128.754868</ele>
        <time>2013-03-24T08:47:46Z</time>
      </trkpt>
      <trkpt lat="43.66881" lon="1.19723">
        <ele>128.753571</ele>
        <time>2013-03-24T08:48:03Z</time>
      </trkpt>
      <trkpt lat="43.66863" lon="1.19701">
        <ele>128.912506</ele>
        <time>2013-03-24T08:48:16Z</time>
      </trkpt>
      <trkpt lat="43.66848" lon="1.19686">
        <ele>128.977325</ele>
        <time>2013-03-24T08:48:23Z</time>
      </trkpt>
      <trkpt lat="43.66838" lon="1.19691">
        <ele>129.390106</ele>
        <time>2013-03-24T08:48:27Z</time>
      </trkpt>
      <trkpt lat="43.66811" lon="1.19738">
        <ele>132.062057</ele>
        <time>2013-03-24T08:48:44Z</time>
      </trkpt>
      <trkpt lat="43.66789" lon="1.19778">
        <ele>134.944</ele>
        <time>2013-03-24T08:48:59Z</time>
      </trkpt>
      <trkpt lat="43.66771" lon="1.19814">
        <ele>138.212997</ele>
        <time>2013-03-24T08:49:15Z</time>
      </trkpt>
      <trkpt lat="43.6677" lon="1.19815">
        <ele>138.368835</ele>
        <time>2013-03-24T08:49:16Z</time>
      </trkpt>
      <trkpt lat="43.66766" lon="1.19822">
        <ele>139.150955</ele>
        <time>2013-03-24T08:49:20Z</time>
      </trkpt>
      <trkpt lat="43.66754" lon="1.19838">
        <ele>141.279327</ele>
        <time>2013-03-24T08:49:35Z</time>
      </trkpt>
      <trkpt lat="43.66753" lon="1.19838">
        <ele>141.366959</ele>
        <time>2013-03-24T08:49:49Z</time>
      </trkpt>
      <trkpt lat="43.66756" lon="1.19844">
        <ele>141.588364</ele>
        <time>2013-03-24T08:50:01Z</time>
      </trkpt>
      <trkpt lat="43.66756" lon="1.19851">
        <ele>142.165344</ele>
        <time>2013-03-24T08:50:05Z</time>
      </trkpt>
      <trkpt lat="43.66751" lon="1.19862">
        <ele>143.367508</ele>
        <time>2013-03-24T08:50:11Z</time>
      </trkpt>
      <trkpt lat="43.66745" lon="1.19894">
        <ele>146.583755</ele>
        <time>2013-03-24T08:50:28Z</time>
      </trkpt>
      <trkpt lat="43.66741" lon="1.19905">
        <ele>147.815002</ele>
        <time>2013-03-24T08:50:34Z</time>
      </trkpt>
      <trkpt lat="43.66735" lon="1.19929">
        <ele>150.769379</ele>
        <time>2013-03-24T08:50:48Z</time>
      </trkpt>
      <trkpt lat="43.66731" lon="1.19947">
        <ele>153.165619</ele>
        <time>2013-03-24T08:50:58Z</time>
      </trkpt>
      <trkpt lat="43.66725" lon="1.19973">
        <ele>156.821869</ele>
        <time>2013-03-24T08:51:13Z</time>
      </trkpt>
      <trkpt lat="43.66725" lon="1.19982">
        <ele>157.842499</ele>
        <time>2013-03-24T08:51:18Z</time>
      </trkpt>
      <trkpt lat="43.66727" lon="1.19999">
        <ele>159.756226</ele>
        <time>2013-03-24T08:51:28Z</time>
      </trkpt>
      <trkpt lat="43.66731" lon="1.20015">
        <ele>161.593597</ele>
        <time>2013-03-24T08:51:36Z</time>
      </trkpt>
      <trkpt lat="43.66737" lon="1.20032">
        <ele>163.199036</ele>
        <time>2013-03-24T08:51:46Z</time>
      </trkpt>
      <trkpt lat="43.66738" lon="1.20044">
        <ele>164.716553</ele>
        <time>2013-03-24T08:51:52Z</time>
      </trkpt>
      <trkpt lat="43.66741" lon="1.20058">
        <ele>166.147491</ele>
        <time>2013-03-24T08:52:00Z</time>
      </trkpt>
      <trkpt lat="43.66755" lon="1.20088">
        <ele>168.032501</ele>
        <time>2013-03-24T08:52:17Z</time>
      </trkpt>
      <trkpt lat="43.66762" lon="1.20109">
        <ele>169.711243</ele>
        <time>2013-03-24T08:52:29Z</time>
      </trkpt>
      <trkpt lat="43.66764" lon="1.20117">
        <ele>170.119995</ele>
        <time>2013-03-24T08:52:33Z</time>
      </trkpt>
      <trkpt lat="43.66768" lon="1.20133">
        <ele>171.111252</ele>
        <time>2013-03-24T08:52:42Z</time>
      </trkpt>
      <trkpt lat="43.66771" lon="1.20144">
        <ele>171.654999</ele>
        <time>2013-03-24T08:52:48Z</time>
      </trkpt>
      <trkpt lat="43.66776" lon="1.20168">
        <ele>173.302505</ele>
        <time>2013-03-24T08:53:00Z</time>
      </trkpt>
      <trkpt lat="43.66778" lon="1.20179">
        <ele>173.77478</ele>
        <time>2013-03-24T08:53:05Z</time>
      </trkpt>
      <trkpt lat="43.66779" lon="1.2019">
        <ele>174.493317</ele>
        <time>2013-03-24T08:53:11Z</time>
      </trkpt>
      <trkpt lat="43.66777" lon="1.20225">
        <ele>177.357742</ele>
        <time>2013-03-24T08:53:27Z</time>
      </trkpt>
      <trkpt lat="43.66776" lon="1.20262">
        <ele>180.007507</ele>
        <time>2013-03-24T08:53:44Z</time>
      </trkpt>
      <trkpt lat="43.66777" lon="1.20276">
        <ele>180.842499</ele>
        <time>2013-03-24T08:53:51Z</time>
      </trkpt>
      <trkpt lat="43.66776" lon="1.20282">
        <ele>181.392502</ele>
        <time>2013-03-24T08:53:55Z</time>
      </trkpt>
      <trkpt lat="43.66777" lon="1.20313">
        <ele>182.112579</ele>
        <time>2013-03-24T08:54:10Z</time>
      </trkpt>
      <trkpt lat="43.66774" lon="1.20345">
        <ele>182.512985</ele>
        <time>2013-03-24T08:54:27Z</time>
      </trkpt>
      <trkpt lat="43.66771" lon="1.20355">
        <ele>183.149673</ele>
        <time>2013-03-24T08:54:33Z</time>
      </trkpt>
      <trkpt lat="43.66766" lon="1.20367">
        <ele>183.456482</ele>
        <time>2013-03-24T08:54:40Z</time>
      </trkpt>
      <trkpt lat="43.66749" lon="1.20387">
        <ele>185.067535</ele>
        <time>2013-03-24T08:54:55Z</time>
      </trkpt>
      <trkpt lat="43.66723" lon="1.20419">
        <ele>185.943985</ele>
        <time>2013-03-24T08:55:10Z</time>
      </trkpt>
      <trkpt lat="43.66696" lon="1.2044">
        <ele>186.772507</ele>
        <time>2013-03-24T08:55:23Z</time>
      </trkpt>
      <trkpt lat="43.66691" lon="1.20444">
        <ele>186.98497</ele>
        <time>2013-03-24T08:55:25Z</time>
      </trkpt>
      <trkpt lat="43.66684" lon="1.20451">
        <ele>187.327576</ele>
        <time>2013-03-24T08:55:29Z</time>
      </trkpt>
      <trkpt lat="43.66679" lon="1.20453">
        <ele>187.700256</ele>
        <time>2013-03-24T08:55:32Z</time>
      </trkpt>
      <trkpt lat="43.66674" lon="1.20461">
        <ele>187.746078</ele>
        <time>2013-03-24T08:55:40Z</time>
      </trkpt>
      <trkpt lat="43.66667" lon="1.20468">
        <ele>188.090057</ele>
        <time>2013-03-24T08:55:47Z</time>
      </trkpt>
      <trkpt lat="43.66655" lon="1.20489">
        <ele>188.514877</ele>
        <time>2013-03-24T08:56:01Z</time>
      </trkpt>
      <trkpt lat="43.66644" lon="1.20509">
        <ele>189.605865</ele>
        <time>2013-03-24T08:56:13Z</time>
      </trkpt>
      <trkpt lat="43.6663" lon="1.20528">
        <ele>191.239182</ele>
        <time>2013-03-24T08:56:26Z</time>
      </trkpt>
      <trkpt lat="43.66626" lon="1.20532">
        <ele>191.754883</ele>
        <time>2013-03-24T08:56:29Z</time>
      </trkpt>
      <trkpt lat="43.66616" lon="1.20545">
        <ele>193.02002</ele>
        <time>2013-03-24T08:56:37Z</time>
      </trkpt>
      <trkpt lat="43.66611" lon="1.20554">
        <ele>193.353683</ele>
        <time>2013-03-24T08:56:41Z</time>
      </trkpt>
      <trkpt lat="43.66616" lon="1.20605">
        <ele>193.977829</ele>
        <time>2013-03-24T08:56:57Z</time>
      </trkpt>
      <trkpt lat="43.66627" lon="1.20669">
        <ele>192.182556</ele>
        <time>2013-03-24T08:57:11Z</time>
      </trkpt>
      <trkpt lat="43.66625" lon="1.20695">
        <ele>192.069717</ele>
        <time>2013-03-24T08:57:16Z</time>
      </trkpt>
      <trkpt lat="43.66625" lon="1.20701">
        <ele>191.974335</ele>
        <time>2013-03-24T08:57:17Z</time>
      </trkpt>
      <trkpt lat="43.66627" lon="1.20708">
        <ele>191.836075</ele>
        <time>2013-03-24T08:57:18Z</time>
      </trkpt>
      <trkpt lat="43.66628" lon="1.20714">
        <ele>191.675095</ele>
        <time>2013-03-24T08:57:19Z</time>
      </trkpt>
      <trkpt lat="43.66631" lon="1.20721">
        <ele>191.506546</ele>
        <time>2013-03-24T08:57:20Z</time>
      </trkpt>
      <trkpt lat="43.66633" lon="1.20729">
        <ele>191.365433</ele>
        <time>2013-03-24T08:57:21Z</time>
      </trkpt>
      <trkpt lat="43.66633" lon="1.20737">
        <ele>191.287994</ele>
        <time>2013-03-24T08:57:22Z</time>
      </trkpt>
      <trkpt lat="43.66632" lon="1.20744">
        <ele>191.291565</ele>
        <time>2013-03-24T08:57:23Z</time>
      </trkpt>
      <trkpt lat="43.6663" lon="1.2075">
        <ele>191.33815</ele>
        <time>2013-03-24T08:57:24Z</time>
      </trkpt>
      <trkpt lat="43.66626" lon="1.20755">
        <ele>191.391602</ele>
        <time>2013-03-24T08:57:25Z</time>
      </trkpt>
      <trkpt lat="43.66584" lon="1.20825">
        <ele>191.379745</ele>
        <time>2013-03-24T08:57:42Z</time>
      </trkpt>
      <trkpt lat="43.66546" lon="1.20919">
        <ele>190.621353</ele>
        <time>2013-03-24T08:58:00Z</time>
      </trkpt>
      <trkpt lat="43.66515" lon="1.21013">
        <ele>188.65094</ele>
        <time>2013-03-24T08:58:17Z</time>
      </trkpt>
      <trkpt lat="43.66473" lon="1.21085">
        <ele>187.416779</ele>
        <time>2013-03-24T08:58:30Z</time>
      </trkpt>
      <trkpt lat="43.66443" lon="1.21115">
        <ele>186.843124</ele>
        <time>2013-03-24T08:58:37Z</time>
      </trkpt>
      <trkpt lat="43.66403" lon="1.21192">
        <ele>186.166718</ele>
        <time>2013-03-24T08:58:50Z</time>
      </trkpt>
      <trkpt lat="43.66366" lon="1.21252">
        <ele>185.054993</ele>
        <time>2013-03-24T08:59:01Z</time>
      </trkpt>
      <trkpt lat="43.66362" lon="1.21255">
        <ele>185.058746</ele>
        <time>2013-03-24T08:59:02Z</time>
      </trkpt>
      <trkpt lat="43.66357" lon="1.21256">
        <ele>185.139999</ele>
        <time>2013-03-24T08:59:03Z</time>
      </trkpt>
      <trkpt lat="43.66352" lon="1.21254">
        <ele>185.31778</ele>
        <time>2013-03-24T08:59:04Z</time>
      </trkpt>
      <trkpt lat="43.66348" lon="1.21251">
        <ele>185.539307</ele>
        <time>2013-03-24T08:59:05Z</time>
      </trkpt>
      <trkpt lat="43.66345" lon="1.21246">
        <ele>185.765488</ele>
        <time>2013-03-24T08:59:06Z</time>
      </trkpt>
      <trkpt lat="43.66341" lon="1.21242">
        <ele>185.977921</ele>
        <time>2013-03-24T08:59:07Z</time>
      </trkpt>
      <trkpt lat="43.6629" lon="1.2118">
        <ele>188.654999</ele>
        <time>2013-03-24T08:59:23Z</time>
      </trkpt>
      <trkpt lat="43.66248" lon="1.21129">
        <ele>191.332504</ele>
        <time>2013-03-24T08:59:38Z</time>
      </trkpt>
      <trkpt lat="43.6621" lon="1.21083">
        <ele>194.265274</ele>
        <time>2013-03-24T08:59:54Z</time>
      </trkpt>
      <trkpt lat="43.66173" lon="1.21037">
        <ele>197.347504</ele>
        <time>2013-03-24T09:00:11Z</time>
      </trkpt>
      <trkpt lat="43.66127" lon="1.20982">
        <ele>201.169998</ele>
        <time>2013-03-24T09:00:31Z</time>
      </trkpt>
      <trkpt lat="43.66091" lon="1.20939">
        <ele>203.382507</ele>
        <time>2013-03-24T09:00:47Z</time>
      </trkpt>
      <trkpt lat="43.66052" lon="1.2089">
        <ele>204.358307</ele>
        <time>2013-03-24T09:01:05Z</time>
      </trkpt>
      <trkpt lat="43.66022" lon="1.20862">
        <ele>204.597092</ele>
        <time>2013-03-24T09:01:18Z</time>
      </trkpt>
      <trkpt lat="43.6602" lon="1.2086">
        <ele>204.57338</ele>
        <time>2013-03-24T09:01:19Z</time>
      </trkpt>
      <trkpt lat="43.65991" lon="1.2084">
        <ele>204.321609</ele>
        <time>2013-03-24T09:01:33Z</time>
      </trkpt>
      <trkpt lat="43.65989" lon="1.20842">
        <ele>204.175003</ele>
        <time>2013-03-24T09:01:34Z</time>
      </trkpt>
      <trkpt lat="43.65988" lon="1.20845">
        <ele>204.031876</ele>
        <time>2013-03-24T09:01:35Z</time>
      </trkpt>
      <trkpt lat="43.65986" lon="1.20847">
        <ele>203.891876</ele>
        <time>2013-03-24T09:01:36Z</time>
      </trkpt>
      <trkpt lat="43.65966" lon="1.20878">
        <ele>202.098969</ele>
        <time>2013-03-24T09:01:46Z</time>
      </trkpt>
      <trkpt lat="43.65936" lon="1.20924">
        <ele>199.496872</ele>
        <time>2013-03-24T09:01:55Z</time>
      </trkpt>
      <trkpt lat="43.65932" lon="1.2093">
        <ele>199.314377</ele>
        <time>2013-03-24T09:01:56Z</time>
      </trkpt>
      <trkpt lat="43.6593" lon="1.20935">
        <ele>199.053757</ele>
        <time>2013-03-24T09:01:57Z</time>
      </trkpt>
      <trkpt lat="43.65929" lon="1.2094">
        <ele>198.772339</ele>
        <time>2013-03-24T09:01:58Z</time>
      </trkpt>
      <trkpt lat="43.6593" lon="1.20945">
        <ele>198.452866</ele>
        <time>2013-03-24T09:01:59Z</time>
      </trkpt>
      <trkpt lat="43.65932" lon="1.20951">
        <ele>198.097214</ele>
        <time>2013-03-24T09:02:00Z</time>
      </trkpt>
      <trkpt lat="43.65936" lon="1.20971">
        <ele>196.722626</ele>
        <time>2013-03-24T09:02:03Z</time>
      </trkpt>
      <trkpt lat="43.65936" lon="1.20979">
        <ele>196.207138</ele>
        <time>2013-03-24T09:02:04Z</time>
      </trkpt>
      <trkpt lat="43.65936" lon="1.20987">
        <ele>195.756805</ele>
        <time>2013-03-24T09:02:05Z</time>
      </trkpt>
      <trkpt lat="43.65936" lon="1.20995">
        <ele>195.196899</ele>
        <time>2013-03-24T09:02:06Z</time>
      </trkpt>
      <trkpt lat="43.65937" lon="1.21003">
        <ele>194.474396</ele>
        <time>2013-03-24T09:02:07Z</time>
      </trkpt>
      <trkpt lat="43.65938" lon="1.21012">
        <ele>193.702026</ele>
        <time>2013-03-24T09:02:08Z</time>
      </trkpt>
      <trkpt lat="43.65939" lon="1.21022">
        <ele>192.82988</ele>
        <time>2013-03-24T09:02:09Z</time>
      </trkpt>
      <trkpt lat="43.65941" lon="1.21032">
        <ele>191.919876</ele>
        <time>2013-03-24T09:02:10Z</time>
      </trkpt>
      <trkpt lat="43.65943" lon="1.21054">
        <ele>190.035004</ele>
        <time>2013-03-24T09:02:12Z</time>
      </trkpt>
      <trkpt lat="43.65943" lon="1.21088">
        <ele>187.239746</ele>
        <time>2013-03-24T09:02:15Z</time>
      </trkpt>
      <trkpt lat="43.65943" lon="1.21097">
        <ele>186.411499</ele>
        <time>2013-03-24T09:02:16Z</time>
      </trkpt>
      <trkpt lat="43.65935" lon="1.21184">
        <ele>180.127411</ele>
        <time>2013-03-24T09:02:25Z</time>
      </trkpt>
      <trkpt lat="43.65932" lon="1.21204">
        <ele>179.071976</ele>
        <time>2013-03-24T09:02:27Z</time>
      </trkpt>
      <trkpt lat="43.65929" lon="1.21214">
        <ele>178.45929</ele>
        <time>2013-03-24T09:02:28Z</time>
      </trkpt>
      <trkpt lat="43.65927" lon="1.21224">
        <ele>177.835342</ele>
        <time>2013-03-24T09:02:29Z</time>
      </trkpt>
      <trkpt lat="43.65925" lon="1.21234">
        <ele>177.185959</ele>
        <time>2013-03-24T09:02:30Z</time>
      </trkpt>
      <trkpt lat="43.65923" lon="1.21244">
        <ele>176.278748</ele>
        <time>2013-03-24T09:02:31Z</time>
      </trkpt>
      <trkpt lat="43.65898" lon="1.21351">
        <ele>169.098541</ele>
        <time>2013-03-24T09:02:43Z</time>
      </trkpt>
      <trkpt lat="43.65894" lon="1.21356">
        <ele>169.184662</ele>
        <time>2013-03-24T09:02:44Z</time>
      </trkpt>
      <trkpt lat="43.65891" lon="1.21361">
        <ele>169.284805</ele>
        <time>2013-03-24T09:02:45Z</time>
      </trkpt>
      <trkpt lat="43.65885" lon="1.21368">
        <ele>169.809814</ele>
        <time>2013-03-24T09:02:47Z</time>
      </trkpt>
      <trkpt lat="43.65864" lon="1.21384">
        <ele>172.330078</ele>
        <time>2013-03-24T09:02:57Z</time>
      </trkpt>
      <trkpt lat="43.65851" lon="1.21392">
        <ele>174.18428</ele>
        <time>2013-03-24T09:03:06Z</time>
      </trkpt>
      <trkpt lat="43.6585" lon="1.21393">
        <ele>174.426315</ele>
        <time>2013-03-24T09:03:07Z</time>
      </trkpt>
      <trkpt lat="43.65849" lon="1.21394">
        <ele>174.691727</ele>
        <time>2013-03-24T09:03:08Z</time>
      </trkpt>
      <trkpt lat="43.65848" lon="1.21395">
        <ele>174.856232</ele>
        <time>2013-03-24T09:03:09Z</time>
      </trkpt>
      <trkpt lat="43.65844" lon="1.21396">
        <ele>175.378937</ele>
        <time>2013-03-24T09:03:13Z</time>
      </trkpt>
      <trkpt lat="43.65845" lon="1.21398">
        <ele>175.523224</ele>
        <time>2013-03-24T09:03:16Z</time>
      </trkpt>
      <trkpt lat="43.65846" lon="1.21397">
        <ele>175.330734</ele>
        <time>2013-03-24T09:03:17Z</time>
      </trkpt>
      <trkpt lat="43.65847" lon="1.21396">
        <ele>175.11972</ele>
        <time>2013-03-24T09:03:18Z</time>
      </trkpt>
      <trkpt lat="43.65849" lon="1.21395">
        <ele>174.828033</ele>
        <time>2013-03-24T09:03:19Z</time>
      </trkpt>
      <trkpt lat="43.6585" lon="1.21394">
        <ele>174.542938</ele>
        <time>2013-03-24T09:03:20Z</time>
      </trkpt>
      <trkpt lat="43.65854" lon="1.21391">
        <ele>173.850815</ele>
        <time>2013-03-24T09:03:22Z</time>
      </trkpt>
      <trkpt lat="43.65857" lon="1.2139">
        <ele>173.541397</ele>
        <time>2013-03-24T09:03:23Z</time>
      </trkpt>
      <trkpt lat="43.65859" lon="1.21389">
        <ele>173.195038</ele>
        <time>2013-03-24T09:03:24Z</time>
      </trkpt>
      <trkpt lat="43.65862" lon="1.21387">
        <ele>172.832947</ele>
        <time>2013-03-24T09:03:25Z</time>
      </trkpt>
      <trkpt lat="43.65865" lon="1.21386">
        <ele>172.558197</ele>
        <time>2013-03-24T09:03:26Z</time>
      </trkpt>
      <trkpt lat="43.65872" lon="1.21381">
        <ele>171.725632</ele>
        <time>2013-03-24T09:03:30Z</time>
      </trkpt>
      <trkpt lat="43.65877" lon="1.21389">
        <ele>172.443802</ele>
        <time>2013-03-24T09:03:39Z</time>
      </trkpt>
      <trkpt lat="43.65885" lon="1.214">
        <ele>173.222733</ele>
        <time>2013-03-24T09:03:48Z</time>
      </trkpt>
      <trkpt lat="43.65903" lon="1.21401">
        <ele>172.17691</ele>
        <time>2013-03-24T09:03:58Z</time>
      </trkpt>
      <trkpt lat="43.6591" lon="1.21398">
        <ele>171.619232</ele>
        <time>2013-03-24T09:04:03Z</time>
      </trkpt>
      <trkpt lat="43.65913" lon="1.21396">
        <ele>171.409775</ele>
        <time>2013-03-24T09:04:05Z</time>
      </trkpt>
      <trkpt lat="43.65915" lon="1.21394">
        <ele>171.175323</ele>
        <time>2013-03-24T09:04:07Z</time>
      </trkpt>
      <trkpt lat="43.65922" lon="1.21397">
        <ele>171.113586</ele>
        <time>2013-03-24T09:04:13Z</time>
      </trkpt>
      <trkpt lat="43.65929" lon="1.21409">
        <ele>171.562622</ele>
        <time>2013-03-24T09:04:22Z</time>
      </trkpt>
      <trkpt lat="43.65938" lon="1.21407">
        <ele>170.988007</ele>
        <time>2013-03-24T09:04:32Z</time>
      </trkpt>
      <trkpt lat="43.65944" lon="1.21406">
        <ele>170.726227</ele>
        <time>2013-03-24T09:04:41Z</time>
      </trkpt>
      <trkpt lat="43.6595" lon="1.21417">
        <ele>170.799606</ele>
        <time>2013-03-24T09:04:47Z</time>
      </trkpt>
      <trkpt lat="43.65963" lon="1.21421">
        <ele>170.439774</ele>
        <time>2013-03-24T09:05:00Z</time>
      </trkpt>
      <trkpt lat="43.65966" lon="1.21425">
        <ele>170.329163</ele>
        <time>2013-03-24T09:05:12Z</time>
      </trkpt>
      <trkpt lat="43.65972" lon="1.21431">
        <ele>170.37674</ele>
        <time>2013-03-24T09:05:23Z</time>
      </trkpt>
      <trkpt lat="43.65979" lon="1.21433">
        <ele>170.152756</ele>
        <time>2013-03-24T09:05:34Z</time>
      </trkpt>
      <trkpt lat="43.65983" lon="1.21434">
        <ele>169.998596</ele>
        <time>2013-03-24T09:05:41Z</time>
      </trkpt>
      <trkpt lat="43.6599" lon="1.21439">
        <ele>169.802399</ele>
        <time>2013-03-24T09:05:52Z</time>
      </trkpt>
      <trkpt lat="43.65991" lon="1.2144">
        <ele>169.777771</ele>
        <time>2013-03-24T09:05:53Z</time>
      </trkpt>
      <trkpt lat="43.65997" lon="1.21457">
        <ele>170.055954</ele>
        <time>2013-03-24T09:06:03Z</time>
      </trkpt>
      <trkpt lat="43.66004" lon="1.21462">
        <ele>169.977753</ele>
        <time>2013-03-24T09:06:08Z</time>
      </trkpt>
      <trkpt lat="43.66019" lon="1.2148">
        <ele>169.519989</ele>
        <time>2013-03-24T09:06:20Z</time>
      </trkpt>
      <trkpt lat="43.66038" lon="1.21502">
        <ele>168.879028</ele>
        <time>2013-03-24T09:06:32Z</time>
      </trkpt>
      <trkpt lat="43.66057" lon="1.21525">
        <ele>168.77562</ele>
        <time>2013-03-24T09:06:43Z</time>
      </trkpt>
      <trkpt lat="43.6608" lon="1.21554">
        <ele>167.672714</ele>
        <time>2013-03-24T09:06:56Z</time>
      </trkpt>
      <trkpt lat="43.66099" lon="1.21588">
        <ele>167.42627</ele>
        <time>2013-03-24T09:07:08Z</time>
      </trkpt>
      <trkpt lat="43.66104" lon="1.21596">
        <ele>167.290909</ele>
        <time>2013-03-24T09:07:12Z</time>
      </trkpt>
      <trkpt lat="43.66112" lon="1.21603">
        <ele>166.978317</ele>
        <time>2013-03-24T09:07:19Z</time>
      </trkpt>
      <trkpt lat="43.66121" lon="1.216">
        <ele>166.666321</ele>
        <time>2013-03-24T09:07:29Z</time>
      </trkpt>
      <trkpt lat="43.66125" lon="1.21606">
        <ele>166.396774</ele>
        <time>2013-03-24T09:07:35Z</time>
      </trkpt>
      <trkpt lat="43.66127" lon="1.21618">
        <ele>166.442505</ele>
        <time>2013-03-24T09:07:41Z</time>
      </trkpt>
      <trkpt lat="43.66132" lon="1.21635">
        <ele>166.48938</ele>
        <time>2013-03-24T09:07:46Z</time>
      </trkpt>
      <trkpt lat="43.66135" lon="1.21644">
        <ele>166.645554</ele>
        <time>2013-03-24T09:07:49Z</time>
      </trkpt>
      <trkpt lat="43.66143" lon="1.21664">
        <ele>166.971451</ele>
        <time>2013-03-24T09:07:56Z</time>
      </trkpt>
      <trkpt lat="43.66145" lon="1.21674">
        <ele>167.300568</ele>
        <time>2013-03-24T09:08:00Z</time>
      </trkpt>
      <trkpt lat="43.66172" lon="1.21714">
        <ele>168.085968</ele>
        <time>2013-03-24T09:08:11Z</time>
      </trkpt>
      <trkpt lat="43.6621" lon="1.21756">
        <ele>167.344131</ele>
        <time>2013-03-24T09:08:24Z</time>
      </trkpt>
      <trkpt lat="43.66213" lon="1.21759">
        <ele>167.245987</ele>
        <time>2013-03-24T09:08:25Z</time>
      </trkpt>
      <trkpt lat="43.66216" lon="1.21763">
        <ele>167.153625</ele>
        <time>2013-03-24T09:08:26Z</time>
      </trkpt>
      <trkpt lat="43.66219" lon="1.21766">
        <ele>167.016785</ele>
        <time>2013-03-24T09:08:27Z</time>
      </trkpt>
      <trkpt lat="43.66238" lon="1.21786">
        <ele>165.600876</ele>
        <time>2013-03-24T09:08:33Z</time>
      </trkpt>
      <trkpt lat="43.66239" lon="1.21789">
        <ele>165.467194</ele>
        <time>2013-03-24T09:08:34Z</time>
      </trkpt>
      <trkpt lat="43.6624" lon="1.21794">
        <ele>165.673752</ele>
        <time>2013-03-24T09:08:36Z</time>
      </trkpt>
      <trkpt lat="43.66242" lon="1.21797">
        <ele>165.710007</ele>
        <time>2013-03-24T09:08:38Z</time>
      </trkpt>
      <trkpt lat="43.66243" lon="1.21799">
        <ele>165.767502</ele>
        <time>2013-03-24T09:08:57Z</time>
      </trkpt>
      <trkpt lat="43.66251" lon="1.2181">
        <ele>165.977493</ele>
        <time>2013-03-24T09:09:08Z</time>
      </trkpt>
      <trkpt lat="43.66252" lon="1.21811">
        <ele>165.917496</ele>
        <time>2013-03-24T09:09:09Z</time>
      </trkpt>
      <trkpt lat="43.66255" lon="1.21815">
        <ele>165.962494</ele>
        <time>2013-03-24T09:09:18Z</time>
      </trkpt>
      <trkpt lat="43.66262" lon="1.21824">
        <ele>166.096252</ele>
        <time>2013-03-24T09:09:30Z</time>
      </trkpt>
      <trkpt lat="43.66271" lon="1.21831">
        <ele>165.903564</ele>
        <time>2013-03-24T09:09:39Z</time>
      </trkpt>
      <trkpt lat="43.66272" lon="1.21831">
        <ele>165.819809</ele>
        <time>2013-03-24T09:09:40Z</time>
      </trkpt>
      <trkpt lat="43.66274" lon="1.21831">
        <ele>165.714233</ele>
        <time>2013-03-24T09:09:41Z</time>
      </trkpt>
      <trkpt lat="43.66275" lon="1.21832">
        <ele>165.621643</ele>
        <time>2013-03-24T09:09:42Z</time>
      </trkpt>
      <trkpt lat="43.66277" lon="1.21833">
        <ele>165.590744</ele>
        <time>2013-03-24T09:09:43Z</time>
      </trkpt>
      <trkpt lat="43.66279" lon="1.21834">
        <ele>165.550354</ele>
        <time>2013-03-24T09:09:44Z</time>
      </trkpt>
      <trkpt lat="43.66281" lon="1.21835">
        <ele>165.453094</ele>
        <time>2013-03-24T09:09:45Z</time>
      </trkpt>
      <trkpt lat="43.66292" lon="1.21836">
        <ele>164.78186</ele>
        <time>2013-03-24T09:09:50Z</time>
      </trkpt>
      <trkpt lat="43.66294" lon="1.21836">
        <ele>164.636246</ele>
        <time>2013-03-24T09:09:51Z</time>
      </trkpt>
      <trkpt lat="43.66296" lon="1.21835">
        <ele>164.410233</ele>
        <time>2013-03-24T09:09:52Z</time>
      </trkpt>
      <trkpt lat="43.66299" lon="1.21835">
        <ele>164.171082</ele>
        <time>2013-03-24T09:09:53Z</time>
      </trkpt>
      <trkpt lat="43.663" lon="1.21833">
        <ele>163.899185</ele>
        <time>2013-03-24T09:09:54Z</time>
      </trkpt>
      <trkpt lat="43.66304" lon="1.2183">
        <ele>163.475479</ele>
        <time>2013-03-24T09:10:00Z</time>
      </trkpt>
      <trkpt lat="43.66313" lon="1.21833">
        <ele>163.021255</ele>
        <time>2013-03-24T09:10:06Z</time>
      </trkpt>
      <trkpt lat="43.66319" lon="1.21842">
        <ele>163.275162</ele>
        <time>2013-03-24T09:10:20Z</time>
      </trkpt>
      <trkpt lat="43.66323" lon="1.2184">
        <ele>163.016525</ele>
        <time>2013-03-24T09:10:39Z</time>
      </trkpt>
      <trkpt lat="43.66336" lon="1.21835">
        <ele>162.393082</ele>
        <time>2013-03-24T09:10:48Z</time>
      </trkpt>
      <trkpt lat="43.66337" lon="1.21835">
        <ele>162.350006</ele>
        <time>2013-03-24T09:10:49Z</time>
      </trkpt>
      <trkpt lat="43.66346" lon="1.21831">
        <ele>162.023834</ele>
        <time>2013-03-24T09:10:54Z</time>
      </trkpt>
      <trkpt lat="43.66357" lon="1.21839">
        <ele>161.928131</ele>
        <time>2013-03-24T09:10:59Z</time>
      </trkpt>
      <trkpt lat="43.66386" lon="1.21847">
        <ele>161.924591</ele>
        <time>2013-03-24T09:11:09Z</time>
      </trkpt>
      <trkpt lat="43.66409" lon="1.21847">
        <ele>161.82251</ele>
        <time>2013-03-24T09:11:18Z</time>
      </trkpt>
      <trkpt lat="43.66412" lon="1.21845">
        <ele>161.699997</ele>
        <time>2013-03-24T09:11:20Z</time>
      </trkpt>
      <trkpt lat="43.66422" lon="1.21844">
        <ele>161.467499</ele>
        <time>2013-03-24T09:11:25Z</time>
      </trkpt>
      <trkpt lat="43.66425" lon="1.21843">
        <ele>161.360001</ele>
        <time>2013-03-24T09:11:27Z</time>
      </trkpt>
      <trkpt lat="43.6645" lon="1.21843">
        <ele>160.824997</ele>
        <time>2013-03-24T09:11:36Z</time>
      </trkpt>
      <trkpt lat="43.66472" lon="1.21837">
        <ele>160.642502</ele>
        <time>2013-03-24T09:11:42Z</time>
      </trkpt>
      <trkpt lat="43.66474" lon="1.21833">
        <ele>160.521255</ele>
        <time>2013-03-24T09:11:44Z</time>
      </trkpt>
      <trkpt lat="43.66494" lon="1.2183">
        <ele>160.436249</ele>
        <time>2013-03-24T09:11:54Z</time>
      </trkpt>
      <trkpt lat="43.66518" lon="1.21828">
        <ele>160.207779</ele>
        <time>2013-03-24T09:12:03Z</time>
      </trkpt>
      <trkpt lat="43.6653" lon="1.21826">
        <ele>160.076828</ele>
        <time>2013-03-24T09:12:08Z</time>
      </trkpt>
      <trkpt lat="43.66562" lon="1.21821">
        <ele>159.375473</ele>
        <time>2013-03-24T09:12:19Z</time>
      </trkpt>
      <trkpt lat="43.66577" lon="1.21823">
        <ele>159.280853</ele>
        <time>2013-03-24T09:12:26Z</time>
      </trkpt>
      <trkpt lat="43.66584" lon="1.21822">
        <ele>159.052734</ele>
        <time>2013-03-24T09:12:29Z</time>
      </trkpt>
      <trkpt lat="43.66599" lon="1.21826">
        <ele>159.501984</ele>
        <time>2013-03-24T09:12:35Z</time>
      </trkpt>
      <trkpt lat="43.6662" lon="1.21822">
        <ele>159.326614</ele>
        <time>2013-03-24T09:12:45Z</time>
      </trkpt>
      <trkpt lat="43.66632" lon="1.21818">
        <ele>158.920074</ele>
        <time>2013-03-24T09:12:54Z</time>
      </trkpt>
      <trkpt lat="43.6664" lon="1.21807">
        <ele>157.579025</ele>
        <time>2013-03-24T09:13:03Z</time>
      </trkpt>
      <trkpt lat="43.66641" lon="1.21807">
        <ele>157.597107</ele>
        <time>2013-03-24T09:13:26Z</time>
      </trkpt>
      <trkpt lat="43.66658" lon="1.21809">
        <ele>157.617981</ele>
        <time>2013-03-24T09:13:35Z</time>
      </trkpt>
      <trkpt lat="43.66668" lon="1.2181">
        <ele>157.643997</ele>
        <time>2013-03-24T09:13:41Z</time>
      </trkpt>
      <trkpt lat="43.66689" lon="1.21809">
        <ele>157.127502</ele>
        <time>2013-03-24T09:13:50Z</time>
      </trkpt>
      <trkpt lat="43.667" lon="1.21805">
        <ele>156.414993</ele>
        <time>2013-03-24T09:13:56Z</time>
      </trkpt>
      <trkpt lat="43.66708" lon="1.21803">
        <ele>156.047501</ele>
        <time>2013-03-24T09:14:00Z</time>
      </trkpt>
      <trkpt lat="43.66729" lon="1.21798">
        <ele>154.942505</ele>
        <time>2013-03-24T09:14:10Z</time>
      </trkpt>
      <trkpt lat="43.66734" lon="1.21798">
        <ele>154.917496</ele>
        <time>2013-03-24T09:14:14Z</time>
      </trkpt>
      <trkpt lat="43.66738" lon="1.21797">
        <ele>154.684998</ele>
        <time>2013-03-24T09:14:16Z</time>
      </trkpt>
      <trkpt lat="43.66744" lon="1.21793">
        <ele>154.0625</ele>
        <time>2013-03-24T09:14:21Z</time>
      </trkpt>
      <trkpt lat="43.66749" lon="1.21792">
        <ele>153.742493</ele>
        <time>2013-03-24T09:14:24Z</time>
      </trkpt>
      <trkpt lat="43.66758" lon="1.21781">
        <ele>152.205002</ele>
        <time>2013-03-24T09:14:30Z</time>
      </trkpt>
      <trkpt lat="43.66766" lon="1.2178">
        <ele>152.005005</ele>
        <time>2013-03-24T09:14:34Z</time>
      </trkpt>
      <trkpt lat="43.66785" lon="1.21786">
        <ele>152.753998</ele>
        <time>2013-03-24T09:14:43Z</time>
      </trkpt>
      <trkpt lat="43.66807" lon="1.21788">
        <ele>152.968338</ele>
        <time>2013-03-24T09:14:52Z</time>
      </trkpt>
      <trkpt lat="43.66816" lon="1.21792">
        <ele>153.101257</ele>
        <time>2013-03-24T09:14:57Z</time>
      </trkpt>
      <trkpt lat="43.66825" lon="1.21794">
        <ele>152.961243</ele>
        <time>2013-03-24T09:15:02Z</time>
      </trkpt>
      <trkpt lat="43.66832" lon="1.21791">
        <ele>152.346252</ele>
        <time>2013-03-24T09:15:06Z</time>
      </trkpt>
      <trkpt lat="43.66842" lon="1.2179">
        <ele>151.829376</ele>
        <time>2013-03-24T09:15:11Z</time>
      </trkpt>
      <trkpt lat="43.66848" lon="1.2179">
        <ele>151.506882</ele>
        <time>2013-03-24T09:15:14Z</time>
      </trkpt>
      <trkpt lat="43.66853" lon="1.21791">
        <ele>151.466248</ele>
        <time>2013-03-24T09:15:17Z</time>
      </trkpt>
      <trkpt lat="43.66866" lon="1.21799">
        <ele>152.117355</ele>
        <time>2013-03-24T09:15:26Z</time>
      </trkpt>
      <trkpt lat="43.66867" lon="1.21798">
        <ele>151.910065</ele>
        <time>2013-03-24T09:15:28Z</time>
      </trkpt>
      <trkpt lat="43.66888" lon="1.21804">
        <ele>151.979248</ele>
        <time>2013-03-24T09:15:37Z</time>
      </trkpt>
      <trkpt lat="43.6689" lon="1.21805">
        <ele>151.982239</ele>
        <time>2013-03-24T09:15:38Z</time>
      </trkpt>
      <trkpt lat="43.66898" lon="1.21809">
        <ele>152.043915</ele>
        <time>2013-03-24T09:15:42Z</time>
      </trkpt>
      <trkpt lat="43.66904" lon="1.21808">
        <ele>151.842896</ele>
        <time>2013-03-24T09:15:45Z</time>
      </trkpt>
      <trkpt lat="43.66921" lon="1.21817">
        <ele>151.954346</ele>
        <time>2013-03-24T09:15:54Z</time>
      </trkpt>
      <trkpt lat="43.66924" lon="1.2182">
        <ele>152.006744</ele>
        <time>2013-03-24T09:15:56Z</time>
      </trkpt>
      <trkpt lat="43.66932" lon="1.21825">
        <ele>151.971817</ele>
        <time>2013-03-24T09:16:01Z</time>
      </trkpt>
      <trkpt lat="43.66947" lon="1.21827">
        <ele>151.560883</ele>
        <time>2013-03-24T09:16:11Z</time>
      </trkpt>
      <trkpt lat="43.66955" lon="1.21835">
        <ele>151.675964</ele>
        <time>2013-03-24T09:16:22Z</time>
      </trkpt>
      <trkpt lat="43.66954" lon="1.21835">
        <ele>151.680557</ele>
        <time>2013-03-24T09:16:42Z</time>
      </trkpt>
      <trkpt lat="43.66955" lon="1.21835">
        <ele>151.670288</ele>
        <time>2013-03-24T09:17:05Z</time>
      </trkpt>
      <trkpt lat="43.66957" lon="1.21837">
        <ele>151.679443</ele>
        <time>2013-03-24T09:17:20Z</time>
      </trkpt>
      <trkpt lat="43.66957" lon="1.21837">
        <ele>151.659485</ele>
        <time>2013-03-24T09:17:47Z</time>
      </trkpt>
      <trkpt lat="43.66957" lon="1.21838">
        <ele>151.699997</ele>
        <time>2013-03-24T09:17:58Z</time>
      </trkpt>
      <trkpt lat="43.66957" lon="1.21837">
        <ele>151.665573</ele>
        <time>2013-03-24T09:18:10Z</time>
      </trkpt>
      <trkpt lat="43.66959" lon="1.21837">
        <ele>151.627167</ele>
        <time>2013-03-24T09:18:20Z</time>
      </trkpt>
      <trkpt lat="43.66959" lon="1.21837">
        <ele>151.627167</ele>
        <time>2013-03-24T09:18:45Z</time>
      </trkpt>
      <trkpt lat="43.66957" lon="1.21837">
        <ele>151.674271</ele>
        <time>2013-03-24T09:18:56Z</time>
      </trkpt>
      <trkpt lat="43.66953" lon="1.21845">
        <ele>152.795593</ele>
        <time>2013-03-24T09:19:04Z</time>
      </trkpt>
      <trkpt lat="43.66951" lon="1.21847">
        <ele>153.307281</ele>
        <time>2013-03-24T09:19:07Z</time>
      </trkpt>
      <trkpt lat="43.66947" lon="1.21864">
        <ele>156.371872</ele>
        <time>2013-03-24T09:19:22Z</time>
      </trkpt>
      <trkpt lat="43.66946" lon="1.21867">
        <ele>156.960281</ele>
        <time>2013-03-24T09:19:25Z</time>
      </trkpt>
      <trkpt lat="43.66946" lon="1.21871">
        <ele>157.629379</ele>
        <time>2013-03-24T09:19:28Z</time>
      </trkpt>
      <trkpt lat="43.66944" lon="1.21886">
        <ele>160.408325</ele>
        <time>2013-03-24T09:19:41Z</time>
      </trkpt>
      <trkpt lat="43.66942" lon="1.21898">
        <ele>162.705399</ele>
        <time>2013-03-24T09:19:53Z</time>
      </trkpt>
      <trkpt lat="43.66938" lon="1.21911">
        <ele>165.065155</ele>
        <time>2013-03-24T09:20:06Z</time>
      </trkpt>
      <trkpt lat="43.66934" lon="1.21923">
        <ele>167.15477</ele>
        <time>2013-03-24T09:20:18Z</time>
      </trkpt>
      <trkpt lat="43.66934" lon="1.21928">
        <ele>167.878082</ele>
        <time>2013-03-24T09:20:32Z</time>
      </trkpt>
      <trkpt lat="43.6693" lon="1.21936">
        <ele>169.500183</ele>
        <time>2013-03-24T09:20:45Z</time>
      </trkpt>
      <trkpt lat="43.66929" lon="1.21937">
        <ele>169.670761</ele>
        <time>2013-03-24T09:20:47Z</time>
      </trkpt>
      <trkpt lat="43.66922" lon="1.21943">
        <ele>171.435776</ele>
        <time>2013-03-24T09:20:59Z</time>
      </trkpt>
      <trkpt lat="43.66919" lon="1.21946">
        <ele>172.094879</ele>
        <time>2013-03-24T09:21:07Z</time>
      </trkpt>
      <trkpt lat="43.66921" lon="1.2195">
        <ele>172.617554</ele>
        <time>2013-03-24T09:21:20Z</time>
      </trkpt>
      <trkpt lat="43.66922" lon="1.21956">
        <ele>173.449081</ele>
        <time>2013-03-24T09:21:38Z</time>
      </trkpt>
      <trkpt lat="43.66924" lon="1.21961">
        <ele>173.964935</ele>
        <time>2013-03-24T09:21:48Z</time>
      </trkpt>
      <trkpt lat="43.66924" lon="1.21967">
        <ele>174.469208</ele>
        <time>2013-03-24T09:21:58Z</time>
      </trkpt>
      <trkpt lat="43.66919" lon="1.21969">
        <ele>175.012711</ele>
        <time>2013-03-24T09:22:11Z</time>
      </trkpt>
      <trkpt lat="43.66916" lon="1.21968">
        <ele>175.265915</ele>
        <time>2013-03-24T09:22:24Z</time>
      </trkpt>
      <trkpt lat="43.66916" lon="1.21968">
        <ele>175.278214</ele>
        <time>2013-03-24T09:22:25Z</time>
      </trkpt>
      <trkpt lat="43.6692" lon="1.21974">
        <ele>174.948318</ele>
        <time>2013-03-24T09:22:38Z</time>
      </trkpt>
      <trkpt lat="43.66923" lon="1.21981">
        <ele>174.700531</ele>
        <time>2013-03-24T09:22:48Z</time>
      </trkpt>
      <trkpt lat="43.66923" lon="1.21982">
        <ele>174.631866</ele>
        <time>2013-03-24T09:22:51Z</time>
      </trkpt>
      <trkpt lat="43.66927" lon="1.21991">
        <ele>174.392624</ele>
        <time>2013-03-24T09:23:02Z</time>
      </trkpt>
      <trkpt lat="43.66927" lon="1.21991">
        <ele>174.392624</ele>
        <time>2013-03-24T09:23:22Z</time>
      </trkpt>
      <trkpt lat="43.66927" lon="1.21989">
        <ele>174.354324</ele>
        <time>2013-03-24T09:26:51Z</time>
      </trkpt>
      <trkpt lat="43.66926" lon="1.21983">
        <ele>174.394379</ele>
        <time>2013-03-24T09:27:02Z</time>
      </trkpt>
      <trkpt lat="43.66926" lon="1.21983">
        <ele>174.379898</ele>
        <time>2013-03-24T09:27:40Z</time>
      </trkpt>
      <trkpt lat="43.66926" lon="1.21983">
        <ele>174.353683</ele>
        <time>2013-03-24T09:28:00Z</time>
      </trkpt>
      <trkpt lat="43.66926" lon="1.21973">
        <ele>174.258621</ele>
        <time>2013-03-24T09:28:12Z</time>
      </trkpt>
      <trkpt lat="43.66927" lon="1.21969">
        <ele>174.128021</ele>
        <time>2013-03-24T09:28:25Z</time>
      </trkpt>
      <trkpt lat="43.66927" lon="1.21966">
        <ele>174.082443</ele>
        <time>2013-03-24T09:28:28Z</time>
      </trkpt>
      <trkpt lat="43.66929" lon="1.21961">
        <ele>173.546082</ele>
        <time>2013-03-24T09:28:39Z</time>
      </trkpt>
      <trkpt lat="43.66929" lon="1.21961">
        <ele>173.546082</ele>
        <time>2013-03-24T09:28:40Z</time>
      </trkpt>
      <trkpt lat="43.66924" lon="1.2195">
        <ele>172.294937</ele>
        <time>2013-03-24T09:28:50Z</time>
      </trkpt>
      <trkpt lat="43.66927" lon="1.21943">
        <ele>170.808868</ele>
        <time>2013-03-24T09:28:59Z</time>
      </trkpt>
      <trkpt lat="43.66928" lon="1.21941">
        <ele>170.467377</ele>
        <time>2013-03-24T09:29:01Z</time>
      </trkpt>
      <trkpt lat="43.66931" lon="1.21939">
        <ele>169.945938</ele>
        <time>2013-03-24T09:29:12Z</time>
      </trkpt>
      <trkpt lat="43.66931" lon="1.21934">
        <ele>169.006439</ele>
        <time>2013-03-24T09:29:22Z</time>
      </trkpt>
      <trkpt lat="43.66934" lon="1.21932">
        <ele>168.635193</ele>
        <time>2013-03-24T09:29:32Z</time>
      </trkpt>
      <trkpt lat="43.66935" lon="1.21931">
        <ele>168.264359</ele>
        <time>2013-03-24T09:29:34Z</time>
      </trkpt>
      <trkpt lat="43.66937" lon="1.2193">
        <ele>167.898254</ele>
        <time>2013-03-24T09:29:44Z</time>
      </trkpt>
      <trkpt lat="43.66938" lon="1.21931">
        <ele>167.959427</ele>
        <time>2013-03-24T09:29:48Z</time>
      </trkpt>
      <trkpt lat="43.66949" lon="1.21941">
        <ele>168.499374</ele>
        <time>2013-03-24T09:30:02Z</time>
      </trkpt>
      <trkpt lat="43.66952" lon="1.21945">
        <ele>168.768127</ele>
        <time>2013-03-24T09:30:12Z</time>
      </trkpt>
      <trkpt lat="43.6696" lon="1.21952">
        <ele>168.954376</ele>
        <time>2013-03-24T09:30:23Z</time>
      </trkpt>
      <trkpt lat="43.66962" lon="1.21954">
        <ele>168.888748</ele>
        <time>2013-03-24T09:30:25Z</time>
      </trkpt>
      <trkpt lat="43.66978" lon="1.21966">
        <ele>168.51741</ele>
        <time>2013-03-24T09:30:40Z</time>
      </trkpt>
      <trkpt lat="43.66982" lon="1.21969">
        <ele>168.274658</ele>
        <time>2013-03-24T09:30:52Z</time>
      </trkpt>
      <trkpt lat="43.66983" lon="1.21972">
        <ele>168.282318</ele>
        <time>2013-03-24T09:30:57Z</time>
      </trkpt>
      <trkpt lat="43.6699" lon="1.21982">
        <ele>168.071503</ele>
        <time>2013-03-24T09:31:06Z</time>
      </trkpt>
      <trkpt lat="43.6699" lon="1.21987">
        <ele>168.274811</ele>
        <time>2013-03-24T09:31:09Z</time>
      </trkpt>
      <trkpt lat="43.66989" lon="1.22003">
        <ele>169.180313</ele>
        <time>2013-03-24T09:31:22Z</time>
      </trkpt>
      <trkpt lat="43.66988" lon="1.22012">
        <ele>169.645981</ele>
        <time>2013-03-24T09:31:35Z</time>
      </trkpt>
      <trkpt lat="43.66988" lon="1.22014">
        <ele>169.789749</ele>
        <time>2013-03-24T09:31:46Z</time>
      </trkpt>
      <trkpt lat="43.66987" lon="1.22011">
        <ele>169.710709</ele>
        <time>2013-03-24T09:32:45Z</time>
      </trkpt>
      <trkpt lat="43.66986" lon="1.2201">
        <ele>169.725357</ele>
        <time>2013-03-24T09:32:46Z</time>
      </trkpt>
      <trkpt lat="43.66985" lon="1.2201">
        <ele>169.819809</ele>
        <time>2013-03-24T09:32:49Z</time>
      </trkpt>
      <trkpt lat="43.66972" lon="1.22006">
        <ele>170.612183</ele>
        <time>2013-03-24T09:32:58Z</time>
      </trkpt>
      <trkpt lat="43.66956" lon="1.2201">
        <ele>171.95639</ele>
        <time>2013-03-24T09:33:06Z</time>
      </trkpt>
      <trkpt lat="43.66953" lon="1.22012">
        <ele>172.253525</ele>
        <time>2013-03-24T09:33:08Z</time>
      </trkpt>
      <trkpt lat="43.66946" lon="1.22014">
        <ele>172.811295</ele>
        <time>2013-03-24T09:33:18Z</time>
      </trkpt>
      <trkpt lat="43.66941" lon="1.2202">
        <ele>173.428909</ele>
        <time>2013-03-24T09:33:29Z</time>
      </trkpt>
      <trkpt lat="43.6694" lon="1.22021">
        <ele>173.534058</ele>
        <time>2013-03-24T09:33:30Z</time>
      </trkpt>
      <trkpt lat="43.66935" lon="1.22025">
        <ele>173.992798</ele>
        <time>2013-03-24T09:33:39Z</time>
      </trkpt>
      <trkpt lat="43.66928" lon="1.22024">
        <ele>174.593246</ele>
        <time>2013-03-24T09:33:50Z</time>
      </trkpt>
      <trkpt lat="43.6692" lon="1.22023">
        <ele>175.359818</ele>
        <time>2013-03-24T09:34:02Z</time>
      </trkpt>
      <trkpt lat="43.66917" lon="1.22022">
        <ele>175.551453</ele>
        <time>2013-03-24T09:34:14Z</time>
      </trkpt>
      <trkpt lat="43.66916" lon="1.22022">
        <ele>175.683548</ele>
        <time>2013-03-24T09:34:17Z</time>
      </trkpt>
      <trkpt lat="43.66903" lon="1.22018">
        <ele>176.804504</ele>
        <time>2013-03-24T09:34:29Z</time>
      </trkpt>
      <trkpt lat="43.66899" lon="1.22018">
        <ele>177.155197</ele>
        <time>2013-03-24T09:34:49Z</time>
      </trkpt>
      <trkpt lat="43.66899" lon="1.22018">
        <ele>177.155197</ele>
        <time>2013-03-24T09:35:22Z</time>
      </trkpt>
      <trkpt lat="43.66891" lon="1.22016">
        <ele>177.873596</ele>
        <time>2013-03-24T09:36:10Z</time>
      </trkpt>
      <trkpt lat="43.66878" lon="1.22011">
        <ele>178.939621</ele>
        <time>2013-03-24T09:36:17Z</time>
      </trkpt>
      <trkpt lat="43.66869" lon="1.22009">
        <ele>179.639862</ele>
        <time>2013-03-24T09:36:21Z</time>
      </trkpt>
      <trkpt lat="43.66843" lon="1.21991">
        <ele>181.125412</ele>
        <time>2013-03-24T09:36:34Z</time>
      </trkpt>
      <trkpt lat="43.66841" lon="1.21991">
        <ele>181.23024</ele>
        <time>2013-03-24T09:36:45Z</time>
      </trkpt>
      <trkpt lat="43.66835" lon="1.21991">
        <ele>181.564758</ele>
        <time>2013-03-24T09:36:56Z</time>
      </trkpt>
      <trkpt lat="43.66833" lon="1.21992">
        <ele>181.663727</ele>
        <time>2013-03-24T09:37:11Z</time>
      </trkpt>
      <trkpt lat="43.6682" lon="1.21993">
        <ele>182.439026</ele>
        <time>2013-03-24T09:37:21Z</time>
      </trkpt>
      <trkpt lat="43.66789" lon="1.21999">
        <ele>183.84935</ele>
        <time>2013-03-24T09:37:35Z</time>
      </trkpt>
      <trkpt lat="43.66761" lon="1.22006">
        <ele>184.936874</ele>
        <time>2013-03-24T09:37:47Z</time>
      </trkpt>
      <trkpt lat="43.66736" lon="1.22037">
        <ele>185.827103</ele>
        <time>2013-03-24T09:38:01Z</time>
      </trkpt>
      <trkpt lat="43.66716" lon="1.22035">
        <ele>185.920151</ele>
        <time>2013-03-24T09:38:10Z</time>
      </trkpt>
      <trkpt lat="43.6669" lon="1.22039">
        <ele>185.953537</ele>
        <time>2013-03-24T09:38:22Z</time>
      </trkpt>
      <trkpt lat="43.66649" lon="1.22041">
        <ele>186.390396</ele>
        <time>2013-03-24T09:38:37Z</time>
      </trkpt>
      <trkpt lat="43.66598" lon="1.22043">
        <ele>185.718567</ele>
        <time>2013-03-24T09:38:52Z</time>
      </trkpt>
      <trkpt lat="43.66581" lon="1.22044">
        <ele>185.413132</ele>
        <time>2013-03-24T09:38:56Z</time>
      </trkpt>
      <trkpt lat="43.66577" lon="1.22043">
        <ele>185.43187</ele>
        <time>2013-03-24T09:38:57Z</time>
      </trkpt>
      <trkpt lat="43.66524" lon="1.22045">
        <ele>185.477371</ele>
        <time>2013-03-24T09:39:12Z</time>
      </trkpt>
      <trkpt lat="43.6649" lon="1.2204">
        <ele>185.666489</ele>
        <time>2013-03-24T09:39:24Z</time>
      </trkpt>
      <trkpt lat="43.66457" lon="1.22045">
        <ele>185.068268</ele>
        <time>2013-03-24T09:39:36Z</time>
      </trkpt>
      <trkpt lat="43.66424" lon="1.22058">
        <ele>185.238876</ele>
        <time>2013-03-24T09:39:49Z</time>
      </trkpt>
      <trkpt lat="43.66389" lon="1.2206">
        <ele>185.157196</ele>
        <time>2013-03-24T09:40:02Z</time>
      </trkpt>
      <trkpt lat="43.66353" lon="1.22044">
        <ele>184.416672</ele>
        <time>2013-03-24T09:40:15Z</time>
      </trkpt>
      <trkpt lat="43.6631" lon="1.22034">
        <ele>184.818604</ele>
        <time>2013-03-24T09:40:29Z</time>
      </trkpt>
      <trkpt lat="43.66275" lon="1.22029">
        <ele>184.688583</ele>
        <time>2013-03-24T09:40:39Z</time>
      </trkpt>
      <trkpt lat="43.66245" lon="1.22017">
        <ele>185.508743</ele>
        <time>2013-03-24T09:40:52Z</time>
      </trkpt>
      <trkpt lat="43.6624" lon="1.22016">
        <ele>185.682495</ele>
        <time>2013-03-24T09:41:06Z</time>
      </trkpt>
      <trkpt lat="43.66223" lon="1.22013">
        <ele>186.259949</ele>
        <time>2013-03-24T09:41:22Z</time>
      </trkpt>
      <trkpt lat="43.66183" lon="1.21992">
        <ele>186.954102</ele>
        <time>2013-03-24T09:41:35Z</time>
      </trkpt>
      <trkpt lat="43.66135" lon="1.21972">
        <ele>188.810532</ele>
        <time>2013-03-24T09:41:49Z</time>
      </trkpt>
      <trkpt lat="43.66093" lon="1.21964">
        <ele>189.705597</ele>
        <time>2013-03-24T09:42:01Z</time>
      </trkpt>
      <trkpt lat="43.66044" lon="1.21953">
        <ele>190.974808</ele>
        <time>2013-03-24T09:42:14Z</time>
      </trkpt>
      <trkpt lat="43.66001" lon="1.21944">
        <ele>192.620819</ele>
        <time>2013-03-24T09:42:26Z</time>
      </trkpt>
      <trkpt lat="43.65966" lon="1.21951">
        <ele>193.699875</ele>
        <time>2013-03-24T09:42:35Z</time>
      </trkpt>
      <trkpt lat="43.65915" lon="1.21983">
        <ele>193.045639</ele>
        <time>2013-03-24T09:42:49Z</time>
      </trkpt>
      <trkpt lat="43.65905" lon="1.21992">
        <ele>192.395935</ele>
        <time>2013-03-24T09:42:53Z</time>
      </trkpt>
      <trkpt lat="43.65902" lon="1.21993">
        <ele>192.265182</ele>
        <time>2013-03-24T09:42:54Z</time>
      </trkpt>
      <trkpt lat="43.65872" lon="1.22027">
        <ele>190.446472</ele>
        <time>2013-03-24T09:43:06Z</time>
      </trkpt>
      <trkpt lat="43.65846" lon="1.2206">
        <ele>189.326157</ele>
        <time>2013-03-24T09:43:17Z</time>
      </trkpt>
      <trkpt lat="43.65822" lon="1.22079">
        <ele>188.978134</ele>
        <time>2013-03-24T09:43:27Z</time>
      </trkpt>
      <trkpt lat="43.65803" lon="1.22093">
        <ele>188.84259</ele>
        <time>2013-03-24T09:43:38Z</time>
      </trkpt>
      <trkpt lat="43.65794" lon="1.22116">
        <ele>188.535004</ele>
        <time>2013-03-24T09:43:46Z</time>
      </trkpt>
      <trkpt lat="43.65778" lon="1.22121">
        <ele>188.818802</ele>
        <time>2013-03-24T09:43:51Z</time>
      </trkpt>
      <trkpt lat="43.6576" lon="1.22133">
        <ele>188.929001</ele>
        <time>2013-03-24T09:43:57Z</time>
      </trkpt>
      <trkpt lat="43.65734" lon="1.22157">
        <ele>189.759308</ele>
        <time>2013-03-24T09:44:09Z</time>
      </trkpt>
      <trkpt lat="43.6573" lon="1.22177">
        <ele>190.073746</ele>
        <time>2013-03-24T09:44:15Z</time>
      </trkpt>
      <trkpt lat="43.65734" lon="1.22196">
        <ele>190.380005</ele>
        <time>2013-03-24T09:44:22Z</time>
      </trkpt>
      <trkpt lat="43.65739" lon="1.22201">
        <ele>190.37114</ele>
        <time>2013-03-24T09:44:26Z</time>
      </trkpt>
      <trkpt lat="43.65741" lon="1.2221">
        <ele>190.491043</ele>
        <time>2013-03-24T09:44:29Z</time>
      </trkpt>
      <trkpt lat="43.65749" lon="1.22216">
        <ele>190.531052</ele>
        <time>2013-03-24T09:44:33Z</time>
      </trkpt>
      <trkpt lat="43.65788" lon="1.22221">
        <ele>190.408188</ele>
        <time>2013-03-24T09:44:44Z</time>
      </trkpt>
      <trkpt lat="43.65825" lon="1.22226">
        <ele>190.585007</ele>
        <time>2013-03-24T09:44:54Z</time>
      </trkpt>
      <trkpt lat="43.65833" lon="1.22225">
        <ele>190.336685</ele>
        <time>2013-03-24T09:44:56Z</time>
      </trkpt>
      <trkpt lat="43.65837" lon="1.22224">
        <ele>190.171768</ele>
        <time>2013-03-24T09:44:57Z</time>
      </trkpt>
      <trkpt lat="43.65854" lon="1.22223">
        <ele>189.670074</ele>
        <time>2013-03-24T09:45:01Z</time>
      </trkpt>
      <trkpt lat="43.65859" lon="1.22224">
        <ele>189.645004</ele>
        <time>2013-03-24T09:45:02Z</time>
      </trkpt>
      <trkpt lat="43.65864" lon="1.22224">
        <ele>189.524765</ele>
        <time>2013-03-24T09:45:03Z</time>
      </trkpt>
      <trkpt lat="43.65869" lon="1.22224">
        <ele>189.415863</ele>
        <time>2013-03-24T09:45:04Z</time>
      </trkpt>
      <trkpt lat="43.65873" lon="1.22225">
        <ele>189.175705</ele>
        <time>2013-03-24T09:45:05Z</time>
      </trkpt>
      <trkpt lat="43.65878" lon="1.22227">
        <ele>188.973526</ele>
        <time>2013-03-24T09:45:06Z</time>
      </trkpt>
      <trkpt lat="43.65882" lon="1.22229">
        <ele>188.76416</ele>
        <time>2013-03-24T09:45:07Z</time>
      </trkpt>
      <trkpt lat="43.65887" lon="1.22231">
        <ele>188.475555</ele>
        <time>2013-03-24T09:45:08Z</time>
      </trkpt>
      <trkpt lat="43.65896" lon="1.22234">
        <ele>187.791061</ele>
        <time>2013-03-24T09:45:10Z</time>
      </trkpt>
      <trkpt lat="43.65901" lon="1.22235">
        <ele>187.410339</ele>
        <time>2013-03-24T09:45:11Z</time>
      </trkpt>
      <trkpt lat="43.65906" lon="1.22237">
        <ele>187.022461</ele>
        <time>2013-03-24T09:45:12Z</time>
      </trkpt>
      <trkpt lat="43.65916" lon="1.22239">
        <ele>186.304108</ele>
        <time>2013-03-24T09:45:14Z</time>
      </trkpt>
      <trkpt lat="43.65921" lon="1.22242">
        <ele>186.094955</ele>
        <time>2013-03-24T09:45:15Z</time>
      </trkpt>
      <trkpt lat="43.65926" lon="1.22246">
        <ele>185.975662</ele>
        <time>2013-03-24T09:45:16Z</time>
      </trkpt>
      <trkpt lat="43.65929" lon="1.22251">
        <ele>185.954514</ele>
        <time>2013-03-24T09:45:17Z</time>
      </trkpt>
      <trkpt lat="43.65932" lon="1.22257">
        <ele>185.967819</ele>
        <time>2013-03-24T09:45:18Z</time>
      </trkpt>
      <trkpt lat="43.65941" lon="1.22273">
        <ele>185.95079</ele>
        <time>2013-03-24T09:45:21Z</time>
      </trkpt>
      <trkpt lat="43.65943" lon="1.22279">
        <ele>186.005997</ele>
        <time>2013-03-24T09:45:22Z</time>
      </trkpt>
      <trkpt lat="43.65948" lon="1.22291">
        <ele>186.033157</ele>
        <time>2013-03-24T09:45:24Z</time>
      </trkpt>
      <trkpt lat="43.65951" lon="1.22295">
        <ele>185.801727</ele>
        <time>2013-03-24T09:45:25Z</time>
      </trkpt>
      <trkpt lat="43.65954" lon="1.223">
        <ele>185.53772</ele>
        <time>2013-03-24T09:45:26Z</time>
      </trkpt>
      <trkpt lat="43.65964" lon="1.22315">
        <ele>184.701614</ele>
        <time>2013-03-24T09:45:29Z</time>
      </trkpt>
      <trkpt lat="43.65968" lon="1.22319">
        <ele>184.39682</ele>
        <time>2013-03-24T09:45:30Z</time>
      </trkpt>
      <trkpt lat="43.65973" lon="1.22322">
        <ele>184.028931</ele>
        <time>2013-03-24T09:45:31Z</time>
      </trkpt>
      <trkpt lat="43.65978" lon="1.22325">
        <ele>183.686157</ele>
        <time>2013-03-24T09:45:32Z</time>
      </trkpt>
      <trkpt lat="43.65982" lon="1.22328">
        <ele>183.365005</ele>
        <time>2013-03-24T09:45:33Z</time>
      </trkpt>
      <trkpt lat="43.65986" lon="1.22329">
        <ele>183.080429</ele>
        <time>2013-03-24T09:45:34Z</time>
      </trkpt>
      <trkpt lat="43.6599" lon="1.2233">
        <ele>182.815903</ele>
        <time>2013-03-24T09:45:35Z</time>
      </trkpt>
      <trkpt lat="43.65993" lon="1.22332">
        <ele>182.579865</ele>
        <time>2013-03-24T09:45:36Z</time>
      </trkpt>
      <trkpt lat="43.65995" lon="1.22335">
        <ele>182.442993</ele>
        <time>2013-03-24T09:45:37Z</time>
      </trkpt>
      <trkpt lat="43.65997" lon="1.22338">
        <ele>182.369019</ele>
        <time>2013-03-24T09:45:38Z</time>
      </trkpt>
      <trkpt lat="43.65998" lon="1.22342">
        <ele>182.324005</ele>
        <time>2013-03-24T09:45:39Z</time>
      </trkpt>
      <trkpt lat="43.65999" lon="1.22346">
        <ele>182.333176</ele>
        <time>2013-03-24T09:45:40Z</time>
      </trkpt>
      <trkpt lat="43.66" lon="1.2235">
        <ele>182.365509</ele>
        <time>2013-03-24T09:45:41Z</time>
      </trkpt>
      <trkpt lat="43.66" lon="1.22354">
        <ele>182.376251</ele>
        <time>2013-03-24T09:45:42Z</time>
      </trkpt>
      <trkpt lat="43.65998" lon="1.22359">
        <ele>182.391251</ele>
        <time>2013-03-24T09:45:43Z</time>
      </trkpt>
      <trkpt lat="43.65994" lon="1.22373">
        <ele>182.485626</ele>
        <time>2013-03-24T09:45:46Z</time>
      </trkpt>
      <trkpt lat="43.65994" lon="1.22379">
        <ele>182.399368</ele>
        <time>2013-03-24T09:45:47Z</time>
      </trkpt>
      <trkpt lat="43.65994" lon="1.22385">
        <ele>182.276871</ele>
        <time>2013-03-24T09:45:48Z</time>
      </trkpt>
      <trkpt lat="43.65994" lon="1.22391">
        <ele>182.182495</ele>
        <time>2013-03-24T09:45:49Z</time>
      </trkpt>
      <trkpt lat="43.65994" lon="1.22396">
        <ele>182.124374</ele>
        <time>2013-03-24T09:45:50Z</time>
      </trkpt>
      <trkpt lat="43.65994" lon="1.224">
        <ele>182.071869</ele>
        <time>2013-03-24T09:45:51Z</time>
      </trkpt>
      <trkpt lat="43.65993" lon="1.22403">
        <ele>182.095627</ele>
        <time>2013-03-24T09:45:52Z</time>
      </trkpt>
      <trkpt lat="43.65991" lon="1.22406">
        <ele>182.142502</ele>
        <time>2013-03-24T09:45:53Z</time>
      </trkpt>
      <trkpt lat="43.6599" lon="1.22409">
        <ele>182.169373</ele>
        <time>2013-03-24T09:45:54Z</time>
      </trkpt>
      <trkpt lat="43.65989" lon="1.22413">
        <ele>182.211868</ele>
        <time>2013-03-24T09:45:55Z</time>
      </trkpt>
      <trkpt lat="43.65986" lon="1.22416">
        <ele>182.344772</ele>
        <time>2013-03-24T09:45:56Z</time>
      </trkpt>
      <trkpt lat="43.65983" lon="1.2242">
        <ele>182.511093</ele>
        <time>2013-03-24T09:45:57Z</time>
      </trkpt>
      <trkpt lat="43.65973" lon="1.22441">
        <ele>182.94696</ele>
        <time>2013-03-24T09:46:02Z</time>
      </trkpt>
      <trkpt lat="43.6597" lon="1.22445">
        <ele>183.072708</ele>
        <time>2013-03-24T09:46:03Z</time>
      </trkpt>
      <trkpt lat="43.65967" lon="1.22448">
        <ele>183.194962</ele>
        <time>2013-03-24T09:46:04Z</time>
      </trkpt>
      <trkpt lat="43.65965" lon="1.22451">
        <ele>183.262894</ele>
        <time>2013-03-24T09:46:05Z</time>
      </trkpt>
      <trkpt lat="43.65963" lon="1.22454">
        <ele>183.330978</ele>
        <time>2013-03-24T09:46:06Z</time>
      </trkpt>
      <trkpt lat="43.6596" lon="1.22456">
        <ele>183.467499</ele>
        <time>2013-03-24T09:46:07Z</time>
      </trkpt>
      <trkpt lat="43.65941" lon="1.22479">
        <ele>184.777878</ele>
        <time>2013-03-24T09:46:15Z</time>
      </trkpt>
      <trkpt lat="43.6594" lon="1.22481">
        <ele>184.873749</ele>
        <time>2013-03-24T09:46:16Z</time>
      </trkpt>
      <trkpt lat="43.65938" lon="1.22485">
        <ele>184.929428</ele>
        <time>2013-03-24T09:46:17Z</time>
      </trkpt>
      <trkpt lat="43.65924" lon="1.22514">
        <ele>185.695999</ele>
        <time>2013-03-24T09:46:24Z</time>
      </trkpt>
      <trkpt lat="43.65921" lon="1.22516">
        <ele>185.936798</ele>
        <time>2013-03-24T09:46:25Z</time>
      </trkpt>
      <trkpt lat="43.65918" lon="1.22518">
        <ele>186.228134</ele>
        <time>2013-03-24T09:46:26Z</time>
      </trkpt>
      <trkpt lat="43.65915" lon="1.2252">
        <ele>186.412506</ele>
        <time>2013-03-24T09:46:27Z</time>
      </trkpt>
      <trkpt lat="43.65913" lon="1.22522">
        <ele>186.486252</ele>
        <time>2013-03-24T09:46:28Z</time>
      </trkpt>
      <trkpt lat="43.65912" lon="1.22525">
        <ele>186.492493</ele>
        <time>2013-03-24T09:46:29Z</time>
      </trkpt>
      <trkpt lat="43.65911" lon="1.22527">
        <ele>186.496246</ele>
        <time>2013-03-24T09:46:30Z</time>
      </trkpt>
      <trkpt lat="43.6591" lon="1.2253">
        <ele>186.516251</ele>
        <time>2013-03-24T09:46:31Z</time>
      </trkpt>
      <trkpt lat="43.65909" lon="1.22534">
        <ele>186.493118</ele>
        <time>2013-03-24T09:46:32Z</time>
      </trkpt>
      <trkpt lat="43.65909" lon="1.22537">
        <ele>186.429993</ele>
        <time>2013-03-24T09:46:33Z</time>
      </trkpt>
      <trkpt lat="43.65909" lon="1.2254">
        <ele>186.393753</ele>
        <time>2013-03-24T09:46:34Z</time>
      </trkpt>
      <trkpt lat="43.65908" lon="1.22542">
        <ele>186.357498</ele>
        <time>2013-03-24T09:46:35Z</time>
      </trkpt>
      <trkpt lat="43.65908" lon="1.22546">
        <ele>186.270004</ele>
        <time>2013-03-24T09:46:36Z</time>
      </trkpt>
      <trkpt lat="43.65908" lon="1.22548">
        <ele>186.186249</ele>
        <time>2013-03-24T09:46:37Z</time>
      </trkpt>
      <trkpt lat="43.65908" lon="1.2255">
        <ele>186.131256</ele>
        <time>2013-03-24T09:46:38Z</time>
      </trkpt>
      <trkpt lat="43.65907" lon="1.22554">
        <ele>186.023743</ele>
        <time>2013-03-24T09:46:39Z</time>
      </trkpt>
      <trkpt lat="43.65908" lon="1.22558">
        <ele>185.869995</ele>
        <time>2013-03-24T09:46:40Z</time>
      </trkpt>
      <trkpt lat="43.65918" lon="1.22588">
        <ele>184.46875</ele>
        <time>2013-03-24T09:46:47Z</time>
      </trkpt>
      <trkpt lat="43.6592" lon="1.22622">
        <ele>184.709991</ele>
        <time>2013-03-24T09:46:54Z</time>
      </trkpt>
      <trkpt lat="43.65919" lon="1.22654">
        <ele>185.696243</ele>
        <time>2013-03-24T09:47:02Z</time>
      </trkpt>
      <trkpt lat="43.65916" lon="1.22661">
        <ele>185.857971</ele>
        <time>2013-03-24T09:47:04Z</time>
      </trkpt>
      <trkpt lat="43.65894" lon="1.22698">
        <ele>185.666763</ele>
        <time>2013-03-24T09:47:14Z</time>
      </trkpt>
      <trkpt lat="43.65889" lon="1.22713">
        <ele>185.581146</ele>
        <time>2013-03-24T09:47:18Z</time>
      </trkpt>
      <trkpt lat="43.65894" lon="1.22737">
        <ele>186.160156</ele>
        <time>2013-03-24T09:47:24Z</time>
      </trkpt>
      <trkpt lat="43.65899" lon="1.2276">
        <ele>186.861191</ele>
        <time>2013-03-24T09:47:31Z</time>
      </trkpt>
      <trkpt lat="43.65899" lon="1.22762">
        <ele>186.925079</ele>
        <time>2013-03-24T09:47:33Z</time>
      </trkpt>
      <trkpt lat="43.65902" lon="1.22767">
        <ele>187.145355</ele>
        <time>2013-03-24T09:47:37Z</time>
      </trkpt>
      <trkpt lat="43.659" lon="1.22775">
        <ele>187.26062</ele>
        <time>2013-03-24T09:47:40Z</time>
      </trkpt>
      <trkpt lat="43.65901" lon="1.2278">
        <ele>187.398956</ele>
        <time>2013-03-24T09:47:52Z</time>
      </trkpt>
      <trkpt lat="43.65909" lon="1.22773">
        <ele>187.458588</ele>
        <time>2013-03-24T09:48:02Z</time>
      </trkpt>
      <trkpt lat="43.65914" lon="1.22766">
        <ele>187.484222</ele>
        <time>2013-03-24T09:48:06Z</time>
      </trkpt>
      <trkpt lat="43.65944" lon="1.22722">
        <ele>187.526001</ele>
        <time>2013-03-24T09:48:18Z</time>
      </trkpt>
      <trkpt lat="43.65946" lon="1.22717">
        <ele>187.537231</ele>
        <time>2013-03-24T09:48:19Z</time>
      </trkpt>
      <trkpt lat="43.65948" lon="1.2271">
        <ele>187.543045</ele>
        <time>2013-03-24T09:48:20Z</time>
      </trkpt>
      <trkpt lat="43.65949" lon="1.22704">
        <ele>187.55278</ele>
        <time>2013-03-24T09:48:21Z</time>
      </trkpt>
      <trkpt lat="43.65951" lon="1.22698">
        <ele>187.570633</ele>
        <time>2013-03-24T09:48:22Z</time>
      </trkpt>
      <trkpt lat="43.65953" lon="1.22692">
        <ele>187.602844</ele>
        <time>2013-03-24T09:48:23Z</time>
      </trkpt>
      <trkpt lat="43.65955" lon="1.22687">
        <ele>187.668793</ele>
        <time>2013-03-24T09:48:24Z</time>
      </trkpt>
      <trkpt lat="43.65958" lon="1.22682">
        <ele>187.754593</ele>
        <time>2013-03-24T09:48:25Z</time>
      </trkpt>
      <trkpt lat="43.65967" lon="1.22668">
        <ele>188.067505</ele>
        <time>2013-03-24T09:48:28Z</time>
      </trkpt>
      <trkpt lat="43.65974" lon="1.22661">
        <ele>188.161453</ele>
        <time>2013-03-24T09:48:30Z</time>
      </trkpt>
      <trkpt lat="43.6599" lon="1.22652">
        <ele>188.340027</ele>
        <time>2013-03-24T09:48:34Z</time>
      </trkpt>
      <trkpt lat="43.65993" lon="1.22648">
        <ele>188.346207</ele>
        <time>2013-03-24T09:48:35Z</time>
      </trkpt>
      <trkpt lat="43.66" lon="1.22639">
        <ele>188.364349</ele>
        <time>2013-03-24T09:48:37Z</time>
      </trkpt>
      <trkpt lat="43.66003" lon="1.22634">
        <ele>188.37027</ele>
        <time>2013-03-24T09:48:38Z</time>
      </trkpt>
      <trkpt lat="43.66006" lon="1.22628">
        <ele>188.377029</ele>
        <time>2013-03-24T09:48:39Z</time>
      </trkpt>
      <trkpt lat="43.66021" lon="1.22599">
        <ele>188.543884</ele>
        <time>2013-03-24T09:48:44Z</time>
      </trkpt>
      <trkpt lat="43.66024" lon="1.22593">
        <ele>188.519409</ele>
        <time>2013-03-24T09:48:45Z</time>
      </trkpt>
      <trkpt lat="43.66027" lon="1.22588">
        <ele>188.531891</ele>
        <time>2013-03-24T09:48:46Z</time>
      </trkpt>
      <trkpt lat="43.6603" lon="1.22582">
        <ele>188.577606</ele>
        <time>2013-03-24T09:48:47Z</time>
      </trkpt>
      <trkpt lat="43.66033" lon="1.22577">
        <ele>188.670334</ele>
        <time>2013-03-24T09:48:48Z</time>
      </trkpt>
      <trkpt lat="43.66036" lon="1.22572">
        <ele>188.778519</ele>
        <time>2013-03-24T09:48:49Z</time>
      </trkpt>
      <trkpt lat="43.66039" lon="1.22567">
        <ele>188.926376</ele>
        <time>2013-03-24T09:48:50Z</time>
      </trkpt>
      <trkpt lat="43.66042" lon="1.22561">
        <ele>189.088593</ele>
        <time>2013-03-24T09:48:51Z</time>
      </trkpt>
      <trkpt lat="43.66069" lon="1.22522">
        <ele>189.533829</ele>
        <time>2013-03-24T09:48:59Z</time>
      </trkpt>
      <trkpt lat="43.66072" lon="1.22517">
        <ele>189.449127</ele>
        <time>2013-03-24T09:49:00Z</time>
      </trkpt>
      <trkpt lat="43.66082" lon="1.22499">
        <ele>189.404633</ele>
        <time>2013-03-24T09:49:03Z</time>
      </trkpt>
      <trkpt lat="43.66087" lon="1.22496">
        <ele>189.549973</ele>
        <time>2013-03-24T09:49:04Z</time>
      </trkpt>
      <trkpt lat="43.66092" lon="1.22495">
        <ele>189.766266</ele>
        <time>2013-03-24T09:49:05Z</time>
      </trkpt>
      <trkpt lat="43.66097" lon="1.22494">
        <ele>189.994888</ele>
        <time>2013-03-24T09:49:06Z</time>
      </trkpt>
      <trkpt lat="43.66102" lon="1.22495">
        <ele>190</ele>
        <time>2013-03-24T09:49:07Z</time>
      </trkpt>
      <trkpt lat="43.66106" lon="1.22497">
        <ele>190</ele>
        <time>2013-03-24T09:49:08Z</time>
      </trkpt>
      <trkpt lat="43.66111" lon="1.225">
        <ele>190</ele>
        <time>2013-03-24T09:49:09Z</time>
      </trkpt>
      <trkpt lat="43.66115" lon="1.22502">
        <ele>190</ele>
        <time>2013-03-24T09:49:10Z</time>
      </trkpt>
      <trkpt lat="43.6612" lon="1.22504">
        <ele>190</ele>
        <time>2013-03-24T09:49:11Z</time>
      </trkpt>
      <trkpt lat="43.66124" lon="1.22508">
        <ele>190</ele>
        <time>2013-03-24T09:49:12Z</time>
      </trkpt>
      <trkpt lat="43.66127" lon="1.22512">
        <ele>190</ele>
        <time>2013-03-24T09:49:13Z</time>
      </trkpt>
      <trkpt lat="43.6613" lon="1.22518">
        <ele>190</ele>
        <time>2013-03-24T09:49:14Z</time>
      </trkpt>
      <trkpt lat="43.66133" lon="1.22523">
        <ele>190</ele>
        <time>2013-03-24T09:49:15Z</time>
      </trkpt>
      <trkpt lat="43.66136" lon="1.22528">
        <ele>190</ele>
        <time>2013-03-24T09:49:16Z</time>
      </trkpt>
      <trkpt lat="43.66141" lon="1.22531">
        <ele>190</ele>
        <time>2013-03-24T09:49:17Z</time>
      </trkpt>
      <trkpt lat="43.66145" lon="1.22532">
        <ele>189.996429</ele>
        <time>2013-03-24T09:49:18Z</time>
      </trkpt>
      <trkpt lat="43.6615" lon="1.22533">
        <ele>189.9944</ele>
        <time>2013-03-24T09:49:19Z</time>
      </trkpt>
      <trkpt lat="43.66155" lon="1.22534">
        <ele>189.993118</ele>
        <time>2013-03-24T09:49:20Z</time>
      </trkpt>
      <trkpt lat="43.6616" lon="1.22532">
        <ele>189.982437</ele>
        <time>2013-03-24T09:49:21Z</time>
      </trkpt>
      <trkpt lat="43.66163" lon="1.2253">
        <ele>189.960342</ele>
        <time>2013-03-24T09:49:22Z</time>
      </trkpt>
      <trkpt lat="43.66167" lon="1.22527">
        <ele>189.930161</ele>
        <time>2013-03-24T09:49:23Z</time>
      </trkpt>
      <trkpt lat="43.66176" lon="1.22522">
        <ele>189.842682</ele>
        <time>2013-03-24T09:49:28Z</time>
      </trkpt>
      <trkpt lat="43.66178" lon="1.22522">
        <ele>189.837585</ele>
        <time>2013-03-24T09:49:29Z</time>
      </trkpt>
      <trkpt lat="43.6618" lon="1.22523">
        <ele>189.838303</ele>
        <time>2013-03-24T09:49:30Z</time>
      </trkpt>
      <trkpt lat="43.66182" lon="1.22524">
        <ele>189.848572</ele>
        <time>2013-03-24T09:49:31Z</time>
      </trkpt>
      <trkpt lat="43.66185" lon="1.22526">
        <ele>189.860977</ele>
        <time>2013-03-24T09:49:32Z</time>
      </trkpt>
      <trkpt lat="43.66188" lon="1.22527">
        <ele>189.880356</ele>
        <time>2013-03-24T09:49:33Z</time>
      </trkpt>
      <trkpt lat="43.6619" lon="1.22529">
        <ele>189.90593</ele>
        <time>2013-03-24T09:49:34Z</time>
      </trkpt>
      <trkpt lat="43.66192" lon="1.22531">
        <ele>189.932312</ele>
        <time>2013-03-24T09:49:35Z</time>
      </trkpt>
      <trkpt lat="43.66195" lon="1.22533">
        <ele>189.965851</ele>
        <time>2013-03-24T09:49:36Z</time>
      </trkpt>
      <trkpt lat="43.66197" lon="1.22535">
        <ele>190</ele>
        <time>2013-03-24T09:49:37Z</time>
      </trkpt>
      <trkpt lat="43.66199" lon="1.22537">
        <ele>190</ele>
        <time>2013-03-24T09:49:38Z</time>
      </trkpt>
      <trkpt lat="43.66201" lon="1.22539">
        <ele>190</ele>
        <time>2013-03-24T09:49:39Z</time>
      </trkpt>
      <trkpt lat="43.66204" lon="1.2254">
        <ele>190</ele>
        <time>2013-03-24T09:49:40Z</time>
      </trkpt>
      <trkpt lat="43.66207" lon="1.2254">
        <ele>190</ele>
        <time>2013-03-24T09:49:41Z</time>
      </trkpt>
      <trkpt lat="43.6621" lon="1.22542">
        <ele>190</ele>
        <time>2013-03-24T09:49:42Z</time>
      </trkpt>
      <trkpt lat="43.66212" lon="1.22546">
        <ele>190</ele>
        <time>2013-03-24T09:49:43Z</time>
      </trkpt>
      <trkpt lat="43.66215" lon="1.22549">
        <ele>190</ele>
        <time>2013-03-24T09:49:44Z</time>
      </trkpt>
      <trkpt lat="43.66218" lon="1.22551">
        <ele>190</ele>
        <time>2013-03-24T09:49:45Z</time>
      </trkpt>
      <trkpt lat="43.66222" lon="1.22552">
        <ele>190</ele>
        <time>2013-03-24T09:49:46Z</time>
      </trkpt>
      <trkpt lat="43.66251" lon="1.22587">
        <ele>189.600006</ele>
        <time>2013-03-24T09:49:56Z</time>
      </trkpt>
      <trkpt lat="43.66259" lon="1.22602">
        <ele>189.324997</ele>
        <time>2013-03-24T09:49:59Z</time>
      </trkpt>
      <trkpt lat="43.66263" lon="1.22612">
        <ele>189.061249</ele>
        <time>2013-03-24T09:50:01Z</time>
      </trkpt>
      <trkpt lat="43.66266" lon="1.22616">
        <ele>188.920624</ele>
        <time>2013-03-24T09:50:02Z</time>
      </trkpt>
      <trkpt lat="43.66276" lon="1.22628">
        <ele>188.503128</ele>
        <time>2013-03-24T09:50:05Z</time>
      </trkpt>
      <trkpt lat="43.66279" lon="1.22633">
        <ele>188.362503</ele>
        <time>2013-03-24T09:50:06Z</time>
      </trkpt>
      <trkpt lat="43.66281" lon="1.22639">
        <ele>188.233749</ele>
        <time>2013-03-24T09:50:07Z</time>
      </trkpt>
      <trkpt lat="43.66282" lon="1.22645">
        <ele>188.111877</ele>
        <time>2013-03-24T09:50:08Z</time>
      </trkpt>
      <trkpt lat="43.66284" lon="1.22649">
        <ele>187.983749</ele>
        <time>2013-03-24T09:50:09Z</time>
      </trkpt>
      <trkpt lat="43.66287" lon="1.22653">
        <ele>187.858124</ele>
        <time>2013-03-24T09:50:10Z</time>
      </trkpt>
      <trkpt lat="43.66291" lon="1.22656">
        <ele>187.738754</ele>
        <time>2013-03-24T09:50:11Z</time>
      </trkpt>
      <trkpt lat="43.66295" lon="1.22658">
        <ele>187.620407</ele>
        <time>2013-03-24T09:50:12Z</time>
      </trkpt>
      <trkpt lat="43.66329" lon="1.22667">
        <ele>187.093719</ele>
        <time>2013-03-24T09:50:21Z</time>
      </trkpt>
      <trkpt lat="43.66351" lon="1.2266">
        <ele>187.574661</ele>
        <time>2013-03-24T09:50:27Z</time>
      </trkpt>
      <trkpt lat="43.66356" lon="1.22659">
        <ele>187.668976</ele>
        <time>2013-03-24T09:50:28Z</time>
      </trkpt>
      <trkpt lat="43.66364" lon="1.22658">
        <ele>187.855789</ele>
        <time>2013-03-24T09:50:30Z</time>
      </trkpt>
      <trkpt lat="43.66389" lon="1.22654">
        <ele>188.005722</ele>
        <time>2013-03-24T09:50:36Z</time>
      </trkpt>
      <trkpt lat="43.66417" lon="1.22663">
        <ele>187.93187</ele>
        <time>2013-03-24T09:50:44Z</time>
      </trkpt>
      <trkpt lat="43.66418" lon="1.22668">
        <ele>187.875</ele>
        <time>2013-03-24T09:50:45Z</time>
      </trkpt>
      <trkpt lat="43.66419" lon="1.22672">
        <ele>187.816879</ele>
        <time>2013-03-24T09:50:46Z</time>
      </trkpt>
      <trkpt lat="43.66419" lon="1.22677">
        <ele>187.753128</ele>
        <time>2013-03-24T09:50:47Z</time>
      </trkpt>
      <trkpt lat="43.66419" lon="1.22681">
        <ele>187.689377</ele>
        <time>2013-03-24T09:50:48Z</time>
      </trkpt>
      <trkpt lat="43.66428" lon="1.22716">
        <ele>187.29187</ele>
        <time>2013-03-24T09:50:59Z</time>
      </trkpt>
      <trkpt lat="43.66433" lon="1.22724">
        <ele>187.298126</ele>
        <time>2013-03-24T09:51:02Z</time>
      </trkpt>
      <trkpt lat="43.66433" lon="1.22742">
        <ele>187.000626</ele>
        <time>2013-03-24T09:51:06Z</time>
      </trkpt>
      <trkpt lat="43.66432" lon="1.22747">
        <ele>186.890625</ele>
        <time>2013-03-24T09:51:07Z</time>
      </trkpt>
      <trkpt lat="43.66432" lon="1.22753">
        <ele>186.776245</ele>
        <time>2013-03-24T09:51:08Z</time>
      </trkpt>
      <trkpt lat="43.6643" lon="1.22765">
        <ele>186.55188</ele>
        <time>2013-03-24T09:51:10Z</time>
      </trkpt>
      <trkpt lat="43.66431" lon="1.22771">
        <ele>186.463745</ele>
        <time>2013-03-24T09:51:11Z</time>
      </trkpt>
      <trkpt lat="43.66432" lon="1.22777">
        <ele>186.40062</ele>
        <time>2013-03-24T09:51:12Z</time>
      </trkpt>
      <trkpt lat="43.66434" lon="1.22783">
        <ele>186.389954</ele>
        <time>2013-03-24T09:51:13Z</time>
      </trkpt>
      <trkpt lat="43.66434" lon="1.22789">
        <ele>186.355576</ele>
        <time>2013-03-24T09:51:14Z</time>
      </trkpt>
      <trkpt lat="43.66434" lon="1.22795">
        <ele>186.301346</ele>
        <time>2013-03-24T09:51:15Z</time>
      </trkpt>
      <trkpt lat="43.66432" lon="1.22801">
        <ele>186.235229</ele>
        <time>2013-03-24T09:51:16Z</time>
      </trkpt>
      <trkpt lat="43.66429" lon="1.22807">
        <ele>186.168274</ele>
        <time>2013-03-24T09:51:17Z</time>
      </trkpt>
      <trkpt lat="43.66426" lon="1.22812">
        <ele>186.10994</ele>
        <time>2013-03-24T09:51:18Z</time>
      </trkpt>
      <trkpt lat="43.66423" lon="1.22817">
        <ele>186.063324</ele>
        <time>2013-03-24T09:51:19Z</time>
      </trkpt>
      <trkpt lat="43.6642" lon="1.22822">
        <ele>186.028748</ele>
        <time>2013-03-24T09:51:20Z</time>
      </trkpt>
      <trkpt lat="43.66417" lon="1.22828">
        <ele>186.007004</ele>
        <time>2013-03-24T09:51:21Z</time>
      </trkpt>
      <trkpt lat="43.66414" lon="1.22835">
        <ele>186</ele>
        <time>2013-03-24T09:51:22Z</time>
      </trkpt>
      <trkpt lat="43.66413" lon="1.22842">
        <ele>186</ele>
        <time>2013-03-24T09:51:23Z</time>
      </trkpt>
      <trkpt lat="43.66411" lon="1.22849">
        <ele>186</ele>
        <time>2013-03-24T09:51:24Z</time>
      </trkpt>
      <trkpt lat="43.66402" lon="1.22884">
        <ele>186</ele>
        <time>2013-03-24T09:51:31Z</time>
      </trkpt>
      <trkpt lat="43.66399" lon="1.2289">
        <ele>186</ele>
        <time>2013-03-24T09:51:32Z</time>
      </trkpt>
      <trkpt lat="43.66397" lon="1.22896">
        <ele>186</ele>
        <time>2013-03-24T09:51:33Z</time>
      </trkpt>
      <trkpt lat="43.66395" lon="1.22904">
        <ele>186.024368</ele>
        <time>2013-03-24T09:51:34Z</time>
      </trkpt>
      <trkpt lat="43.66394" lon="1.22911">
        <ele>186.143753</ele>
        <time>2013-03-24T09:51:35Z</time>
      </trkpt>
      <trkpt lat="43.66392" lon="1.22924">
        <ele>186.359375</ele>
        <time>2013-03-24T09:51:37Z</time>
      </trkpt>
      <trkpt lat="43.66386" lon="1.22947">
        <ele>186.720627</ele>
        <time>2013-03-24T09:51:41Z</time>
      </trkpt>
      <trkpt lat="43.6638" lon="1.22956">
        <ele>186.873749</ele>
        <time>2013-03-24T09:51:43Z</time>
      </trkpt>
      <trkpt lat="43.66363" lon="1.22975">
        <ele>187</ele>
        <time>2013-03-24T09:51:48Z</time>
      </trkpt>
      <trkpt lat="43.66359" lon="1.22977">
        <ele>187</ele>
        <time>2013-03-24T09:51:49Z</time>
      </trkpt>
      <trkpt lat="43.66355" lon="1.22978">
        <ele>187</ele>
        <time>2013-03-24T09:51:50Z</time>
      </trkpt>
      <trkpt lat="43.66351" lon="1.22979">
        <ele>187</ele>
        <time>2013-03-24T09:51:51Z</time>
      </trkpt>
      <trkpt lat="43.66347" lon="1.2298">
        <ele>187</ele>
        <time>2013-03-24T09:51:52Z</time>
      </trkpt>
      <trkpt lat="43.66343" lon="1.2298">
        <ele>187</ele>
        <time>2013-03-24T09:51:53Z</time>
      </trkpt>
      <trkpt lat="43.66339" lon="1.22979">
        <ele>187</ele>
        <time>2013-03-24T09:51:54Z</time>
      </trkpt>
      <trkpt lat="43.66334" lon="1.22979">
        <ele>187</ele>
        <time>2013-03-24T09:51:55Z</time>
      </trkpt>
      <trkpt lat="43.66329" lon="1.22979">
        <ele>187</ele>
        <time>2013-03-24T09:51:56Z</time>
      </trkpt>
      <trkpt lat="43.66325" lon="1.22981">
        <ele>187</ele>
        <time>2013-03-24T09:51:57Z</time>
      </trkpt>
      <trkpt lat="43.6632" lon="1.22982">
        <ele>187</ele>
        <time>2013-03-24T09:51:58Z</time>
      </trkpt>
      <trkpt lat="43.66315" lon="1.22981">
        <ele>187</ele>
        <time>2013-03-24T09:51:59Z</time>
      </trkpt>
      <trkpt lat="43.6631" lon="1.22981">
        <ele>187</ele>
        <time>2013-03-24T09:52:00Z</time>
      </trkpt>
      <trkpt lat="43.66306" lon="1.22979">
        <ele>187</ele>
        <time>2013-03-24T09:52:01Z</time>
      </trkpt>
      <trkpt lat="43.66301" lon="1.22976">
        <ele>187</ele>
        <time>2013-03-24T09:52:02Z</time>
      </trkpt>
      <trkpt lat="43.66297" lon="1.22973">
        <ele>187</ele>
        <time>2013-03-24T09:52:03Z</time>
      </trkpt>
      <trkpt lat="43.66293" lon="1.22971">
        <ele>187</ele>
        <time>2013-03-24T09:52:04Z</time>
      </trkpt>
      <trkpt lat="43.66285" lon="1.22967">
        <ele>187</ele>
        <time>2013-03-24T09:52:06Z</time>
      </trkpt>
      <trkpt lat="43.6628" lon="1.22966">
        <ele>187</ele>
        <time>2013-03-24T09:52:07Z</time>
      </trkpt>
      <trkpt lat="43.66275" lon="1.22964">
        <ele>186.970001</ele>
        <time>2013-03-24T09:52:08Z</time>
      </trkpt>
      <trkpt lat="43.66271" lon="1.22962">
        <ele>186.934998</ele>
        <time>2013-03-24T09:52:09Z</time>
      </trkpt>
      <trkpt lat="43.66267" lon="1.22961">
        <ele>186.908127</ele>
        <time>2013-03-24T09:52:10Z</time>
      </trkpt>
      <trkpt lat="43.66264" lon="1.2296">
        <ele>186.887497</ele>
        <time>2013-03-24T09:52:11Z</time>
      </trkpt>
      <trkpt lat="43.66262" lon="1.22959">
        <ele>186.88063</ele>
        <time>2013-03-24T09:52:12Z</time>
      </trkpt>
      <trkpt lat="43.66259" lon="1.22958">
        <ele>186.861877</ele>
        <time>2013-03-24T09:52:13Z</time>
      </trkpt>
      <trkpt lat="43.66256" lon="1.22957">
        <ele>186.839996</ele>
        <time>2013-03-24T09:52:14Z</time>
      </trkpt>
      <trkpt lat="43.66253" lon="1.22955">
        <ele>186.808121</ele>
        <time>2013-03-24T09:52:15Z</time>
      </trkpt>
      <trkpt lat="43.6625" lon="1.22952">
        <ele>186.754379</ele>
        <time>2013-03-24T09:52:16Z</time>
      </trkpt>
      <trkpt lat="43.66224" lon="1.22946">
        <ele>186.754181</ele>
        <time>2013-03-24T09:52:23Z</time>
      </trkpt>
      <trkpt lat="43.66214" lon="1.22947">
        <ele>186.838196</ele>
        <time>2013-03-24T09:52:25Z</time>
      </trkpt>
      <trkpt lat="43.66209" lon="1.22949">
        <ele>186.87851</ele>
        <time>2013-03-24T09:52:26Z</time>
      </trkpt>
      <trkpt lat="43.66205" lon="1.22951">
        <ele>186.917694</ele>
        <time>2013-03-24T09:52:27Z</time>
      </trkpt>
      <trkpt lat="43.66201" lon="1.22954">
        <ele>186.95108</ele>
        <time>2013-03-24T09:52:28Z</time>
      </trkpt>
      <trkpt lat="43.66198" lon="1.22957">
        <ele>186.976791</ele>
        <time>2013-03-24T09:52:29Z</time>
      </trkpt>
      <trkpt lat="43.66188" lon="1.22969">
        <ele>187</ele>
        <time>2013-03-24T09:52:32Z</time>
      </trkpt>
      <trkpt lat="43.66184" lon="1.22973">
        <ele>187</ele>
        <time>2013-03-24T09:52:33Z</time>
      </trkpt>
      <trkpt lat="43.66181" lon="1.22977">
        <ele>187</ele>
        <time>2013-03-24T09:52:34Z</time>
      </trkpt>
      <trkpt lat="43.66178" lon="1.22981">
        <ele>187</ele>
        <time>2013-03-24T09:52:35Z</time>
      </trkpt>
      <trkpt lat="43.66176" lon="1.22985">
        <ele>187</ele>
        <time>2013-03-24T09:52:36Z</time>
      </trkpt>
      <trkpt lat="43.66174" lon="1.22988">
        <ele>187</ele>
        <time>2013-03-24T09:52:37Z</time>
      </trkpt>
      <trkpt lat="43.66171" lon="1.22989">
        <ele>187</ele>
        <time>2013-03-24T09:52:38Z</time>
      </trkpt>
      <trkpt lat="43.66168" lon="1.22989">
        <ele>187</ele>
        <time>2013-03-24T09:52:39Z</time>
      </trkpt>
      <trkpt lat="43.66135" lon="1.22994">
        <ele>187.112579</ele>
        <time>2013-03-24T09:52:48Z</time>
      </trkpt>
      <trkpt lat="43.66132" lon="1.22992">
        <ele>187.127579</ele>
        <time>2013-03-24T09:52:49Z</time>
      </trkpt>
      <trkpt lat="43.6613" lon="1.22989">
        <ele>187.123505</ele>
        <time>2013-03-24T09:52:50Z</time>
      </trkpt>
      <trkpt lat="43.66129" lon="1.22986">
        <ele>187.106644</ele>
        <time>2013-03-24T09:52:51Z</time>
      </trkpt>
      <trkpt lat="43.66129" lon="1.22982">
        <ele>187.084534</ele>
        <time>2013-03-24T09:52:52Z</time>
      </trkpt>
      <trkpt lat="43.66128" lon="1.22974">
        <ele>187.036819</ele>
        <time>2013-03-24T09:52:54Z</time>
      </trkpt>
      <trkpt lat="43.66127" lon="1.2297">
        <ele>187.003372</ele>
        <time>2013-03-24T09:52:55Z</time>
      </trkpt>
      <trkpt lat="43.66125" lon="1.22966">
        <ele>187</ele>
        <time>2013-03-24T09:52:56Z</time>
      </trkpt>
      <trkpt lat="43.66101" lon="1.22928">
        <ele>187.014999</ele>
        <time>2013-03-24T09:53:05Z</time>
      </trkpt>
      <trkpt lat="43.66098" lon="1.22923">
        <ele>187.085007</ele>
        <time>2013-03-24T09:53:06Z</time>
      </trkpt>
      <trkpt lat="43.66084" lon="1.22904">
        <ele>187.418777</ele>
        <time>2013-03-24T09:53:10Z</time>
      </trkpt>
      <trkpt lat="43.66081" lon="1.229">
        <ele>187.522873</ele>
        <time>2013-03-24T09:53:11Z</time>
      </trkpt>
      <trkpt lat="43.66078" lon="1.22896">
        <ele>187.61525</ele>
        <time>2013-03-24T09:53:12Z</time>
      </trkpt>
      <trkpt lat="43.6605" lon="1.22876">
        <ele>188</ele>
        <time>2013-03-24T09:53:19Z</time>
      </trkpt>
      <trkpt lat="43.66047" lon="1.22871">
        <ele>188</ele>
        <time>2013-03-24T09:53:20Z</time>
      </trkpt>
      <trkpt lat="43.66044" lon="1.22866">
        <ele>188</ele>
        <time>2013-03-24T09:53:21Z</time>
      </trkpt>
      <trkpt lat="43.66043" lon="1.2286">
        <ele>188</ele>
        <time>2013-03-24T09:53:22Z</time>
      </trkpt>
      <trkpt lat="43.66041" lon="1.22855">
        <ele>188</ele>
        <time>2013-03-24T09:53:23Z</time>
      </trkpt>
      <trkpt lat="43.66039" lon="1.22851">
        <ele>188</ele>
        <time>2013-03-24T09:53:24Z</time>
      </trkpt>
      <trkpt lat="43.66035" lon="1.22849">
        <ele>188</ele>
        <time>2013-03-24T09:53:25Z</time>
      </trkpt>
      <trkpt lat="43.66031" lon="1.22848">
        <ele>188</ele>
        <time>2013-03-24T09:53:26Z</time>
      </trkpt>
      <trkpt lat="43.6599" lon="1.22837">
        <ele>188.093155</ele>
        <time>2013-03-24T09:53:36Z</time>
      </trkpt>
      <trkpt lat="43.65961" lon="1.2284">
        <ele>188</ele>
        <time>2013-03-24T09:53:43Z</time>
      </trkpt>
      <trkpt lat="43.65952" lon="1.22841">
        <ele>188</ele>
        <time>2013-03-24T09:53:45Z</time>
      </trkpt>
      <trkpt lat="43.65948" lon="1.22844">
        <ele>188</ele>
        <time>2013-03-24T09:53:46Z</time>
      </trkpt>
      <trkpt lat="43.65943" lon="1.22845">
        <ele>188</ele>
        <time>2013-03-24T09:53:47Z</time>
      </trkpt>
      <trkpt lat="43.65938" lon="1.22845">
        <ele>188</ele>
        <time>2013-03-24T09:53:48Z</time>
      </trkpt>
      <trkpt lat="43.65933" lon="1.22844">
        <ele>188</ele>
        <time>2013-03-24T09:53:49Z</time>
      </trkpt>
      <trkpt lat="43.65928" lon="1.22845">
        <ele>188</ele>
        <time>2013-03-24T09:53:50Z</time>
      </trkpt>
      <trkpt lat="43.65923" lon="1.22847">
        <ele>188</ele>
        <time>2013-03-24T09:53:51Z</time>
      </trkpt>
      <trkpt lat="43.65918" lon="1.2285">
        <ele>187.942932</ele>
        <time>2013-03-24T09:53:52Z</time>
      </trkpt>
      <trkpt lat="43.65914" lon="1.22851">
        <ele>187.846725</ele>
        <time>2013-03-24T09:53:53Z</time>
      </trkpt>
      <trkpt lat="43.65909" lon="1.22851">
        <ele>187.741623</ele>
        <time>2013-03-24T09:53:54Z</time>
      </trkpt>
      <trkpt lat="43.65888" lon="1.22851">
        <ele>187.284775</ele>
        <time>2013-03-24T09:53:58Z</time>
      </trkpt>
      <trkpt lat="43.65883" lon="1.22852">
        <ele>187.173904</ele>
        <time>2013-03-24T09:53:59Z</time>
      </trkpt>
      <trkpt lat="43.65877" lon="1.22853">
        <ele>187.067245</ele>
        <time>2013-03-24T09:54:00Z</time>
      </trkpt>
      <trkpt lat="43.65872" lon="1.22855">
        <ele>186.975632</ele>
        <time>2013-03-24T09:54:01Z</time>
      </trkpt>
      <trkpt lat="43.65867" lon="1.22855">
        <ele>186.856873</ele>
        <time>2013-03-24T09:54:02Z</time>
      </trkpt>
      <trkpt lat="43.65861" lon="1.22854">
        <ele>186.719376</ele>
        <time>2013-03-24T09:54:03Z</time>
      </trkpt>
      <trkpt lat="43.65856" lon="1.22855">
        <ele>186.611252</ele>
        <time>2013-03-24T09:54:04Z</time>
      </trkpt>
      <trkpt lat="43.65851" lon="1.22854">
        <ele>186.485626</ele>
        <time>2013-03-24T09:54:05Z</time>
      </trkpt>
      <trkpt lat="43.65845" lon="1.22853">
        <ele>186.341873</ele>
        <time>2013-03-24T09:54:06Z</time>
      </trkpt>
      <trkpt lat="43.65839" lon="1.22851">
        <ele>186.189377</ele>
        <time>2013-03-24T09:54:07Z</time>
      </trkpt>
      <trkpt lat="43.65834" lon="1.2285">
        <ele>186.051987</ele>
        <time>2013-03-24T09:54:08Z</time>
      </trkpt>
      <trkpt lat="43.65829" lon="1.22848">
        <ele>185.903091</ele>
        <time>2013-03-24T09:54:09Z</time>
      </trkpt>
      <trkpt lat="43.65823" lon="1.22846">
        <ele>185.758926</ele>
        <time>2013-03-24T09:54:10Z</time>
      </trkpt>
      <trkpt lat="43.65818" lon="1.22843">
        <ele>185.614456</ele>
        <time>2013-03-24T09:54:11Z</time>
      </trkpt>
      <trkpt lat="43.65813" lon="1.22841">
        <ele>185.49794</ele>
        <time>2013-03-24T09:54:12Z</time>
      </trkpt>
      <trkpt lat="43.65809" lon="1.2284">
        <ele>185.413788</ele>
        <time>2013-03-24T09:54:13Z</time>
      </trkpt>
      <trkpt lat="43.65806" lon="1.2284">
        <ele>185.358597</ele>
        <time>2013-03-24T09:54:14Z</time>
      </trkpt>
      <trkpt lat="43.65803" lon="1.22841">
        <ele>185.317871</ele>
        <time>2013-03-24T09:54:15Z</time>
      </trkpt>
      <trkpt lat="43.65802" lon="1.22843">
        <ele>185.304993</ele>
        <time>2013-03-24T09:54:16Z</time>
      </trkpt>
      <trkpt lat="43.65802" lon="1.22844">
        <ele>185.314148</ele>
        <time>2013-03-24T09:54:17Z</time>
      </trkpt>
      <trkpt lat="43.65802" lon="1.22846">
        <ele>185.328522</ele>
        <time>2013-03-24T09:54:18Z</time>
      </trkpt>
      <trkpt lat="43.65802" lon="1.22848">
        <ele>185.331192</ele>
        <time>2013-03-24T09:54:19Z</time>
      </trkpt>
      <trkpt lat="43.65802" lon="1.2285">
        <ele>185.356781</ele>
        <time>2013-03-24T09:54:20Z</time>
      </trkpt>
      <trkpt lat="43.65804" lon="1.22851">
        <ele>185.38829</ele>
        <time>2013-03-24T09:54:21Z</time>
      </trkpt>
      <trkpt lat="43.65805" lon="1.22852">
        <ele>185.410629</ele>
        <time>2013-03-24T09:54:22Z</time>
      </trkpt>
      <trkpt lat="43.65806" lon="1.22851">
        <ele>185.436981</ele>
        <time>2013-03-24T09:54:23Z</time>
      </trkpt>
      <trkpt lat="43.65807" lon="1.2285">
        <ele>185.45047</ele>
        <time>2013-03-24T09:54:24Z</time>
      </trkpt>
      <trkpt lat="43.65807" lon="1.22847">
        <ele>185.441193</ele>
        <time>2013-03-24T09:54:25Z</time>
      </trkpt>
      <trkpt lat="43.65807" lon="1.22845">
        <ele>185.4086</ele>
        <time>2013-03-24T09:54:26Z</time>
      </trkpt>
      <trkpt lat="43.65805" lon="1.22844">
        <ele>185.35939</ele>
        <time>2013-03-24T09:54:27Z</time>
      </trkpt>
      <trkpt lat="43.65802" lon="1.22844">
        <ele>185.320053</ele>
        <time>2013-03-24T09:54:28Z</time>
      </trkpt>
      <trkpt lat="43.65801" lon="1.22846">
        <ele>185.301132</ele>
        <time>2013-03-24T09:54:29Z</time>
      </trkpt>
      <trkpt lat="43.658" lon="1.22849">
        <ele>185.287994</ele>
        <time>2013-03-24T09:54:30Z</time>
      </trkpt>
      <trkpt lat="43.65779" lon="1.2287">
        <ele>185.296249</ele>
        <time>2013-03-24T09:54:38Z</time>
      </trkpt>
      <trkpt lat="43.65768" lon="1.22881">
        <ele>185.458755</ele>
        <time>2013-03-24T09:54:42Z</time>
      </trkpt>
      <trkpt lat="43.65764" lon="1.22881">
        <ele>185.459381</ele>
        <time>2013-03-24T09:54:43Z</time>
      </trkpt>
      <trkpt lat="43.65754" lon="1.2288">
        <ele>185.448746</ele>
        <time>2013-03-24T09:54:45Z</time>
      </trkpt>
      <trkpt lat="43.65736" lon="1.22879">
        <ele>185.48996</ele>
        <time>2013-03-24T09:54:49Z</time>
      </trkpt>
      <trkpt lat="43.65731" lon="1.22879">
        <ele>185.548615</ele>
        <time>2013-03-24T09:54:50Z</time>
      </trkpt>
      <trkpt lat="43.65726" lon="1.22881">
        <ele>185.633835</ele>
        <time>2013-03-24T09:54:51Z</time>
      </trkpt>
      <trkpt lat="43.65714" lon="1.22894">
        <ele>185.866211</ele>
        <time>2013-03-24T09:54:54Z</time>
      </trkpt>
      <trkpt lat="43.6571" lon="1.22899">
        <ele>185.919006</ele>
        <time>2013-03-24T09:54:55Z</time>
      </trkpt>
      <trkpt lat="43.65706" lon="1.22903">
        <ele>185.958359</ele>
        <time>2013-03-24T09:54:56Z</time>
      </trkpt>
      <trkpt lat="43.65701" lon="1.22906">
        <ele>185.984177</ele>
        <time>2013-03-24T09:54:57Z</time>
      </trkpt>
      <trkpt lat="43.65697" lon="1.22909">
        <ele>186.002777</ele>
        <time>2013-03-24T09:54:58Z</time>
      </trkpt>
      <trkpt lat="43.65693" lon="1.22913">
        <ele>186.099686</ele>
        <time>2013-03-24T09:54:59Z</time>
      </trkpt>
      <trkpt lat="43.65689" lon="1.22918">
        <ele>186.209381</ele>
        <time>2013-03-24T09:55:00Z</time>
      </trkpt>
      <trkpt lat="43.65687" lon="1.22924">
        <ele>186.358749</ele>
        <time>2013-03-24T09:55:01Z</time>
      </trkpt>
      <trkpt lat="43.65686" lon="1.22931">
        <ele>186.48938</ele>
        <time>2013-03-24T09:55:02Z</time>
      </trkpt>
      <trkpt lat="43.65686" lon="1.22938">
        <ele>186.609375</ele>
        <time>2013-03-24T09:55:03Z</time>
      </trkpt>
      <trkpt lat="43.65685" lon="1.22945">
        <ele>186.734375</ele>
        <time>2013-03-24T09:55:04Z</time>
      </trkpt>
      <trkpt lat="43.65685" lon="1.22952">
        <ele>186.845627</ele>
        <time>2013-03-24T09:55:05Z</time>
      </trkpt>
      <trkpt lat="43.65686" lon="1.22959">
        <ele>186.944992</ele>
        <time>2013-03-24T09:55:06Z</time>
      </trkpt>
      <trkpt lat="43.65687" lon="1.22966">
        <ele>187.039383</ele>
        <time>2013-03-24T09:55:07Z</time>
      </trkpt>
      <trkpt lat="43.65688" lon="1.22974">
        <ele>187.148758</ele>
        <time>2013-03-24T09:55:08Z</time>
      </trkpt>
      <trkpt lat="43.65688" lon="1.22982">
        <ele>187.26651</ele>
        <time>2013-03-24T09:55:09Z</time>
      </trkpt>
      <trkpt lat="43.65687" lon="1.22989">
        <ele>187.379486</ele>
        <time>2013-03-24T09:55:10Z</time>
      </trkpt>
      <trkpt lat="43.65685" lon="1.22995">
        <ele>187.488327</ele>
        <time>2013-03-24T09:55:11Z</time>
      </trkpt>
      <trkpt lat="43.65683" lon="1.23002">
        <ele>187.58223</ele>
        <time>2013-03-24T09:55:12Z</time>
      </trkpt>
      <trkpt lat="43.65682" lon="1.23008">
        <ele>187.667755</ele>
        <time>2013-03-24T09:55:13Z</time>
      </trkpt>
      <trkpt lat="43.65679" lon="1.23013">
        <ele>187.751373</ele>
        <time>2013-03-24T09:55:14Z</time>
      </trkpt>
      <trkpt lat="43.65675" lon="1.23018">
        <ele>187.822495</ele>
        <time>2013-03-24T09:55:15Z</time>
      </trkpt>
      <trkpt lat="43.65672" lon="1.23023">
        <ele>187.882294</ele>
        <time>2013-03-24T09:55:16Z</time>
      </trkpt>
      <trkpt lat="43.6567" lon="1.23028">
        <ele>187.931778</ele>
        <time>2013-03-24T09:55:17Z</time>
      </trkpt>
      <trkpt lat="43.65666" lon="1.23032">
        <ele>187.965347</ele>
        <time>2013-03-24T09:55:18Z</time>
      </trkpt>
      <trkpt lat="43.65662" lon="1.23036">
        <ele>187.987411</ele>
        <time>2013-03-24T09:55:19Z</time>
      </trkpt>
      <trkpt lat="43.6566" lon="1.23041">
        <ele>188</ele>
        <time>2013-03-24T09:55:20Z</time>
      </trkpt>
      <trkpt lat="43.65659" lon="1.23046">
        <ele>188</ele>
        <time>2013-03-24T09:55:21Z</time>
      </trkpt>
      <trkpt lat="43.65657" lon="1.23051">
        <ele>188</ele>
        <time>2013-03-24T09:55:22Z</time>
      </trkpt>
      <trkpt lat="43.65655" lon="1.23056">
        <ele>188</ele>
        <time>2013-03-24T09:55:23Z</time>
      </trkpt>
      <trkpt lat="43.65653" lon="1.23062">
        <ele>188.017502</ele>
        <time>2013-03-24T09:55:24Z</time>
      </trkpt>
      <trkpt lat="43.6565" lon="1.23068">
        <ele>188.085007</ele>
        <time>2013-03-24T09:55:25Z</time>
      </trkpt>
      <trkpt lat="43.65646" lon="1.23073">
        <ele>188.162506</ele>
        <time>2013-03-24T09:55:26Z</time>
      </trkpt>
      <trkpt lat="43.65638" lon="1.23083">
        <ele>188.345001</ele>
        <time>2013-03-24T09:55:28Z</time>
      </trkpt>
      <trkpt lat="43.65629" lon="1.23091">
        <ele>188.547501</ele>
        <time>2013-03-24T09:55:30Z</time>
      </trkpt>
      <trkpt lat="43.65625" lon="1.23096">
        <ele>188.645004</ele>
        <time>2013-03-24T09:55:31Z</time>
      </trkpt>
      <trkpt lat="43.65621" lon="1.231">
        <ele>188.725006</ele>
        <time>2013-03-24T09:55:32Z</time>
      </trkpt>
      <trkpt lat="43.65617" lon="1.23104">
        <ele>188.828827</ele>
        <time>2013-03-24T09:55:33Z</time>
      </trkpt>
      <trkpt lat="43.65612" lon="1.23108">
        <ele>188.930527</ele>
        <time>2013-03-24T09:55:34Z</time>
      </trkpt>
      <trkpt lat="43.65608" lon="1.23112">
        <ele>189.020004</ele>
        <time>2013-03-24T09:55:35Z</time>
      </trkpt>
      <trkpt lat="43.65604" lon="1.23117">
        <ele>189.100006</ele>
        <time>2013-03-24T09:55:36Z</time>
      </trkpt>
      <trkpt lat="43.65564" lon="1.23165">
        <ele>190.022507</ele>
        <time>2013-03-24T09:55:47Z</time>
      </trkpt>
      <trkpt lat="43.65556" lon="1.23173">
        <ele>190.287079</ele>
        <time>2013-03-24T09:55:49Z</time>
      </trkpt>
      <trkpt lat="43.65545" lon="1.23186">
        <ele>190.618851</ele>
        <time>2013-03-24T09:55:52Z</time>
      </trkpt>
      <trkpt lat="43.65541" lon="1.2319">
        <ele>190.704605</ele>
        <time>2013-03-24T09:55:53Z</time>
      </trkpt>
      <trkpt lat="43.6553" lon="1.232">
        <ele>190.892181</ele>
        <time>2013-03-24T09:55:56Z</time>
      </trkpt>
      <trkpt lat="43.65526" lon="1.23202">
        <ele>190.941391</ele>
        <time>2013-03-24T09:55:57Z</time>
      </trkpt>
      <trkpt lat="43.65522" lon="1.23204">
        <ele>190.984177</ele>
        <time>2013-03-24T09:55:58Z</time>
      </trkpt>
      <trkpt lat="43.65518" lon="1.23207">
        <ele>191.033859</ele>
        <time>2013-03-24T09:55:59Z</time>
      </trkpt>
      <trkpt lat="43.65514" lon="1.2321">
        <ele>191.094589</ele>
        <time>2013-03-24T09:56:00Z</time>
      </trkpt>
      <trkpt lat="43.6551" lon="1.23214">
        <ele>191.163269</ele>
        <time>2013-03-24T09:56:01Z</time>
      </trkpt>
      <trkpt lat="43.65497" lon="1.23233">
        <ele>191.556763</ele>
        <time>2013-03-24T09:56:06Z</time>
      </trkpt>
      <trkpt lat="43.65494" lon="1.23236">
        <ele>191.643341</ele>
        <time>2013-03-24T09:56:07Z</time>
      </trkpt>
      <trkpt lat="43.6549" lon="1.2324">
        <ele>191.722366</ele>
        <time>2013-03-24T09:56:08Z</time>
      </trkpt>
      <trkpt lat="43.65487" lon="1.23242">
        <ele>191.80069</ele>
        <time>2013-03-24T09:56:09Z</time>
      </trkpt>
      <trkpt lat="43.65484" lon="1.23246">
        <ele>191.865524</ele>
        <time>2013-03-24T09:56:10Z</time>
      </trkpt>
      <trkpt lat="43.65481" lon="1.2325">
        <ele>191.91777</ele>
        <time>2013-03-24T09:56:11Z</time>
      </trkpt>
      <trkpt lat="43.65452" lon="1.23273">
        <ele>192</ele>
        <time>2013-03-24T09:56:20Z</time>
      </trkpt>
      <trkpt lat="43.65448" lon="1.23275">
        <ele>192</ele>
        <time>2013-03-24T09:56:21Z</time>
      </trkpt>
      <trkpt lat="43.65444" lon="1.23278">
        <ele>192</ele>
        <time>2013-03-24T09:56:22Z</time>
      </trkpt>
      <trkpt lat="43.65441" lon="1.23282">
        <ele>192</ele>
        <time>2013-03-24T09:56:23Z</time>
      </trkpt>
      <trkpt lat="43.65438" lon="1.23286">
        <ele>192</ele>
        <time>2013-03-24T09:56:24Z</time>
      </trkpt>
      <trkpt lat="43.65413" lon="1.23315">
        <ele>192</ele>
        <time>2013-03-24T09:56:33Z</time>
      </trkpt>
      <trkpt lat="43.65384" lon="1.23345">
        <ele>192</ele>
        <time>2013-03-24T09:56:43Z</time>
      </trkpt>
      <trkpt lat="43.65353" lon="1.23375">
        <ele>192</ele>
        <time>2013-03-24T09:56:52Z</time>
      </trkpt>
      <trkpt lat="43.65326" lon="1.23411">
        <ele>192</ele>
        <time>2013-03-24T09:57:01Z</time>
      </trkpt>
      <trkpt lat="43.65323" lon="1.2341">
        <ele>192</ele>
        <time>2013-03-24T09:57:04Z</time>
      </trkpt>
      <trkpt lat="43.65323" lon="1.2341">
        <ele>192</ele>
        <time>2013-03-24T09:57:09Z</time>
      </trkpt>
      <trkpt lat="43.65324" lon="1.23409">
        <ele>192</ele>
        <time>2013-03-24T09:57:10Z</time>
      </trkpt>
      <trkpt lat="43.65325" lon="1.23409">
        <ele>192</ele>
        <time>2013-03-24T09:57:11Z</time>
      </trkpt>
      <trkpt lat="43.65327" lon="1.23407">
        <ele>192</ele>
        <time>2013-03-24T09:57:12Z</time>
      </trkpt>
      <trkpt lat="43.65328" lon="1.23405">
        <ele>192</ele>
        <time>2013-03-24T09:57:13Z</time>
      </trkpt>
      <trkpt lat="43.6533" lon="1.23402">
        <ele>192</ele>
        <time>2013-03-24T09:57:14Z</time>
      </trkpt>
      <trkpt lat="43.65332" lon="1.23398">
        <ele>192</ele>
        <time>2013-03-24T09:57:15Z</time>
      </trkpt>
      <trkpt lat="43.65335" lon="1.2339">
        <ele>192</ele>
        <time>2013-03-24T09:57:17Z</time>
      </trkpt>
      <trkpt lat="43.65334" lon="1.23385">
        <ele>192</ele>
        <time>2013-03-24T09:57:18Z</time>
      </trkpt>
      <trkpt lat="43.65332" lon="1.2338">
        <ele>192</ele>
        <time>2013-03-24T09:57:19Z</time>
      </trkpt>
      <trkpt lat="43.6533" lon="1.23375">
        <ele>192</ele>
        <time>2013-03-24T09:57:20Z</time>
      </trkpt>
      <trkpt lat="43.65327" lon="1.2337">
        <ele>192</ele>
        <time>2013-03-24T09:57:21Z</time>
      </trkpt>
      <trkpt lat="43.65322" lon="1.23359">
        <ele>192</ele>
        <time>2013-03-24T09:57:23Z</time>
      </trkpt>
      <trkpt lat="43.65319" lon="1.23354">
        <ele>192</ele>
        <time>2013-03-24T09:57:24Z</time>
      </trkpt>
      <trkpt lat="43.65302" lon="1.23323">
        <ele>192</ele>
        <time>2013-03-24T09:57:30Z</time>
      </trkpt>
      <trkpt lat="43.653" lon="1.23317">
        <ele>192</ele>
        <time>2013-03-24T09:57:31Z</time>
      </trkpt>
      <trkpt lat="43.65297" lon="1.23312">
        <ele>192</ele>
        <time>2013-03-24T09:57:32Z</time>
      </trkpt>
      <trkpt lat="43.65292" lon="1.23301">
        <ele>192</ele>
        <time>2013-03-24T09:57:34Z</time>
      </trkpt>
      <trkpt lat="43.65268" lon="1.2326">
        <ele>192.36055</ele>
        <time>2013-03-24T09:57:43Z</time>
      </trkpt>
      <trkpt lat="43.65265" lon="1.23255">
        <ele>192.447525</ele>
        <time>2013-03-24T09:57:44Z</time>
      </trkpt>
      <trkpt lat="43.65263" lon="1.2325">
        <ele>192.539764</ele>
        <time>2013-03-24T09:57:45Z</time>
      </trkpt>
      <trkpt lat="43.65252" lon="1.23232">
        <ele>192.979996</ele>
        <time>2013-03-24T09:57:49Z</time>
      </trkpt>
      <trkpt lat="43.65236" lon="1.23203">
        <ele>193</ele>
        <time>2013-03-24T09:57:57Z</time>
      </trkpt>
      <trkpt lat="43.65219" lon="1.23175">
        <ele>193</ele>
        <time>2013-03-24T09:58:06Z</time>
      </trkpt>
      <trkpt lat="43.65216" lon="1.23172">
        <ele>193</ele>
        <time>2013-03-24T09:58:08Z</time>
      </trkpt>
      <trkpt lat="43.65214" lon="1.23171">
        <ele>193</ele>
        <time>2013-03-24T09:58:09Z</time>
      </trkpt>
      <trkpt lat="43.65213" lon="1.2317">
        <ele>193</ele>
        <time>2013-03-24T09:58:10Z</time>
      </trkpt>
      <trkpt lat="43.6521" lon="1.23169">
        <ele>193</ele>
        <time>2013-03-24T09:58:11Z</time>
      </trkpt>
      <trkpt lat="43.65208" lon="1.23168">
        <ele>193</ele>
        <time>2013-03-24T09:58:12Z</time>
      </trkpt>
      <trkpt lat="43.65207" lon="1.23167">
        <ele>193</ele>
        <time>2013-03-24T09:58:13Z</time>
      </trkpt>
      <trkpt lat="43.65205" lon="1.23165">
        <ele>193</ele>
        <time>2013-03-24T09:58:14Z</time>
      </trkpt>
      <trkpt lat="43.65204" lon="1.23163">
        <ele>193</ele>
        <time>2013-03-24T09:58:15Z</time>
      </trkpt>
      <trkpt lat="43.65201" lon="1.23158">
        <ele>193</ele>
        <time>2013-03-24T09:58:18Z</time>
      </trkpt>
      <trkpt lat="43.65198" lon="1.23153">
        <ele>193</ele>
        <time>2013-03-24T09:58:28Z</time>
      </trkpt>
      <trkpt lat="43.6519" lon="1.2315">
        <ele>193</ele>
        <time>2013-03-24T09:58:36Z</time>
      </trkpt>
      <trkpt lat="43.65185" lon="1.23153">
        <ele>193</ele>
        <time>2013-03-24T09:58:49Z</time>
      </trkpt>
      <trkpt lat="43.65182" lon="1.23153">
        <ele>193</ele>
        <time>2013-03-24T09:58:59Z</time>
      </trkpt>
      <trkpt lat="43.65179" lon="1.23151">
        <ele>193</ele>
        <time>2013-03-24T09:59:10Z</time>
      </trkpt>
      <trkpt lat="43.65166" lon="1.23143">
        <ele>193</ele>
        <time>2013-03-24T09:59:22Z</time>
      </trkpt>
      <trkpt lat="43.65164" lon="1.23136">
        <ele>193</ele>
        <time>2013-03-24T09:59:35Z</time>
      </trkpt>
      <trkpt lat="43.6516" lon="1.23127">
        <ele>193</ele>
        <time>2013-03-24T09:59:45Z</time>
      </trkpt>
      <trkpt lat="43.65161" lon="1.23124">
        <ele>193</ele>
        <time>2013-03-24T09:59:47Z</time>
      </trkpt>
      <trkpt lat="43.65166" lon="1.23111">
        <ele>193</ele>
        <time>2013-03-24T09:59:58Z</time>
      </trkpt>
      <trkpt lat="43.65168" lon="1.2311">
        <ele>193</ele>
        <time>2013-03-24T10:00:03Z</time>
      </trkpt>
      <trkpt lat="43.6517" lon="1.23107">
        <ele>193</ele>
        <time>2013-03-24T10:00:07Z</time>
      </trkpt>
      <trkpt lat="43.65171" lon="1.23095">
        <ele>193</ele>
        <time>2013-03-24T10:00:14Z</time>
      </trkpt>
      <trkpt lat="43.6517" lon="1.23087">
        <ele>193</ele>
        <time>2013-03-24T10:00:28Z</time>
      </trkpt>
      <trkpt lat="43.65161" lon="1.23069">
        <ele>193</ele>
        <time>2013-03-24T10:00:39Z</time>
      </trkpt>
      <trkpt lat="43.65141" lon="1.23034">
        <ele>193</ele>
        <time>2013-03-24T10:00:51Z</time>
      </trkpt>
      <trkpt lat="43.65123" lon="1.22999">
        <ele>193</ele>
        <time>2013-03-24T10:01:01Z</time>
      </trkpt>
      <trkpt lat="43.651" lon="1.22957">
        <ele>193</ele>
        <time>2013-03-24T10:01:12Z</time>
      </trkpt>
      <trkpt lat="43.65078" lon="1.22916">
        <ele>193</ele>
        <time>2013-03-24T10:01:22Z</time>
      </trkpt>
      <trkpt lat="43.65058" lon="1.22885">
        <ele>193</ele>
        <time>2013-03-24T10:01:31Z</time>
      </trkpt>
      <trkpt lat="43.65037" lon="1.22895">
        <ele>193</ele>
        <time>2013-03-24T10:01:41Z</time>
      </trkpt>
      <trkpt lat="43.65029" lon="1.22906">
        <ele>193</ele>
        <time>2013-03-24T10:01:48Z</time>
      </trkpt>
      <trkpt lat="43.65024" lon="1.2291">
        <ele>193</ele>
        <time>2013-03-24T10:01:51Z</time>
      </trkpt>
      <trkpt lat="43.65016" lon="1.22923">
        <ele>193.157501</ele>
        <time>2013-03-24T10:01:58Z</time>
      </trkpt>
      <trkpt lat="43.64998" lon="1.22938">
        <ele>193.559998</ele>
        <time>2013-03-24T10:02:09Z</time>
      </trkpt>
      <trkpt lat="43.64992" lon="1.22945">
        <ele>193.679993</ele>
        <time>2013-03-24T10:02:12Z</time>
      </trkpt>
      <trkpt lat="43.6497" lon="1.22969">
        <ele>194.192505</ele>
        <time>2013-03-24T10:02:23Z</time>
      </trkpt>
      <trkpt lat="43.64947" lon="1.22995">
        <ele>194.667374</ele>
        <time>2013-03-24T10:02:34Z</time>
      </trkpt>
      <trkpt lat="43.64921" lon="1.23024">
        <ele>194.795624</ele>
        <time>2013-03-24T10:02:45Z</time>
      </trkpt>
      <trkpt lat="43.64911" lon="1.23037">
        <ele>194.785004</ele>
        <time>2013-03-24T10:02:49Z</time>
      </trkpt>
      <trkpt lat="43.6489" lon="1.23058">
        <ele>194.979996</ele>
        <time>2013-03-24T10:02:59Z</time>
      </trkpt>
      <trkpt lat="43.6487" lon="1.23077">
        <ele>196.01445</ele>
        <time>2013-03-24T10:03:12Z</time>
      </trkpt>
      <trkpt lat="43.64868" lon="1.23078">
        <ele>196.061813</ele>
        <time>2013-03-24T10:03:13Z</time>
      </trkpt>
      <trkpt lat="43.64851" lon="1.231">
        <ele>196.369949</ele>
        <time>2013-03-24T10:03:25Z</time>
      </trkpt>
      <trkpt lat="43.64832" lon="1.23115">
        <ele>196.936462</ele>
        <time>2013-03-24T10:03:33Z</time>
      </trkpt>
      <trkpt lat="43.64829" lon="1.23119">
        <ele>197.062149</ele>
        <time>2013-03-24T10:03:34Z</time>
      </trkpt>
      <trkpt lat="43.64794" lon="1.23158">
        <ele>197.991257</ele>
        <time>2013-03-24T10:03:46Z</time>
      </trkpt>
      <trkpt lat="43.64769" lon="1.23187">
        <ele>198.251251</ele>
        <time>2013-03-24T10:03:57Z</time>
      </trkpt>
      <trkpt lat="43.64769" lon="1.2319">
        <ele>198.131256</ele>
        <time>2013-03-24T10:03:58Z</time>
      </trkpt>
      <trkpt lat="43.6477" lon="1.23193">
        <ele>197.971252</ele>
        <time>2013-03-24T10:03:59Z</time>
      </trkpt>
      <trkpt lat="43.6477" lon="1.23197">
        <ele>197.846252</ele>
        <time>2013-03-24T10:04:00Z</time>
      </trkpt>
      <trkpt lat="43.64769" lon="1.23201">
        <ele>197.773743</ele>
        <time>2013-03-24T10:04:01Z</time>
      </trkpt>
      <trkpt lat="43.64767" lon="1.23204">
        <ele>197.762497</ele>
        <time>2013-03-24T10:04:02Z</time>
      </trkpt>
      <trkpt lat="43.64765" lon="1.23207">
        <ele>197.774994</ele>
        <time>2013-03-24T10:04:03Z</time>
      </trkpt>
      <trkpt lat="43.64762" lon="1.23211">
        <ele>197.798752</ele>
        <time>2013-03-24T10:04:04Z</time>
      </trkpt>
      <trkpt lat="43.64749" lon="1.23225">
        <ele>197.767502</ele>
        <time>2013-03-24T10:04:08Z</time>
      </trkpt>
      <trkpt lat="43.64746" lon="1.23229">
        <ele>197.705002</ele>
        <time>2013-03-24T10:04:09Z</time>
      </trkpt>
      <trkpt lat="43.64727" lon="1.23251">
        <ele>197.550629</ele>
        <time>2013-03-24T10:04:15Z</time>
      </trkpt>
      <trkpt lat="43.64695" lon="1.23287">
        <ele>197.427795</ele>
        <time>2013-03-24T10:04:26Z</time>
      </trkpt>
      <trkpt lat="43.64656" lon="1.23333">
        <ele>196.586868</ele>
        <time>2013-03-24T10:04:37Z</time>
      </trkpt>
      <trkpt lat="43.64647" lon="1.23342">
        <ele>196.441254</ele>
        <time>2013-03-24T10:04:39Z</time>
      </trkpt>
      <trkpt lat="43.64642" lon="1.23346">
        <ele>196.369995</ele>
        <time>2013-03-24T10:04:40Z</time>
      </trkpt>
      <trkpt lat="43.64639" lon="1.23352">
        <ele>196.288757</ele>
        <time>2013-03-24T10:04:41Z</time>
      </trkpt>
      <trkpt lat="43.64635" lon="1.23357">
        <ele>196.208755</ele>
        <time>2013-03-24T10:04:42Z</time>
      </trkpt>
      <trkpt lat="43.64632" lon="1.23361">
        <ele>196.134369</ele>
        <time>2013-03-24T10:04:43Z</time>
      </trkpt>
      <trkpt lat="43.64627" lon="1.23365">
        <ele>196.067505</ele>
        <time>2013-03-24T10:04:44Z</time>
      </trkpt>
      <trkpt lat="43.64622" lon="1.2337">
        <ele>196.021423</ele>
        <time>2013-03-24T10:04:45Z</time>
      </trkpt>
      <trkpt lat="43.64616" lon="1.23376">
        <ele>196.067657</ele>
        <time>2013-03-24T10:04:46Z</time>
      </trkpt>
      <trkpt lat="43.64611" lon="1.23382">
        <ele>196.121918</ele>
        <time>2013-03-24T10:04:47Z</time>
      </trkpt>
      <trkpt lat="43.64602" lon="1.23394">
        <ele>196.265152</ele>
        <time>2013-03-24T10:04:49Z</time>
      </trkpt>
      <trkpt lat="43.64598" lon="1.234">
        <ele>196.349487</ele>
        <time>2013-03-24T10:04:50Z</time>
      </trkpt>
      <trkpt lat="43.64594" lon="1.23407">
        <ele>196.455215</ele>
        <time>2013-03-24T10:04:51Z</time>
      </trkpt>
      <trkpt lat="43.64571" lon="1.23435">
        <ele>197.299377</ele>
        <time>2013-03-24T10:04:59Z</time>
      </trkpt>
      <trkpt lat="43.64569" lon="1.23438">
        <ele>197.337494</ele>
        <time>2013-03-24T10:05:00Z</time>
      </trkpt>
      <trkpt lat="43.64564" lon="1.23444">
        <ele>197.471252</ele>
        <time>2013-03-24T10:05:06Z</time>
      </trkpt>
      <trkpt lat="43.64557" lon="1.23452">
        <ele>197.660004</ele>
        <time>2013-03-24T10:05:13Z</time>
      </trkpt>
      <trkpt lat="43.64555" lon="1.23453">
        <ele>197.726242</ele>
        <time>2013-03-24T10:05:14Z</time>
      </trkpt>
      <trkpt lat="43.64553" lon="1.23454">
        <ele>197.782501</ele>
        <time>2013-03-24T10:05:15Z</time>
      </trkpt>
      <trkpt lat="43.64547" lon="1.2346">
        <ele>197.960617</ele>
        <time>2013-03-24T10:05:18Z</time>
      </trkpt>
      <trkpt lat="43.64545" lon="1.23463">
        <ele>198.034378</ele>
        <time>2013-03-24T10:05:19Z</time>
      </trkpt>
      <trkpt lat="43.64542" lon="1.23465">
        <ele>198.110001</ele>
        <time>2013-03-24T10:05:20Z</time>
      </trkpt>
      <trkpt lat="43.6454" lon="1.23468">
        <ele>198.168747</ele>
        <time>2013-03-24T10:05:21Z</time>
      </trkpt>
      <trkpt lat="43.64538" lon="1.23471">
        <ele>198.211243</ele>
        <time>2013-03-24T10:05:22Z</time>
      </trkpt>
      <trkpt lat="43.64535" lon="1.23474">
        <ele>198.288132</ele>
        <time>2013-03-24T10:05:23Z</time>
      </trkpt>
      <trkpt lat="43.64533" lon="1.23476">
        <ele>198.360001</ele>
        <time>2013-03-24T10:05:24Z</time>
      </trkpt>
      <trkpt lat="43.6453" lon="1.2348">
        <ele>198.416245</ele>
        <time>2013-03-24T10:05:25Z</time>
      </trkpt>
      <trkpt lat="43.64516" lon="1.23496">
        <ele>198.806244</ele>
        <time>2013-03-24T10:05:31Z</time>
      </trkpt>
      <trkpt lat="43.64513" lon="1.23498">
        <ele>198.861252</ele>
        <time>2013-03-24T10:05:32Z</time>
      </trkpt>
      <trkpt lat="43.6451" lon="1.23501">
        <ele>198.886246</ele>
        <time>2013-03-24T10:05:33Z</time>
      </trkpt>
      <trkpt lat="43.64488" lon="1.23532">
        <ele>198.892578</ele>
        <time>2013-03-24T10:05:40Z</time>
      </trkpt>
      <trkpt lat="43.64485" lon="1.23537">
        <ele>198.862595</ele>
        <time>2013-03-24T10:05:41Z</time>
      </trkpt>
      <trkpt lat="43.64481" lon="1.23541">
        <ele>198.870956</ele>
        <time>2013-03-24T10:05:42Z</time>
      </trkpt>
      <trkpt lat="43.6447" lon="1.23554">
        <ele>199.010437</ele>
        <time>2013-03-24T10:05:45Z</time>
      </trkpt>
      <trkpt lat="43.64453" lon="1.23575">
        <ele>198.870758</ele>
        <time>2013-03-24T10:05:50Z</time>
      </trkpt>
      <trkpt lat="43.6445" lon="1.2358">
        <ele>198.798462</ele>
        <time>2013-03-24T10:05:51Z</time>
      </trkpt>
      <trkpt lat="43.64435" lon="1.23596">
        <ele>198.546783</ele>
        <time>2013-03-24T10:05:55Z</time>
      </trkpt>
      <trkpt lat="43.64431" lon="1.23599">
        <ele>198.568222</ele>
        <time>2013-03-24T10:05:56Z</time>
      </trkpt>
      <trkpt lat="43.64428" lon="1.23603">
        <ele>198.539154</ele>
        <time>2013-03-24T10:05:57Z</time>
      </trkpt>
      <trkpt lat="43.64424" lon="1.23607">
        <ele>198.523804</ele>
        <time>2013-03-24T10:05:58Z</time>
      </trkpt>
      <trkpt lat="43.64421" lon="1.2361">
        <ele>198.519669</ele>
        <time>2013-03-24T10:05:59Z</time>
      </trkpt>
      <trkpt lat="43.64374" lon="1.23663">
        <ele>197.427734</ele>
        <time>2013-03-24T10:06:13Z</time>
      </trkpt>
      <trkpt lat="43.64355" lon="1.23686">
        <ele>196.899841</ele>
        <time>2013-03-24T10:06:18Z</time>
      </trkpt>
      <trkpt lat="43.64309" lon="1.23743">
        <ele>195.182495</ele>
        <time>2013-03-24T10:06:29Z</time>
      </trkpt>
      <trkpt lat="43.64305" lon="1.23747">
        <ele>195.143753</ele>
        <time>2013-03-24T10:06:30Z</time>
      </trkpt>
      <trkpt lat="43.64297" lon="1.23756">
        <ele>195.069992</ele>
        <time>2013-03-24T10:06:32Z</time>
      </trkpt>
      <trkpt lat="43.64293" lon="1.2376">
        <ele>195.016251</ele>
        <time>2013-03-24T10:06:33Z</time>
      </trkpt>
      <trkpt lat="43.64282" lon="1.23775">
        <ele>194.807495</ele>
        <time>2013-03-24T10:06:36Z</time>
      </trkpt>
      <trkpt lat="43.64274" lon="1.23784">
        <ele>194.691254</ele>
        <time>2013-03-24T10:06:38Z</time>
      </trkpt>
      <trkpt lat="43.6427" lon="1.2379">
        <ele>194.598755</ele>
        <time>2013-03-24T10:06:39Z</time>
      </trkpt>
      <trkpt lat="43.64266" lon="1.23795">
        <ele>194.528748</ele>
        <time>2013-03-24T10:06:40Z</time>
      </trkpt>
      <trkpt lat="43.64249" lon="1.23814">
        <ele>194.365631</ele>
        <time>2013-03-24T10:06:44Z</time>
      </trkpt>
      <trkpt lat="43.64244" lon="1.23818">
        <ele>194.403122</ele>
        <time>2013-03-24T10:06:45Z</time>
      </trkpt>
      <trkpt lat="43.64228" lon="1.23832">
        <ele>194.55687</ele>
        <time>2013-03-24T10:06:50Z</time>
      </trkpt>
      <trkpt lat="43.64226" lon="1.2383">
        <ele>194.623749</ele>
        <time>2013-03-24T10:06:51Z</time>
      </trkpt>
      <trkpt lat="43.64225" lon="1.23828">
        <ele>194.662491</ele>
        <time>2013-03-24T10:06:52Z</time>
      </trkpt>
      <trkpt lat="43.64226" lon="1.23827">
        <ele>194.669998</ele>
        <time>2013-03-24T10:06:53Z</time>
      </trkpt>
      <trkpt lat="43.64227" lon="1.23825">
        <ele>194.676254</ele>
        <time>2013-03-24T10:06:54Z</time>
      </trkpt>
      <trkpt lat="43.64228" lon="1.23822">
        <ele>194.684372</ele>
        <time>2013-03-24T10:06:55Z</time>
      </trkpt>
      <trkpt lat="43.64232" lon="1.23804">
        <ele>194.990005</ele>
        <time>2013-03-24T10:07:01Z</time>
      </trkpt>
      <trkpt lat="43.64232" lon="1.23801">
        <ele>195.108749</ele>
        <time>2013-03-24T10:07:02Z</time>
      </trkpt>
      <trkpt lat="43.64231" lon="1.23797">
        <ele>195.258743</ele>
        <time>2013-03-24T10:07:03Z</time>
      </trkpt>
      <trkpt lat="43.64205" lon="1.23726">
        <ele>197.995667</ele>
        <time>2013-03-24T10:07:18Z</time>
      </trkpt>
      <trkpt lat="43.64178" lon="1.23653">
        <ele>200.127502</ele>
        <time>2013-03-24T10:07:33Z</time>
      </trkpt>
      <trkpt lat="43.64146" lon="1.23571">
        <ele>201.235626</ele>
        <time>2013-03-24T10:07:50Z</time>
      </trkpt>
      <trkpt lat="43.64125" lon="1.23527">
        <ele>201.557571</ele>
        <time>2013-03-24T10:08:01Z</time>
      </trkpt>
      <trkpt lat="43.64122" lon="1.23526">
        <ele>201.518692</ele>
        <time>2013-03-24T10:08:02Z</time>
      </trkpt>
      <trkpt lat="43.64119" lon="1.23527">
        <ele>201.461243</ele>
        <time>2013-03-24T10:08:03Z</time>
      </trkpt>
      <trkpt lat="43.64116" lon="1.23529">
        <ele>201.397552</ele>
        <time>2013-03-24T10:08:04Z</time>
      </trkpt>
      <trkpt lat="43.64113" lon="1.23532">
        <ele>201.333069</ele>
        <time>2013-03-24T10:08:05Z</time>
      </trkpt>
      <trkpt lat="43.6411" lon="1.23534">
        <ele>201.28476</ele>
        <time>2013-03-24T10:08:06Z</time>
      </trkpt>
      <trkpt lat="43.64108" lon="1.23536">
        <ele>201.237747</ele>
        <time>2013-03-24T10:08:07Z</time>
      </trkpt>
      <trkpt lat="43.64104" lon="1.23539">
        <ele>201.184631</ele>
        <time>2013-03-24T10:08:08Z</time>
      </trkpt>
      <trkpt lat="43.64101" lon="1.23542">
        <ele>201.133789</ele>
        <time>2013-03-24T10:08:09Z</time>
      </trkpt>
      <trkpt lat="43.64097" lon="1.23544">
        <ele>201.08873</ele>
        <time>2013-03-24T10:08:10Z</time>
      </trkpt>
      <trkpt lat="43.64093" lon="1.23548">
        <ele>201.049271</ele>
        <time>2013-03-24T10:08:11Z</time>
      </trkpt>
      <trkpt lat="43.64089" lon="1.23552">
        <ele>201.017395</ele>
        <time>2013-03-24T10:08:12Z</time>
      </trkpt>
      <trkpt lat="43.64085" lon="1.23557">
        <ele>200.981476</ele>
        <time>2013-03-24T10:08:13Z</time>
      </trkpt>
      <trkpt lat="43.64081" lon="1.23562">
        <ele>200.80217</ele>
        <time>2013-03-24T10:08:14Z</time>
      </trkpt>
      <trkpt lat="43.64076" lon="1.23567">
        <ele>200.584534</ele>
        <time>2013-03-24T10:08:15Z</time>
      </trkpt>
      <trkpt lat="43.64072" lon="1.23572">
        <ele>200.330872</ele>
        <time>2013-03-24T10:08:16Z</time>
      </trkpt>
      <trkpt lat="43.64068" lon="1.23578">
        <ele>200.095428</ele>
        <time>2013-03-24T10:08:17Z</time>
      </trkpt>
      <trkpt lat="43.64049" lon="1.23597">
        <ele>199.291153</ele>
        <time>2013-03-24T10:08:22Z</time>
      </trkpt>
      <trkpt lat="43.64047" lon="1.23597">
        <ele>199.200745</ele>
        <time>2013-03-24T10:08:23Z</time>
      </trkpt>
      <trkpt lat="43.64044" lon="1.23597">
        <ele>199.101974</ele>
        <time>2013-03-24T10:08:24Z</time>
      </trkpt>
      <trkpt lat="43.64041" lon="1.23598">
        <ele>199.007492</ele>
        <time>2013-03-24T10:08:25Z</time>
      </trkpt>
      <trkpt lat="43.64038" lon="1.23599">
        <ele>198.919968</ele>
        <time>2013-03-24T10:08:26Z</time>
      </trkpt>
      <trkpt lat="43.64036" lon="1.23601">
        <ele>198.829498</ele>
        <time>2013-03-24T10:08:27Z</time>
      </trkpt>
      <trkpt lat="43.64033" lon="1.23601">
        <ele>198.743118</ele>
        <time>2013-03-24T10:08:28Z</time>
      </trkpt>
      <trkpt lat="43.64031" lon="1.236">
        <ele>198.668503</ele>
        <time>2013-03-24T10:08:29Z</time>
      </trkpt>
      <trkpt lat="43.64029" lon="1.23598">
        <ele>198.601013</ele>
        <time>2013-03-24T10:08:30Z</time>
      </trkpt>
      <trkpt lat="43.64027" lon="1.23595">
        <ele>198.5522</ele>
        <time>2013-03-24T10:08:31Z</time>
      </trkpt>
      <trkpt lat="43.64025" lon="1.23591">
        <ele>198.518295</ele>
        <time>2013-03-24T10:08:32Z</time>
      </trkpt>
      <trkpt lat="43.64023" lon="1.23587">
        <ele>198.484863</ele>
        <time>2013-03-24T10:08:33Z</time>
      </trkpt>
      <trkpt lat="43.64021" lon="1.23583">
        <ele>198.440796</ele>
        <time>2013-03-24T10:08:34Z</time>
      </trkpt>
      <trkpt lat="43.64018" lon="1.2358">
        <ele>198.404999</ele>
        <time>2013-03-24T10:08:35Z</time>
      </trkpt>
      <trkpt lat="43.64011" lon="1.2357">
        <ele>198.310608</ele>
        <time>2013-03-24T10:08:38Z</time>
      </trkpt>
      <trkpt lat="43.64008" lon="1.23566">
        <ele>198.290161</ele>
        <time>2013-03-24T10:08:39Z</time>
      </trkpt>
      <trkpt lat="43.64006" lon="1.23562">
        <ele>198.250275</ele>
        <time>2013-03-24T10:08:40Z</time>
      </trkpt>
      <trkpt lat="43.64" lon="1.23542">
        <ele>198.137787</ele>
        <time>2013-03-24T10:08:45Z</time>
      </trkpt>
      <trkpt lat="43.64002" lon="1.23538">
        <ele>198.206406</ele>
        <time>2013-03-24T10:08:46Z</time>
      </trkpt>
      <trkpt lat="43.64003" lon="1.23534">
        <ele>198.276855</ele>
        <time>2013-03-24T10:08:47Z</time>
      </trkpt>
      <trkpt lat="43.64005" lon="1.2353">
        <ele>198.353516</ele>
        <time>2013-03-24T10:08:48Z</time>
      </trkpt>
      <trkpt lat="43.64007" lon="1.23525">
        <ele>198.432434</ele>
        <time>2013-03-24T10:08:49Z</time>
      </trkpt>
      <trkpt lat="43.64018" lon="1.2349">
        <ele>199.143723</ele>
        <time>2013-03-24T10:08:56Z</time>
      </trkpt>
      <trkpt lat="43.64019" lon="1.23486">
        <ele>199.232758</ele>
        <time>2013-03-24T10:08:57Z</time>
      </trkpt>
      <trkpt lat="43.6402" lon="1.23482">
        <ele>199.301788</ele>
        <time>2013-03-24T10:08:58Z</time>
      </trkpt>
      <trkpt lat="43.64041" lon="1.23432">
        <ele>199.867859</ele>
        <time>2013-03-24T10:09:10Z</time>
      </trkpt>
      <trkpt lat="43.64053" lon="1.23377">
        <ele>199.67067</ele>
        <time>2013-03-24T10:09:21Z</time>
      </trkpt>
      <trkpt lat="43.64054" lon="1.23372">
        <ele>199.775696</ele>
        <time>2013-03-24T10:09:22Z</time>
      </trkpt>
      <trkpt lat="43.64054" lon="1.23366">
        <ele>199.858749</ele>
        <time>2013-03-24T10:09:23Z</time>
      </trkpt>
      <trkpt lat="43.64058" lon="1.23349">
        <ele>200.156555</ele>
        <time>2013-03-24T10:09:27Z</time>
      </trkpt>
      <trkpt lat="43.64056" lon="1.23346">
        <ele>200.125961</ele>
        <time>2013-03-24T10:09:28Z</time>
      </trkpt>
      <trkpt lat="43.64053" lon="1.23344">
        <ele>200.042175</ele>
        <time>2013-03-24T10:09:29Z</time>
      </trkpt>
      <trkpt lat="43.6405" lon="1.23344">
        <ele>199.944153</ele>
        <time>2013-03-24T10:09:30Z</time>
      </trkpt>
      <trkpt lat="43.64047" lon="1.23344">
        <ele>199.864944</ele>
        <time>2013-03-24T10:09:31Z</time>
      </trkpt>
      <trkpt lat="43.64035" lon="1.23341">
        <ele>199.610672</ele>
        <time>2013-03-24T10:09:39Z</time>
      </trkpt>
      <trkpt lat="43.64026" lon="1.23334">
        <ele>199.552597</ele>
        <time>2013-03-24T10:09:43Z</time>
      </trkpt>
      <trkpt lat="43.64024" lon="1.23331">
        <ele>199.568604</ele>
        <time>2013-03-24T10:09:44Z</time>
      </trkpt>
      <trkpt lat="43.64024" lon="1.23328">
        <ele>199.593826</ele>
        <time>2013-03-24T10:09:45Z</time>
      </trkpt>
      <trkpt lat="43.64025" lon="1.23325">
        <ele>199.6362</ele>
        <time>2013-03-24T10:09:46Z</time>
      </trkpt>
      <trkpt lat="43.64025" lon="1.23322">
        <ele>199.673721</ele>
        <time>2013-03-24T10:09:47Z</time>
      </trkpt>
      <trkpt lat="43.64024" lon="1.23319">
        <ele>199.699997</ele>
        <time>2013-03-24T10:09:48Z</time>
      </trkpt>
      <trkpt lat="43.64024" lon="1.23315">
        <ele>199.699997</ele>
        <time>2013-03-24T10:09:49Z</time>
      </trkpt>
      <trkpt lat="43.64025" lon="1.23311">
        <ele>199.722504</ele>
        <time>2013-03-24T10:09:50Z</time>
      </trkpt>
      <trkpt lat="43.64027" lon="1.23308">
        <ele>199.75</ele>
        <time>2013-03-24T10:09:51Z</time>
      </trkpt>
      <trkpt lat="43.64027" lon="1.23303">
        <ele>199.755005</ele>
        <time>2013-03-24T10:09:52Z</time>
      </trkpt>
      <trkpt lat="43.64026" lon="1.23299">
        <ele>199.735001</ele>
        <time>2013-03-24T10:09:53Z</time>
      </trkpt>
      <trkpt lat="43.64025" lon="1.23296">
        <ele>199.717499</ele>
        <time>2013-03-24T10:09:54Z</time>
      </trkpt>
      <trkpt lat="43.64025" lon="1.23292">
        <ele>199.717499</ele>
        <time>2013-03-24T10:09:55Z</time>
      </trkpt>
      <trkpt lat="43.64025" lon="1.23287">
        <ele>199.727493</ele>
        <time>2013-03-24T10:09:56Z</time>
      </trkpt>
      <trkpt lat="43.64025" lon="1.23283">
        <ele>199.717499</ele>
        <time>2013-03-24T10:09:57Z</time>
      </trkpt>
      <trkpt lat="43.64024" lon="1.23278">
        <ele>199.707504</ele>
        <time>2013-03-24T10:09:58Z</time>
      </trkpt>
      <trkpt lat="43.64025" lon="1.23273">
        <ele>199.712494</ele>
        <time>2013-03-24T10:09:59Z</time>
      </trkpt>
      <trkpt lat="43.64025" lon="1.23268">
        <ele>199.714996</ele>
        <time>2013-03-24T10:10:00Z</time>
      </trkpt>
      <trkpt lat="43.64025" lon="1.23262">
        <ele>199.725006</ele>
        <time>2013-03-24T10:10:01Z</time>
      </trkpt>
      <trkpt lat="43.64035" lon="1.23215">
        <ele>199.985336</ele>
        <time>2013-03-24T10:10:10Z</time>
      </trkpt>
      <trkpt lat="43.64035" lon="1.23196">
        <ele>199.999893</ele>
        <time>2013-03-24T10:10:14Z</time>
      </trkpt>
      <trkpt lat="43.64026" lon="1.23175">
        <ele>200.250061</ele>
        <time>2013-03-24T10:10:18Z</time>
      </trkpt>
      <trkpt lat="43.64025" lon="1.2314">
        <ele>200.684952</ele>
        <time>2013-03-24T10:10:25Z</time>
      </trkpt>
      <trkpt lat="43.64028" lon="1.23135">
        <ele>200.790665</ele>
        <time>2013-03-24T10:10:26Z</time>
      </trkpt>
      <trkpt lat="43.6403" lon="1.23132">
        <ele>200.918747</ele>
        <time>2013-03-24T10:10:27Z</time>
      </trkpt>
      <trkpt lat="43.64033" lon="1.23129">
        <ele>201.074997</ele>
        <time>2013-03-24T10:10:28Z</time>
      </trkpt>
      <trkpt lat="43.64035" lon="1.23125">
        <ele>201.240005</ele>
        <time>2013-03-24T10:10:29Z</time>
      </trkpt>
      <trkpt lat="43.64037" lon="1.23121">
        <ele>201.4375</ele>
        <time>2013-03-24T10:10:30Z</time>
      </trkpt>
      <trkpt lat="43.64043" lon="1.23104">
        <ele>202.294998</ele>
        <time>2013-03-24T10:10:34Z</time>
      </trkpt>
      <trkpt lat="43.64064" lon="1.23068">
        <ele>204.279999</ele>
        <time>2013-03-24T10:10:45Z</time>
      </trkpt>
      <trkpt lat="43.64069" lon="1.23055">
        <ele>204.505005</ele>
        <time>2013-03-24T10:10:50Z</time>
      </trkpt>
      <trkpt lat="43.64069" lon="1.23053">
        <ele>204.5</ele>
        <time>2013-03-24T10:10:51Z</time>
      </trkpt>
      <trkpt lat="43.64069" lon="1.23051">
        <ele>204.494995</ele>
        <time>2013-03-24T10:10:52Z</time>
      </trkpt>
      <trkpt lat="43.64068" lon="1.2305">
        <ele>204.475006</ele>
        <time>2013-03-24T10:10:53Z</time>
      </trkpt>
      <trkpt lat="43.64067" lon="1.23049">
        <ele>204.414993</ele>
        <time>2013-03-24T10:10:54Z</time>
      </trkpt>
      <trkpt lat="43.64065" lon="1.23049">
        <ele>204.339996</ele>
        <time>2013-03-24T10:10:58Z</time>
      </trkpt>
      <trkpt lat="43.64066" lon="1.23051">
        <ele>204.360001</ele>
        <time>2013-03-24T10:10:59Z</time>
      </trkpt>
      <trkpt lat="43.64067" lon="1.23052">
        <ele>204.414993</ele>
        <time>2013-03-24T10:11:00Z</time>
      </trkpt>
      <trkpt lat="43.64069" lon="1.23052">
        <ele>204.479996</ele>
        <time>2013-03-24T10:11:01Z</time>
      </trkpt>
      <trkpt lat="43.6407" lon="1.2305">
        <ele>204.539993</ele>
        <time>2013-03-24T10:11:02Z</time>
      </trkpt>
      <trkpt lat="43.64071" lon="1.23048">
        <ele>204.589996</ele>
        <time>2013-03-24T10:11:03Z</time>
      </trkpt>
      <trkpt lat="43.64072" lon="1.23046">
        <ele>204.634995</ele>
        <time>2013-03-24T10:11:04Z</time>
      </trkpt>
      <trkpt lat="43.64073" lon="1.23044">
        <ele>204.669998</ele>
        <time>2013-03-24T10:11:05Z</time>
      </trkpt>
      <trkpt lat="43.64077" lon="1.23028">
        <ele>204.865005</ele>
        <time>2013-03-24T10:11:18Z</time>
      </trkpt>
      <trkpt lat="43.64077" lon="1.23028">
        <ele>204.854996</ele>
        <time>2013-03-24T10:11:59Z</time>
      </trkpt>
      <trkpt lat="43.64078" lon="1.23026">
        <ele>204.934998</ele>
        <time>2013-03-24T10:12:29Z</time>
      </trkpt>
      <trkpt lat="43.6408" lon="1.23025">
        <ele>205.003708</ele>
        <time>2013-03-24T10:12:30Z</time>
      </trkpt>
      <trkpt lat="43.64082" lon="1.23024">
        <ele>205.037399</ele>
        <time>2013-03-24T10:12:31Z</time>
      </trkpt>
      <trkpt lat="43.6409" lon="1.23023">
        <ele>205.176163</ele>
        <time>2013-03-24T10:12:35Z</time>
      </trkpt>
      <trkpt lat="43.64092" lon="1.2302">
        <ele>205.210434</ele>
        <time>2013-03-24T10:12:36Z</time>
      </trkpt>
      <trkpt lat="43.64092" lon="1.23018">
        <ele>205.23761</ele>
        <time>2013-03-24T10:12:37Z</time>
      </trkpt>
      <trkpt lat="43.64093" lon="1.23014">
        <ele>205.270538</ele>
        <time>2013-03-24T10:12:38Z</time>
      </trkpt>
      <trkpt lat="43.64094" lon="1.23011">
        <ele>205.311813</ele>
        <time>2013-03-24T10:12:39Z</time>
      </trkpt>
      <trkpt lat="43.64105" lon="1.22965">
        <ele>205.277237</ele>
        <time>2013-03-24T10:12:49Z</time>
      </trkpt>
      <trkpt lat="43.64118" lon="1.22927">
        <ele>205.75</ele>
        <time>2013-03-24T10:12:57Z</time>
      </trkpt>
      <trkpt lat="43.64121" lon="1.22924">
        <ele>205.884995</ele>
        <time>2013-03-24T10:12:58Z</time>
      </trkpt>
      <trkpt lat="43.64135" lon="1.22909">
        <ele>206</ele>
        <time>2013-03-24T10:13:02Z</time>
      </trkpt>
      <trkpt lat="43.64139" lon="1.22905">
        <ele>206</ele>
        <time>2013-03-24T10:13:03Z</time>
      </trkpt>
      <trkpt lat="43.64146" lon="1.22896">
        <ele>206</ele>
        <time>2013-03-24T10:13:05Z</time>
      </trkpt>
      <trkpt lat="43.6415" lon="1.22892">
        <ele>206</ele>
        <time>2013-03-24T10:13:06Z</time>
      </trkpt>
      <trkpt lat="43.64153" lon="1.22888">
        <ele>206</ele>
        <time>2013-03-24T10:13:07Z</time>
      </trkpt>
      <trkpt lat="43.64184" lon="1.2285">
        <ele>206</ele>
        <time>2013-03-24T10:13:14Z</time>
      </trkpt>
      <trkpt lat="43.64211" lon="1.22816">
        <ele>206</ele>
        <time>2013-03-24T10:13:20Z</time>
      </trkpt>
      <trkpt lat="43.64216" lon="1.2281">
        <ele>206</ele>
        <time>2013-03-24T10:13:21Z</time>
      </trkpt>
      <trkpt lat="43.64221" lon="1.22805">
        <ele>206</ele>
        <time>2013-03-24T10:13:22Z</time>
      </trkpt>
      <trkpt lat="43.64234" lon="1.2279">
        <ele>206</ele>
        <time>2013-03-24T10:13:25Z</time>
      </trkpt>
      <trkpt lat="43.64239" lon="1.22785">
        <ele>206</ele>
        <time>2013-03-24T10:13:26Z</time>
      </trkpt>
      <trkpt lat="43.6425" lon="1.22771">
        <ele>206</ele>
        <time>2013-03-24T10:13:29Z</time>
      </trkpt>
      <trkpt lat="43.64255" lon="1.22766">
        <ele>206</ele>
        <time>2013-03-24T10:13:30Z</time>
      </trkpt>
      <trkpt lat="43.64295" lon="1.22718">
        <ele>206.630005</ele>
        <time>2013-03-24T10:13:39Z</time>
      </trkpt>
      <trkpt lat="43.64334" lon="1.22674">
        <ele>207</ele>
        <time>2013-03-24T10:13:48Z</time>
      </trkpt>
      <trkpt lat="43.64346" lon="1.22659">
        <ele>206.987503</ele>
        <time>2013-03-24T10:13:51Z</time>
      </trkpt>
      <trkpt lat="43.6435" lon="1.22653">
        <ele>206.907501</ele>
        <time>2013-03-24T10:13:52Z</time>
      </trkpt>
      <trkpt lat="43.64357" lon="1.22643">
        <ele>206.75</ele>
        <time>2013-03-24T10:13:54Z</time>
      </trkpt>
      <trkpt lat="43.64372" lon="1.22626">
        <ele>206.402496</ele>
        <time>2013-03-24T10:13:58Z</time>
      </trkpt>
      <trkpt lat="43.64373" lon="1.2262">
        <ele>206.389999</ele>
        <time>2013-03-24T10:13:59Z</time>
      </trkpt>
      <trkpt lat="43.64371" lon="1.22615">
        <ele>206.427505</ele>
        <time>2013-03-24T10:14:00Z</time>
      </trkpt>
      <trkpt lat="43.64369" lon="1.22611">
        <ele>206.475006</ele>
        <time>2013-03-24T10:14:01Z</time>
      </trkpt>
      <trkpt lat="43.64366" lon="1.22606">
        <ele>206.532501</ele>
        <time>2013-03-24T10:14:02Z</time>
      </trkpt>
      <trkpt lat="43.6436" lon="1.22595">
        <ele>206.675003</ele>
        <time>2013-03-24T10:14:04Z</time>
      </trkpt>
      <trkpt lat="43.64327" lon="1.22537">
        <ele>207</ele>
        <time>2013-03-24T10:14:16Z</time>
      </trkpt>
      <trkpt lat="43.64322" lon="1.22529">
        <ele>207</ele>
        <time>2013-03-24T10:14:18Z</time>
      </trkpt>
      <trkpt lat="43.64319" lon="1.22525">
        <ele>207</ele>
        <time>2013-03-24T10:14:19Z</time>
      </trkpt>
      <trkpt lat="43.64302" lon="1.22496">
        <ele>207</ele>
        <time>2013-03-24T10:14:26Z</time>
      </trkpt>
      <trkpt lat="43.64293" lon="1.22477">
        <ele>207</ele>
        <time>2013-03-24T10:14:30Z</time>
      </trkpt>
      <trkpt lat="43.64293" lon="1.22472">
        <ele>207</ele>
        <time>2013-03-24T10:14:31Z</time>
      </trkpt>
      <trkpt lat="43.64295" lon="1.22467">
        <ele>207</ele>
        <time>2013-03-24T10:14:32Z</time>
      </trkpt>
      <trkpt lat="43.64297" lon="1.22462">
        <ele>207</ele>
        <time>2013-03-24T10:14:33Z</time>
      </trkpt>
      <trkpt lat="43.64299" lon="1.22457">
        <ele>207</ele>
        <time>2013-03-24T10:14:34Z</time>
      </trkpt>
      <trkpt lat="43.64302" lon="1.22453">
        <ele>207</ele>
        <time>2013-03-24T10:14:35Z</time>
      </trkpt>
      <trkpt lat="43.64306" lon="1.22449">
        <ele>207</ele>
        <time>2013-03-24T10:14:36Z</time>
      </trkpt>
      <trkpt lat="43.64309" lon="1.22444">
        <ele>207</ele>
        <time>2013-03-24T10:14:37Z</time>
      </trkpt>
      <trkpt lat="43.64311" lon="1.22439">
        <ele>207</ele>
        <time>2013-03-24T10:14:38Z</time>
      </trkpt>
      <trkpt lat="43.64311" lon="1.22434">
        <ele>207</ele>
        <time>2013-03-24T10:14:39Z</time>
      </trkpt>
      <trkpt lat="43.6431" lon="1.22428">
        <ele>207</ele>
        <time>2013-03-24T10:14:40Z</time>
      </trkpt>
      <trkpt lat="43.64308" lon="1.22424">
        <ele>207</ele>
        <time>2013-03-24T10:14:41Z</time>
      </trkpt>
      <trkpt lat="43.64272" lon="1.22363">
        <ele>207.210815</ele>
        <time>2013-03-24T10:14:54Z</time>
      </trkpt>
      <trkpt lat="43.64234" lon="1.223">
        <ele>208</ele>
        <time>2013-03-24T10:15:06Z</time>
      </trkpt>
      <trkpt lat="43.64216" lon="1.2227">
        <ele>208</ele>
        <time>2013-03-24T10:15:12Z</time>
      </trkpt>
      <trkpt lat="43.64212" lon="1.22265">
        <ele>208</ele>
        <time>2013-03-24T10:15:13Z</time>
      </trkpt>
      <trkpt lat="43.64209" lon="1.2226">
        <ele>208.058899</ele>
        <time>2013-03-24T10:15:14Z</time>
      </trkpt>
      <trkpt lat="43.64207" lon="1.22254">
        <ele>208.15062</ele>
        <time>2013-03-24T10:15:15Z</time>
      </trkpt>
      <trkpt lat="43.64203" lon="1.22249">
        <ele>208.235626</ele>
        <time>2013-03-24T10:15:16Z</time>
      </trkpt>
      <trkpt lat="43.64173" lon="1.222">
        <ele>209.034225</ele>
        <time>2013-03-24T10:15:28Z</time>
      </trkpt>
      <trkpt lat="43.64171" lon="1.22196">
        <ele>209.080399</ele>
        <time>2013-03-24T10:15:29Z</time>
      </trkpt>
      <trkpt lat="43.64171" lon="1.22192">
        <ele>209.133453</ele>
        <time>2013-03-24T10:15:30Z</time>
      </trkpt>
      <trkpt lat="43.64171" lon="1.22188">
        <ele>209.180374</ele>
        <time>2013-03-24T10:15:31Z</time>
      </trkpt>
      <trkpt lat="43.64171" lon="1.22185">
        <ele>209.220398</ele>
        <time>2013-03-24T10:15:32Z</time>
      </trkpt>
      <trkpt lat="43.64172" lon="1.22182">
        <ele>209.256638</ele>
        <time>2013-03-24T10:15:33Z</time>
      </trkpt>
      <trkpt lat="43.64172" lon="1.22179">
        <ele>209.29071</ele>
        <time>2013-03-24T10:15:34Z</time>
      </trkpt>
      <trkpt lat="43.64172" lon="1.22176">
        <ele>209.323242</ele>
        <time>2013-03-24T10:15:35Z</time>
      </trkpt>
      <trkpt lat="43.64172" lon="1.22173">
        <ele>209.356033</ele>
        <time>2013-03-24T10:15:36Z</time>
      </trkpt>
      <trkpt lat="43.64172" lon="1.22171">
        <ele>209.395416</ele>
        <time>2013-03-24T10:15:37Z</time>
      </trkpt>
      <trkpt lat="43.64171" lon="1.22168">
        <ele>209.445435</ele>
        <time>2013-03-24T10:15:38Z</time>
      </trkpt>
      <trkpt lat="43.64163" lon="1.22138">
        <ele>209.986252</ele>
        <time>2013-03-24T10:15:47Z</time>
      </trkpt>
      <trkpt lat="43.64163" lon="1.22135">
        <ele>210.032501</ele>
        <time>2013-03-24T10:15:48Z</time>
      </trkpt>
      <trkpt lat="43.64163" lon="1.22132">
        <ele>210.095001</ele>
        <time>2013-03-24T10:15:49Z</time>
      </trkpt>
      <trkpt lat="43.64163" lon="1.22127">
        <ele>210.173752</ele>
        <time>2013-03-24T10:15:50Z</time>
      </trkpt>
      <trkpt lat="43.64162" lon="1.22122">
        <ele>210.259384</ele>
        <time>2013-03-24T10:15:51Z</time>
      </trkpt>
      <trkpt lat="43.64163" lon="1.22117">
        <ele>210.325623</ele>
        <time>2013-03-24T10:15:52Z</time>
      </trkpt>
      <trkpt lat="43.64164" lon="1.22112">
        <ele>210.381256</ele>
        <time>2013-03-24T10:15:53Z</time>
      </trkpt>
      <trkpt lat="43.64165" lon="1.22107">
        <ele>210.429993</ele>
        <time>2013-03-24T10:15:54Z</time>
      </trkpt>
      <trkpt lat="43.64166" lon="1.22104">
        <ele>210.473755</ele>
        <time>2013-03-24T10:15:55Z</time>
      </trkpt>
      <trkpt lat="43.64167" lon="1.22099">
        <ele>210.52562</ele>
        <time>2013-03-24T10:15:56Z</time>
      </trkpt>
      <trkpt lat="43.64168" lon="1.22095">
        <ele>210.573746</ele>
        <time>2013-03-24T10:15:57Z</time>
      </trkpt>
      <trkpt lat="43.64169" lon="1.2209">
        <ele>210.622498</ele>
        <time>2013-03-24T10:15:58Z</time>
      </trkpt>
      <trkpt lat="43.64171" lon="1.22052">
        <ele>211.178116</ele>
        <time>2013-03-24T10:16:06Z</time>
      </trkpt>
      <trkpt lat="43.6417" lon="1.22047">
        <ele>211.277496</ele>
        <time>2013-03-24T10:16:07Z</time>
      </trkpt>
      <trkpt lat="43.6417" lon="1.22042">
        <ele>211.365005</ele>
        <time>2013-03-24T10:16:08Z</time>
      </trkpt>
      <trkpt lat="43.64157" lon="1.21995">
        <ele>212.708755</ele>
        <time>2013-03-24T10:16:17Z</time>
      </trkpt>
      <trkpt lat="43.64143" lon="1.21965">
        <ele>213.708755</ele>
        <time>2013-03-24T10:16:23Z</time>
      </trkpt>
      <trkpt lat="43.6414" lon="1.21959">
        <ele>213.882507</ele>
        <time>2013-03-24T10:16:24Z</time>
      </trkpt>
      <trkpt lat="43.64138" lon="1.21954">
        <ele>214.048752</ele>
        <time>2013-03-24T10:16:25Z</time>
      </trkpt>
      <trkpt lat="43.64136" lon="1.21949">
        <ele>214.227493</ele>
        <time>2013-03-24T10:16:26Z</time>
      </trkpt>
      <trkpt lat="43.64133" lon="1.21944">
        <ele>214.375</ele>
        <time>2013-03-24T10:16:27Z</time>
      </trkpt>
      <trkpt lat="43.6413" lon="1.2194">
        <ele>214.522507</ele>
        <time>2013-03-24T10:16:28Z</time>
      </trkpt>
      <trkpt lat="43.64128" lon="1.21935">
        <ele>214.678757</ele>
        <time>2013-03-24T10:16:29Z</time>
      </trkpt>
      <trkpt lat="43.64125" lon="1.2193">
        <ele>214.845001</ele>
        <time>2013-03-24T10:16:30Z</time>
      </trkpt>
      <trkpt lat="43.64122" lon="1.21925">
        <ele>215.008743</ele>
        <time>2013-03-24T10:16:31Z</time>
      </trkpt>
      <trkpt lat="43.64119" lon="1.2192">
        <ele>215.162506</ele>
        <time>2013-03-24T10:16:32Z</time>
      </trkpt>
      <trkpt lat="43.64118" lon="1.21916">
        <ele>215.308746</ele>
        <time>2013-03-24T10:16:33Z</time>
      </trkpt>
      <trkpt lat="43.64116" lon="1.21911">
        <ele>215.471252</ele>
        <time>2013-03-24T10:16:34Z</time>
      </trkpt>
      <trkpt lat="43.64107" lon="1.21891">
        <ele>216.082504</ele>
        <time>2013-03-24T10:16:39Z</time>
      </trkpt>
      <trkpt lat="43.64105" lon="1.21887">
        <ele>216.302505</ele>
        <time>2013-03-24T10:16:40Z</time>
      </trkpt>
      <trkpt lat="43.64085" lon="1.21832">
        <ele>219.438751</ele>
        <time>2013-03-24T10:16:53Z</time>
      </trkpt>
      <trkpt lat="43.64082" lon="1.21787">
        <ele>220.815002</ele>
        <time>2013-03-24T10:17:04Z</time>
      </trkpt>
      <trkpt lat="43.6408" lon="1.21764">
        <ele>221.656876</ele>
        <time>2013-03-24T10:17:10Z</time>
      </trkpt>
      <trkpt lat="43.64079" lon="1.2176">
        <ele>221.781876</ele>
        <time>2013-03-24T10:17:11Z</time>
      </trkpt>
      <trkpt lat="43.64077" lon="1.21758">
        <ele>221.852493</ele>
        <time>2013-03-24T10:17:12Z</time>
      </trkpt>
      <trkpt lat="43.64049" lon="1.21733">
        <ele>221.823425</ele>
        <time>2013-03-24T10:17:23Z</time>
      </trkpt>
      <trkpt lat="43.6402" lon="1.21707">
        <ele>221.016251</ele>
        <time>2013-03-24T10:17:31Z</time>
      </trkpt>
      <trkpt lat="43.63995" lon="1.21687">
        <ele>220.011246</ele>
        <time>2013-03-24T10:17:38Z</time>
      </trkpt>
      <trkpt lat="43.63987" lon="1.21679">
        <ele>219.748749</ele>
        <time>2013-03-24T10:17:40Z</time>
      </trkpt>
      <trkpt lat="43.63983" lon="1.21674">
        <ele>219.651245</ele>
        <time>2013-03-24T10:17:41Z</time>
      </trkpt>
      <trkpt lat="43.63979" lon="1.21671">
        <ele>219.513748</ele>
        <time>2013-03-24T10:17:42Z</time>
      </trkpt>
      <trkpt lat="43.63959" lon="1.21654">
        <ele>219.165329</ele>
        <time>2013-03-24T10:17:46Z</time>
      </trkpt>
      <trkpt lat="43.63953" lon="1.2165">
        <ele>218.959457</ele>
        <time>2013-03-24T10:17:47Z</time>
      </trkpt>
      <trkpt lat="43.63937" lon="1.21637">
        <ele>218.498123</ele>
        <time>2013-03-24T10:17:50Z</time>
      </trkpt>
      <trkpt lat="43.63932" lon="1.21632">
        <ele>218.342499</ele>
        <time>2013-03-24T10:17:51Z</time>
      </trkpt>
      <trkpt lat="43.63925" lon="1.21627">
        <ele>218.402466</ele>
        <time>2013-03-24T10:17:52Z</time>
      </trkpt>
      <trkpt lat="43.63891" lon="1.21598">
        <ele>218.234985</ele>
        <time>2013-03-24T10:17:58Z</time>
      </trkpt>
      <trkpt lat="43.63887" lon="1.21592">
        <ele>218.072983</ele>
        <time>2013-03-24T10:17:59Z</time>
      </trkpt>
      <trkpt lat="43.63883" lon="1.21586">
        <ele>218.102493</ele>
        <time>2013-03-24T10:18:00Z</time>
      </trkpt>
      <trkpt lat="43.63879" lon="1.2158">
        <ele>218.30188</ele>
        <time>2013-03-24T10:18:01Z</time>
      </trkpt>
      <trkpt lat="43.63874" lon="1.21574">
        <ele>218.539551</ele>
        <time>2013-03-24T10:18:02Z</time>
      </trkpt>
      <trkpt lat="43.6387" lon="1.21569">
        <ele>218.803421</ele>
        <time>2013-03-24T10:18:03Z</time>
      </trkpt>
      <trkpt lat="43.63866" lon="1.21567">
        <ele>219.019913</ele>
        <time>2013-03-24T10:18:04Z</time>
      </trkpt>
      <trkpt lat="43.63863" lon="1.21565">
        <ele>219.179367</ele>
        <time>2013-03-24T10:18:05Z</time>
      </trkpt>
      <trkpt lat="43.63859" lon="1.21561">
        <ele>219.447083</ele>
        <time>2013-03-24T10:18:07Z</time>
      </trkpt>
      <trkpt lat="43.63857" lon="1.21559">
        <ele>219.538345</ele>
        <time>2013-03-24T10:18:08Z</time>
      </trkpt>
      <trkpt lat="43.63848" lon="1.2155">
        <ele>220.151093</ele>
        <time>2013-03-24T10:18:19Z</time>
      </trkpt>
      <trkpt lat="43.63847" lon="1.2155">
        <ele>220.223038</ele>
        <time>2013-03-24T10:18:20Z</time>
      </trkpt>
      <trkpt lat="43.63842" lon="1.21545">
        <ele>220.605087</ele>
        <time>2013-03-24T10:18:29Z</time>
      </trkpt>
      <trkpt lat="43.63841" lon="1.21542">
        <ele>220.729691</ele>
        <time>2013-03-24T10:18:30Z</time>
      </trkpt>
      <trkpt lat="43.63839" lon="1.2154">
        <ele>220.872574</ele>
        <time>2013-03-24T10:18:31Z</time>
      </trkpt>
      <trkpt lat="43.6383" lon="1.21533">
        <ele>221.625534</ele>
        <time>2013-03-24T10:18:35Z</time>
      </trkpt>
      <trkpt lat="43.63803" lon="1.21497">
        <ele>222.883743</ele>
        <time>2013-03-24T10:18:44Z</time>
      </trkpt>
      <trkpt lat="43.63801" lon="1.21493">
        <ele>223.019379</ele>
        <time>2013-03-24T10:18:45Z</time>
      </trkpt>
      <trkpt lat="43.63797" lon="1.21491">
        <ele>223.180618</ele>
        <time>2013-03-24T10:18:46Z</time>
      </trkpt>
      <trkpt lat="43.63794" lon="1.21488">
        <ele>223.364746</ele>
        <time>2013-03-24T10:18:47Z</time>
      </trkpt>
      <trkpt lat="43.6379" lon="1.21486">
        <ele>223.538452</ele>
        <time>2013-03-24T10:18:48Z</time>
      </trkpt>
      <trkpt lat="43.63787" lon="1.21484">
        <ele>223.728394</ele>
        <time>2013-03-24T10:18:49Z</time>
      </trkpt>
      <trkpt lat="43.63783" lon="1.21482">
        <ele>223.916519</ele>
        <time>2013-03-24T10:18:50Z</time>
      </trkpt>
      <trkpt lat="43.6378" lon="1.2148">
        <ele>224.119095</ele>
        <time>2013-03-24T10:18:51Z</time>
      </trkpt>
      <trkpt lat="43.63776" lon="1.21478">
        <ele>224.335907</ele>
        <time>2013-03-24T10:18:52Z</time>
      </trkpt>
      <trkpt lat="43.63773" lon="1.21475">
        <ele>224.512192</ele>
        <time>2013-03-24T10:18:53Z</time>
      </trkpt>
      <trkpt lat="43.63747" lon="1.2145">
        <ele>225.552887</ele>
        <time>2013-03-24T10:19:02Z</time>
      </trkpt>
      <trkpt lat="43.63736" lon="1.21404">
        <ele>224.718414</ele>
        <time>2013-03-24T10:19:11Z</time>
      </trkpt>
      <trkpt lat="43.6373" lon="1.21385">
        <ele>224.287292</ele>
        <time>2013-03-24T10:19:14Z</time>
      </trkpt>
      <trkpt lat="43.63728" lon="1.21379">
        <ele>224.210205</ele>
        <time>2013-03-24T10:19:15Z</time>
      </trkpt>
      <trkpt lat="43.63726" lon="1.21373">
        <ele>224.112991</ele>
        <time>2013-03-24T10:19:16Z</time>
      </trkpt>
      <trkpt lat="43.63725" lon="1.21367">
        <ele>223.973984</ele>
        <time>2013-03-24T10:19:17Z</time>
      </trkpt>
      <trkpt lat="43.63723" lon="1.21361">
        <ele>223.877258</ele>
        <time>2013-03-24T10:19:18Z</time>
      </trkpt>
      <trkpt lat="43.63721" lon="1.21356">
        <ele>223.835556</ele>
        <time>2013-03-24T10:19:19Z</time>
      </trkpt>
      <trkpt lat="43.63719" lon="1.21351">
        <ele>223.84668</ele>
        <time>2013-03-24T10:19:20Z</time>
      </trkpt>
      <trkpt lat="43.63716" lon="1.21346">
        <ele>223.891418</ele>
        <time>2013-03-24T10:19:21Z</time>
      </trkpt>
      <trkpt lat="43.63713" lon="1.21342">
        <ele>223.989685</ele>
        <time>2013-03-24T10:19:22Z</time>
      </trkpt>
      <trkpt lat="43.63696" lon="1.21324">
        <ele>224.433746</ele>
        <time>2013-03-24T10:19:27Z</time>
      </trkpt>
      <trkpt lat="43.63692" lon="1.21321">
        <ele>224.493744</ele>
        <time>2013-03-24T10:19:28Z</time>
      </trkpt>
      <trkpt lat="43.6369" lon="1.21318">
        <ele>224.542496</ele>
        <time>2013-03-24T10:19:29Z</time>
      </trkpt>
      <trkpt lat="43.63688" lon="1.21317">
        <ele>224.60437</ele>
        <time>2013-03-24T10:19:30Z</time>
      </trkpt>
      <trkpt lat="43.63686" lon="1.21315">
        <ele>224.668121</ele>
        <time>2013-03-24T10:19:31Z</time>
      </trkpt>
      <trkpt lat="43.63683" lon="1.21314">
        <ele>224.750626</ele>
        <time>2013-03-24T10:19:32Z</time>
      </trkpt>
      <trkpt lat="43.63656" lon="1.21282">
        <ele>224.861282</ele>
        <time>2013-03-24T10:19:42Z</time>
      </trkpt>
      <trkpt lat="43.63654" lon="1.21272">
        <ele>224.301727</ele>
        <time>2013-03-24T10:19:44Z</time>
      </trkpt>
      <trkpt lat="43.63654" lon="1.21268">
        <ele>224.036301</ele>
        <time>2013-03-24T10:19:45Z</time>
      </trkpt>
      <trkpt lat="43.63653" lon="1.21263">
        <ele>223.757538</ele>
        <time>2013-03-24T10:19:46Z</time>
      </trkpt>
      <trkpt lat="43.63651" lon="1.21258">
        <ele>223.486526</ele>
        <time>2013-03-24T10:19:47Z</time>
      </trkpt>
      <trkpt lat="43.63649" lon="1.21254">
        <ele>223.278519</ele>
        <time>2013-03-24T10:19:48Z</time>
      </trkpt>
      <trkpt lat="43.63645" lon="1.2125">
        <ele>223.184296</ele>
        <time>2013-03-24T10:19:49Z</time>
      </trkpt>
      <trkpt lat="43.6364" lon="1.21248">
        <ele>223.215317</ele>
        <time>2013-03-24T10:19:50Z</time>
      </trkpt>
      <trkpt lat="43.63635" lon="1.21246">
        <ele>223.280899</ele>
        <time>2013-03-24T10:19:51Z</time>
      </trkpt>
      <trkpt lat="43.6363" lon="1.21244">
        <ele>223.368866</ele>
        <time>2013-03-24T10:19:52Z</time>
      </trkpt>
      <trkpt lat="43.63625" lon="1.21244">
        <ele>223.499405</ele>
        <time>2013-03-24T10:19:53Z</time>
      </trkpt>
      <trkpt lat="43.63597" lon="1.21234">
        <ele>224.138855</ele>
        <time>2013-03-24T10:20:01Z</time>
      </trkpt>
      <trkpt lat="43.63576" lon="1.2124">
        <ele>225.176346</ele>
        <time>2013-03-24T10:20:08Z</time>
      </trkpt>
      <trkpt lat="43.6357" lon="1.21242">
        <ele>225.4366</ele>
        <time>2013-03-24T10:20:11Z</time>
      </trkpt>
      <trkpt lat="43.63554" lon="1.21232">
        <ele>225.204605</ele>
        <time>2013-03-24T10:20:18Z</time>
      </trkpt>
      <trkpt lat="43.63525" lon="1.21244">
        <ele>225.318924</ele>
        <time>2013-03-24T10:20:29Z</time>
      </trkpt>
      <trkpt lat="43.63496" lon="1.21268">
        <ele>225.68187</ele>
        <time>2013-03-24T10:20:41Z</time>
      </trkpt>
      <trkpt lat="43.63485" lon="1.21274">
        <ele>225.778748</ele>
        <time>2013-03-24T10:20:45Z</time>
      </trkpt>
      <trkpt lat="43.63478" lon="1.21295">
        <ele>226.11438</ele>
        <time>2013-03-24T10:20:51Z</time>
      </trkpt>
      <trkpt lat="43.63459" lon="1.21357">
        <ele>227</ele>
        <time>2013-03-24T10:21:04Z</time>
      </trkpt>
      <trkpt lat="43.63451" lon="1.21403">
        <ele>227</ele>
        <time>2013-03-24T10:21:12Z</time>
      </trkpt>
      <trkpt lat="43.63432" lon="1.21463">
        <ele>227</ele>
        <time>2013-03-24T10:21:23Z</time>
      </trkpt>
      <trkpt lat="43.63423" lon="1.21479">
        <ele>227.076874</ele>
        <time>2013-03-24T10:21:26Z</time>
      </trkpt>
      <trkpt lat="43.63422" lon="1.21484">
        <ele>227.158752</ele>
        <time>2013-03-24T10:21:27Z</time>
      </trkpt>
      <trkpt lat="43.6342" lon="1.2149">
        <ele>227.243744</ele>
        <time>2013-03-24T10:21:28Z</time>
      </trkpt>
      <trkpt lat="43.63416" lon="1.21501">
        <ele>227.42688</ele>
        <time>2013-03-24T10:21:30Z</time>
      </trkpt>
      <trkpt lat="43.63405" lon="1.21538">
        <ele>228</ele>
        <time>2013-03-24T10:21:37Z</time>
      </trkpt>
      <trkpt lat="43.63401" lon="1.21541">
        <ele>228</ele>
        <time>2013-03-24T10:21:38Z</time>
      </trkpt>
      <trkpt lat="43.63397" lon="1.2154">
        <ele>228</ele>
        <time>2013-03-24T10:21:39Z</time>
      </trkpt>
      <trkpt lat="43.63394" lon="1.21538">
        <ele>228</ele>
        <time>2013-03-24T10:21:40Z</time>
      </trkpt>
      <trkpt lat="43.6339" lon="1.21537">
        <ele>227.992523</ele>
        <time>2013-03-24T10:21:41Z</time>
      </trkpt>
      <trkpt lat="43.63387" lon="1.21535">
        <ele>227.967804</ele>
        <time>2013-03-24T10:21:42Z</time>
      </trkpt>
      <trkpt lat="43.63383" lon="1.21533">
        <ele>227.943665</ele>
        <time>2013-03-24T10:21:43Z</time>
      </trkpt>
      <trkpt lat="43.6338" lon="1.21531">
        <ele>227.918716</ele>
        <time>2013-03-24T10:21:44Z</time>
      </trkpt>
      <trkpt lat="43.63377" lon="1.21527">
        <ele>227.88707</ele>
        <time>2013-03-24T10:21:45Z</time>
      </trkpt>
      <trkpt lat="43.63366" lon="1.21519">
        <ele>227.859161</ele>
        <time>2013-03-24T10:21:48Z</time>
      </trkpt>
      <trkpt lat="43.63362" lon="1.21516">
        <ele>227.867554</ele>
        <time>2013-03-24T10:21:49Z</time>
      </trkpt>
      <trkpt lat="43.63344" lon="1.21501">
        <ele>228</ele>
        <time>2013-03-24T10:21:58Z</time>
      </trkpt>
      <trkpt lat="43.63318" lon="1.21479">
        <ele>228</ele>
        <time>2013-03-24T10:22:07Z</time>
      </trkpt>
      <trkpt lat="43.63302" lon="1.21466">
        <ele>227.992218</ele>
        <time>2013-03-24T10:22:11Z</time>
      </trkpt>
      <trkpt lat="43.63275" lon="1.21443">
        <ele>228.550003</ele>
        <time>2013-03-24T10:22:18Z</time>
      </trkpt>
      <trkpt lat="43.63264" lon="1.21432">
        <ele>228.785004</ele>
        <time>2013-03-24T10:22:21Z</time>
      </trkpt>
      <trkpt lat="43.63223" lon="1.21399">
        <ele>229</ele>
        <time>2013-03-24T10:22:32Z</time>
      </trkpt>
      <trkpt lat="43.63219" lon="1.21396">
        <ele>229</ele>
        <time>2013-03-24T10:22:33Z</time>
      </trkpt>
      <trkpt lat="43.63215" lon="1.21393">
        <ele>229</ele>
        <time>2013-03-24T10:22:34Z</time>
      </trkpt>
      <trkpt lat="43.63212" lon="1.2139">
        <ele>229</ele>
        <time>2013-03-24T10:22:35Z</time>
      </trkpt>
      <trkpt lat="43.63208" lon="1.21387">
        <ele>229.017502</ele>
        <time>2013-03-24T10:22:36Z</time>
      </trkpt>
      <trkpt lat="43.63205" lon="1.21384">
        <ele>229.097504</ele>
        <time>2013-03-24T10:22:37Z</time>
      </trkpt>
      <trkpt lat="43.63201" lon="1.21381">
        <ele>229.182495</ele>
        <time>2013-03-24T10:22:38Z</time>
      </trkpt>
      <trkpt lat="43.63197" lon="1.21377">
        <ele>229.264999</ele>
        <time>2013-03-24T10:22:39Z</time>
      </trkpt>
      <trkpt lat="43.63186" lon="1.21368">
        <ele>229.512497</ele>
        <time>2013-03-24T10:22:42Z</time>
      </trkpt>
      <trkpt lat="43.63182" lon="1.21365">
        <ele>229.592499</ele>
        <time>2013-03-24T10:22:43Z</time>
      </trkpt>
      <trkpt lat="43.63179" lon="1.21362">
        <ele>229.672501</ele>
        <time>2013-03-24T10:22:44Z</time>
      </trkpt>
      <trkpt lat="43.63175" lon="1.21359">
        <ele>229.757507</ele>
        <time>2013-03-24T10:22:45Z</time>
      </trkpt>
      <trkpt lat="43.63171" lon="1.21356">
        <ele>229.839996</ele>
        <time>2013-03-24T10:22:46Z</time>
      </trkpt>
      <trkpt lat="43.63141" lon="1.2133">
        <ele>230</ele>
        <time>2013-03-24T10:22:54Z</time>
      </trkpt>
      <trkpt lat="43.63137" lon="1.21327">
        <ele>230</ele>
        <time>2013-03-24T10:22:55Z</time>
      </trkpt>
      <trkpt lat="43.6311" lon="1.21303">
        <ele>230.192505</ele>
        <time>2013-03-24T10:23:06Z</time>
      </trkpt>
      <trkpt lat="43.63072" lon="1.21273">
        <ele>231.018738</ele>
        <time>2013-03-24T10:23:18Z</time>
      </trkpt>
      <trkpt lat="43.63048" lon="1.21252">
        <ele>231.153656</ele>
        <time>2013-03-24T10:23:28Z</time>
      </trkpt>
      <trkpt lat="43.63046" lon="1.2125">
        <ele>231.149628</ele>
        <time>2013-03-24T10:23:29Z</time>
      </trkpt>
      <trkpt lat="43.63044" lon="1.21249">
        <ele>231.145935</ele>
        <time>2013-03-24T10:23:30Z</time>
      </trkpt>
      <trkpt lat="43.63041" lon="1.21248">
        <ele>231.153885</ele>
        <time>2013-03-24T10:23:31Z</time>
      </trkpt>
      <trkpt lat="43.63039" lon="1.2125">
        <ele>231.179138</ele>
        <time>2013-03-24T10:23:32Z</time>
      </trkpt>
      <trkpt lat="43.63038" lon="1.21252">
        <ele>231.215759</ele>
        <time>2013-03-24T10:23:33Z</time>
      </trkpt>
      <trkpt lat="43.63036" lon="1.21254">
        <ele>231.253128</ele>
        <time>2013-03-24T10:23:34Z</time>
      </trkpt>
      <trkpt lat="43.63035" lon="1.21257">
        <ele>231.29657</ele>
        <time>2013-03-24T10:23:35Z</time>
      </trkpt>
      <trkpt lat="43.63034" lon="1.21259">
        <ele>231.338791</ele>
        <time>2013-03-24T10:23:36Z</time>
      </trkpt>
      <trkpt lat="43.63034" lon="1.21262">
        <ele>231.381165</ele>
        <time>2013-03-24T10:23:37Z</time>
      </trkpt>
      <trkpt lat="43.63033" lon="1.21264">
        <ele>231.425125</ele>
        <time>2013-03-24T10:23:38Z</time>
      </trkpt>
      <trkpt lat="43.63015" lon="1.2131">
        <ele>232.064285</ele>
        <time>2013-03-24T10:23:50Z</time>
      </trkpt>
      <trkpt lat="43.62994" lon="1.21353">
        <ele>232.704926</ele>
        <time>2013-03-24T10:24:01Z</time>
      </trkpt>
      <trkpt lat="43.62972" lon="1.21404">
        <ele>232.483841</ele>
        <time>2013-03-24T10:24:12Z</time>
      </trkpt>
      <trkpt lat="43.62941" lon="1.21473">
        <ele>232.182526</ele>
        <time>2013-03-24T10:24:24Z</time>
      </trkpt>
      <trkpt lat="43.62937" lon="1.21476">
        <ele>232.13562</ele>
        <time>2013-03-24T10:24:25Z</time>
      </trkpt>
      <trkpt lat="43.62935" lon="1.21479">
        <ele>232.080002</ele>
        <time>2013-03-24T10:24:26Z</time>
      </trkpt>
      <trkpt lat="43.62935" lon="1.21484">
        <ele>232.000626</ele>
        <time>2013-03-24T10:24:27Z</time>
      </trkpt>
      <trkpt lat="43.62935" lon="1.21489">
        <ele>231.836456</ele>
        <time>2013-03-24T10:24:28Z</time>
      </trkpt>
      <trkpt lat="43.62933" lon="1.21494">
        <ele>231.668289</ele>
        <time>2013-03-24T10:24:29Z</time>
      </trkpt>
      <trkpt lat="43.62931" lon="1.21499">
        <ele>231.469421</ele>
        <time>2013-03-24T10:24:30Z</time>
      </trkpt>
      <trkpt lat="43.62898" lon="1.21575">
        <ele>228.558197</ele>
        <time>2013-03-24T10:24:42Z</time>
      </trkpt>
      <trkpt lat="43.6289" lon="1.21597">
        <ele>228.620651</ele>
        <time>2013-03-24T10:24:45Z</time>
      </trkpt>
      <trkpt lat="43.62887" lon="1.21603">
        <ele>228.743301</ele>
        <time>2013-03-24T10:24:46Z</time>
      </trkpt>
      <trkpt lat="43.62868" lon="1.21651">
        <ele>228.171982</ele>
        <time>2013-03-24T10:24:54Z</time>
      </trkpt>
      <trkpt lat="43.62865" lon="1.21656">
        <ele>228.076004</ele>
        <time>2013-03-24T10:24:55Z</time>
      </trkpt>
      <trkpt lat="43.62852" lon="1.21685">
        <ele>227.348755</ele>
        <time>2013-03-24T10:25:00Z</time>
      </trkpt>
      <trkpt lat="43.62849" lon="1.21691">
        <ele>227.125626</ele>
        <time>2013-03-24T10:25:01Z</time>
      </trkpt>
      <trkpt lat="43.62847" lon="1.21697">
        <ele>226.884995</ele>
        <time>2013-03-24T10:25:02Z</time>
      </trkpt>
      <trkpt lat="43.62841" lon="1.21709">
        <ele>226.430618</ele>
        <time>2013-03-24T10:25:04Z</time>
      </trkpt>
      <trkpt lat="43.62837" lon="1.21712">
        <ele>226.389999</ele>
        <time>2013-03-24T10:25:05Z</time>
      </trkpt>
      <trkpt lat="43.62832" lon="1.21712">
        <ele>226.501251</ele>
        <time>2013-03-24T10:25:06Z</time>
      </trkpt>
      <trkpt lat="43.62827" lon="1.2171">
        <ele>226.715622</ele>
        <time>2013-03-24T10:25:07Z</time>
      </trkpt>
      <trkpt lat="43.62822" lon="1.21707">
        <ele>226.972504</ele>
        <time>2013-03-24T10:25:08Z</time>
      </trkpt>
      <trkpt lat="43.62794" lon="1.21686">
        <ele>228.278992</ele>
        <time>2013-03-24T10:25:15Z</time>
      </trkpt>
      <trkpt lat="43.62779" lon="1.21675">
        <ele>228.88414</ele>
        <time>2013-03-24T10:25:19Z</time>
      </trkpt>
      <trkpt lat="43.62756" lon="1.21657">
        <ele>229.49437</ele>
        <time>2013-03-24T10:25:25Z</time>
      </trkpt>
      <trkpt lat="43.62732" lon="1.21637">
        <ele>229.442505</ele>
        <time>2013-03-24T10:25:31Z</time>
      </trkpt>
      <trkpt lat="43.62728" lon="1.21634">
        <ele>229.401245</ele>
        <time>2013-03-24T10:25:32Z</time>
      </trkpt>
      <trkpt lat="43.62724" lon="1.21631">
        <ele>229.381866</ele>
        <time>2013-03-24T10:25:33Z</time>
      </trkpt>
      <trkpt lat="43.62708" lon="1.21619">
        <ele>229.04187</ele>
        <time>2013-03-24T10:25:37Z</time>
      </trkpt>
      <trkpt lat="43.62704" lon="1.21616">
        <ele>228.946243</ele>
        <time>2013-03-24T10:25:38Z</time>
      </trkpt>
      <trkpt lat="43.627" lon="1.21612">
        <ele>228.850906</ele>
        <time>2013-03-24T10:25:39Z</time>
      </trkpt>
      <trkpt lat="43.62696" lon="1.21609">
        <ele>228.738205</ele>
        <time>2013-03-24T10:25:40Z</time>
      </trkpt>
      <trkpt lat="43.62692" lon="1.21607">
        <ele>228.585709</ele>
        <time>2013-03-24T10:25:41Z</time>
      </trkpt>
      <trkpt lat="43.62688" lon="1.21604">
        <ele>228.442535</ele>
        <time>2013-03-24T10:25:42Z</time>
      </trkpt>
      <trkpt lat="43.62683" lon="1.216">
        <ele>228.316986</ele>
        <time>2013-03-24T10:25:43Z</time>
      </trkpt>
      <trkpt lat="43.62649" lon="1.2157">
        <ele>227.560623</ele>
        <time>2013-03-24T10:25:50Z</time>
      </trkpt>
      <trkpt lat="43.62643" lon="1.21566">
        <ele>227.412506</ele>
        <time>2013-03-24T10:25:51Z</time>
      </trkpt>
      <trkpt lat="43.62638" lon="1.21563">
        <ele>227.247498</ele>
        <time>2013-03-24T10:25:52Z</time>
      </trkpt>
      <trkpt lat="43.62633" lon="1.21559">
        <ele>227.140625</ele>
        <time>2013-03-24T10:25:53Z</time>
      </trkpt>
      <trkpt lat="43.62629" lon="1.21556">
        <ele>227.013123</ele>
        <time>2013-03-24T10:25:54Z</time>
      </trkpt>
      <trkpt lat="43.62625" lon="1.21553">
        <ele>226.892014</ele>
        <time>2013-03-24T10:25:55Z</time>
      </trkpt>
      <trkpt lat="43.6262" lon="1.21549">
        <ele>226.897568</ele>
        <time>2013-03-24T10:25:56Z</time>
      </trkpt>
      <trkpt lat="43.62615" lon="1.21544">
        <ele>226.906433</ele>
        <time>2013-03-24T10:25:57Z</time>
      </trkpt>
      <trkpt lat="43.62609" lon="1.2154">
        <ele>226.932144</ele>
        <time>2013-03-24T10:25:58Z</time>
      </trkpt>
      <trkpt lat="43.62592" lon="1.21527">
        <ele>227.067841</ele>
        <time>2013-03-24T10:26:01Z</time>
      </trkpt>
      <trkpt lat="43.62546" lon="1.21488">
        <ele>227.70224</ele>
        <time>2013-03-24T10:26:10Z</time>
      </trkpt>
      <trkpt lat="43.62543" lon="1.21485">
        <ele>227.758972</ele>
        <time>2013-03-24T10:26:11Z</time>
      </trkpt>
      <trkpt lat="43.62542" lon="1.21484">
        <ele>227.744064</ele>
        <time>2013-03-24T10:26:12Z</time>
      </trkpt>
      <trkpt lat="43.6254" lon="1.21482">
        <ele>227.779266</ele>
        <time>2013-03-24T10:26:13Z</time>
      </trkpt>
      <trkpt lat="43.62538" lon="1.2148">
        <ele>227.836929</ele>
        <time>2013-03-24T10:26:14Z</time>
      </trkpt>
      <trkpt lat="43.62535" lon="1.21477">
        <ele>227.895721</ele>
        <time>2013-03-24T10:26:15Z</time>
      </trkpt>
      <trkpt lat="43.6253" lon="1.21474">
        <ele>227.79332</ele>
        <time>2013-03-24T10:26:16Z</time>
      </trkpt>
      <trkpt lat="43.62526" lon="1.21472">
        <ele>227.638504</ele>
        <time>2013-03-24T10:26:17Z</time>
      </trkpt>
      <trkpt lat="43.62524" lon="1.2147">
        <ele>227.550537</ele>
        <time>2013-03-24T10:26:18Z</time>
      </trkpt>
      <trkpt lat="43.62503" lon="1.21452">
        <ele>226.995651</ele>
        <time>2013-03-24T10:26:26Z</time>
      </trkpt>
      <trkpt lat="43.62479" lon="1.21448">
        <ele>225.153122</ele>
        <time>2013-03-24T10:26:32Z</time>
      </trkpt>
      <trkpt lat="43.62474" lon="1.21445">
        <ele>224.822495</ele>
        <time>2013-03-24T10:26:33Z</time>
      </trkpt>
      <trkpt lat="43.62468" lon="1.21441">
        <ele>224.566879</ele>
        <time>2013-03-24T10:26:34Z</time>
      </trkpt>
      <trkpt lat="43.62463" lon="1.21437">
        <ele>224.310623</ele>
        <time>2013-03-24T10:26:35Z</time>
      </trkpt>
      <trkpt lat="43.62459" lon="1.21434">
        <ele>224.051254</ele>
        <time>2013-03-24T10:26:36Z</time>
      </trkpt>
      <trkpt lat="43.62453" lon="1.21429">
        <ele>223.724609</ele>
        <time>2013-03-24T10:26:37Z</time>
      </trkpt>
      <trkpt lat="43.62442" lon="1.21419">
        <ele>223.154846</ele>
        <time>2013-03-24T10:26:39Z</time>
      </trkpt>
      <trkpt lat="43.62436" lon="1.21414">
        <ele>223.212448</ele>
        <time>2013-03-24T10:26:40Z</time>
      </trkpt>
      <trkpt lat="43.6243" lon="1.21408">
        <ele>223.307953</ele>
        <time>2013-03-24T10:26:41Z</time>
      </trkpt>
      <trkpt lat="43.62425" lon="1.21404">
        <ele>223.406647</ele>
        <time>2013-03-24T10:26:42Z</time>
      </trkpt>
      <trkpt lat="43.62419" lon="1.21401">
        <ele>223.520157</ele>
        <time>2013-03-24T10:26:43Z</time>
      </trkpt>
      <trkpt lat="43.62373" lon="1.21366">
        <ele>225.949997</ele>
        <time>2013-03-24T10:26:54Z</time>
      </trkpt>
      <trkpt lat="43.62359" lon="1.21354">
        <ele>227.067505</ele>
        <time>2013-03-24T10:26:58Z</time>
      </trkpt>
      <trkpt lat="43.62355" lon="1.2135">
        <ele>227.387497</ele>
        <time>2013-03-24T10:26:59Z</time>
      </trkpt>
      <trkpt lat="43.62351" lon="1.21348">
        <ele>227.487503</ele>
        <time>2013-03-24T10:27:00Z</time>
      </trkpt>
      <trkpt lat="43.62348" lon="1.21345">
        <ele>227.600006</ele>
        <time>2013-03-24T10:27:01Z</time>
      </trkpt>
      <trkpt lat="43.62345" lon="1.21342">
        <ele>227.714996</ele>
        <time>2013-03-24T10:27:02Z</time>
      </trkpt>
      <trkpt lat="43.62341" lon="1.2134">
        <ele>227.787506</ele>
        <time>2013-03-24T10:27:03Z</time>
      </trkpt>
      <trkpt lat="43.62316" lon="1.2132">
        <ele>228.572495</ele>
        <time>2013-03-24T10:27:10Z</time>
      </trkpt>
      <trkpt lat="43.62312" lon="1.21317">
        <ele>228.69751</ele>
        <time>2013-03-24T10:27:11Z</time>
      </trkpt>
      <trkpt lat="43.62302" lon="1.21308">
        <ele>228.64563</ele>
        <time>2013-03-24T10:27:14Z</time>
      </trkpt>
      <trkpt lat="43.62298" lon="1.21305">
        <ele>228.53125</ele>
        <time>2013-03-24T10:27:15Z</time>
      </trkpt>
      <trkpt lat="43.62294" lon="1.21302">
        <ele>228.430008</ele>
        <time>2013-03-24T10:27:16Z</time>
      </trkpt>
      <trkpt lat="43.6229" lon="1.21299">
        <ele>228.336258</ele>
        <time>2013-03-24T10:27:17Z</time>
      </trkpt>
      <trkpt lat="43.62286" lon="1.21296">
        <ele>228.231247</ele>
        <time>2013-03-24T10:27:18Z</time>
      </trkpt>
      <trkpt lat="43.62257" lon="1.2127">
        <ele>227.558121</ele>
        <time>2013-03-24T10:27:27Z</time>
      </trkpt>
      <trkpt lat="43.62225" lon="1.21244">
        <ele>226.77063</ele>
        <time>2013-03-24T10:27:37Z</time>
      </trkpt>
      <trkpt lat="43.62199" lon="1.21221">
        <ele>226.773346</ele>
        <time>2013-03-24T10:27:46Z</time>
      </trkpt>
      <trkpt lat="43.62167" lon="1.21193">
        <ele>227.682495</ele>
        <time>2013-03-24T10:27:56Z</time>
      </trkpt>
      <trkpt lat="43.62164" lon="1.21191">
        <ele>227.735001</ele>
        <time>2013-03-24T10:27:57Z</time>
      </trkpt>
      <trkpt lat="43.6216" lon="1.21188">
        <ele>227.848907</ele>
        <time>2013-03-24T10:27:58Z</time>
      </trkpt>
      <trkpt lat="43.62158" lon="1.21186">
        <ele>227.932373</ele>
        <time>2013-03-24T10:27:59Z</time>
      </trkpt>
      <trkpt lat="43.62155" lon="1.21184">
        <ele>228.035004</ele>
        <time>2013-03-24T10:28:00Z</time>
      </trkpt>
      <trkpt lat="43.62153" lon="1.2118">
        <ele>228.278</ele>
        <time>2013-03-24T10:28:01Z</time>
      </trkpt>
      <trkpt lat="43.62152" lon="1.21177">
        <ele>228.518982</ele>
        <time>2013-03-24T10:28:02Z</time>
      </trkpt>
      <trkpt lat="43.62152" lon="1.21173">
        <ele>228.773224</ele>
        <time>2013-03-24T10:28:03Z</time>
      </trkpt>
      <trkpt lat="43.62152" lon="1.21169">
        <ele>229.045258</ele>
        <time>2013-03-24T10:28:04Z</time>
      </trkpt>
      <trkpt lat="43.62153" lon="1.21166">
        <ele>229.292587</ele>
        <time>2013-03-24T10:28:05Z</time>
      </trkpt>
      <trkpt lat="43.62153" lon="1.2116">
        <ele>229.728561</ele>
        <time>2013-03-24T10:28:07Z</time>
      </trkpt>
      <trkpt lat="43.62152" lon="1.21158">
        <ele>229.88269</ele>
        <time>2013-03-24T10:28:08Z</time>
      </trkpt>
      <trkpt lat="43.62151" lon="1.21156">
        <ele>230.018188</ele>
        <time>2013-03-24T10:28:09Z</time>
      </trkpt>
      <trkpt lat="43.6215" lon="1.21154">
        <ele>230.143967</ele>
        <time>2013-03-24T10:28:10Z</time>
      </trkpt>
      <trkpt lat="43.62148" lon="1.21152">
        <ele>230.241592</ele>
        <time>2013-03-24T10:28:11Z</time>
      </trkpt>
      <trkpt lat="43.62146" lon="1.21151">
        <ele>230.341858</ele>
        <time>2013-03-24T10:28:12Z</time>
      </trkpt>
      <trkpt lat="43.62144" lon="1.21149">
        <ele>230.440643</ele>
        <time>2013-03-24T10:28:13Z</time>
      </trkpt>
      <trkpt lat="43.62118" lon="1.21128">
        <ele>231.875</ele>
        <time>2013-03-24T10:28:24Z</time>
      </trkpt>
      <trkpt lat="43.62092" lon="1.21106">
        <ele>232.737503</ele>
        <time>2013-03-24T10:28:36Z</time>
      </trkpt>
      <trkpt lat="43.62062" lon="1.21083">
        <ele>233.160004</ele>
        <time>2013-03-24T10:28:48Z</time>
      </trkpt>
      <trkpt lat="43.62024" lon="1.21053">
        <ele>232.842072</ele>
        <time>2013-03-24T10:29:00Z</time>
      </trkpt>
      <trkpt lat="43.6199" lon="1.21022">
        <ele>231.364441</ele>
        <time>2013-03-24T10:29:11Z</time>
      </trkpt>
      <trkpt lat="43.61987" lon="1.21021">
        <ele>230.93335</ele>
        <time>2013-03-24T10:29:12Z</time>
      </trkpt>
      <trkpt lat="43.61983" lon="1.21018">
        <ele>230.478317</ele>
        <time>2013-03-24T10:29:13Z</time>
      </trkpt>
      <trkpt lat="43.61978" lon="1.21015">
        <ele>230.008743</ele>
        <time>2013-03-24T10:29:14Z</time>
      </trkpt>
      <trkpt lat="43.61974" lon="1.21011">
        <ele>229.549744</ele>
        <time>2013-03-24T10:29:15Z</time>
      </trkpt>
      <trkpt lat="43.61969" lon="1.21007">
        <ele>228.904999</ele>
        <time>2013-03-24T10:29:16Z</time>
      </trkpt>
      <trkpt lat="43.61962" lon="1.21002">
        <ele>227.971878</ele>
        <time>2013-03-24T10:29:17Z</time>
      </trkpt>
      <trkpt lat="43.61955" lon="1.20997">
        <ele>226.939377</ele>
        <time>2013-03-24T10:29:18Z</time>
      </trkpt>
      <trkpt lat="43.61948" lon="1.20991">
        <ele>225.875</ele>
        <time>2013-03-24T10:29:19Z</time>
      </trkpt>
      <trkpt lat="43.6194" lon="1.20984">
        <ele>224.777496</ele>
        <time>2013-03-24T10:29:20Z</time>
      </trkpt>
      <trkpt lat="43.61857" lon="1.20915">
        <ele>213.58522</ele>
        <time>2013-03-24T10:29:29Z</time>
      </trkpt>
      <trkpt lat="43.61812" lon="1.20876">
        <ele>211.421722</ele>
        <time>2013-03-24T10:29:34Z</time>
      </trkpt>
      <trkpt lat="43.61808" lon="1.20871">
        <ele>211.598434</ele>
        <time>2013-03-24T10:29:35Z</time>
      </trkpt>
      <trkpt lat="43.61808" lon="1.20866">
        <ele>211.761566</ele>
        <time>2013-03-24T10:29:36Z</time>
      </trkpt>
      <trkpt lat="43.6181" lon="1.20861">
        <ele>211.87178</ele>
        <time>2013-03-24T10:29:37Z</time>
      </trkpt>
      <trkpt lat="43.61812" lon="1.20856">
        <ele>212.045853</ele>
        <time>2013-03-24T10:29:38Z</time>
      </trkpt>
      <trkpt lat="43.61814" lon="1.20851">
        <ele>212.236633</ele>
        <time>2013-03-24T10:29:39Z</time>
      </trkpt>
      <trkpt lat="43.61827" lon="1.2082">
        <ele>213.202103</ele>
        <time>2013-03-24T10:29:48Z</time>
      </trkpt>
      <trkpt lat="43.61826" lon="1.20819">
        <ele>213.24617</ele>
        <time>2013-03-24T10:29:49Z</time>
      </trkpt>
      <trkpt lat="43.61808" lon="1.20818">
        <ele>213.432297</ele>
        <time>2013-03-24T10:29:55Z</time>
      </trkpt>
      <trkpt lat="43.61805" lon="1.20819">
        <ele>213.539902</ele>
        <time>2013-03-24T10:29:56Z</time>
      </trkpt>
      <trkpt lat="43.61802" lon="1.20821">
        <ele>213.617889</ele>
        <time>2013-03-24T10:29:57Z</time>
      </trkpt>
      <trkpt lat="43.61799" lon="1.20823">
        <ele>213.657257</ele>
        <time>2013-03-24T10:29:58Z</time>
      </trkpt>
      <trkpt lat="43.61796" lon="1.20824">
        <ele>213.713089</ele>
        <time>2013-03-24T10:29:59Z</time>
      </trkpt>
      <trkpt lat="43.61766" lon="1.20837">
        <ele>214.470276</ele>
        <time>2013-03-24T10:30:09Z</time>
      </trkpt>
      <trkpt lat="43.61763" lon="1.20839">
        <ele>214.491882</ele>
        <time>2013-03-24T10:30:10Z</time>
      </trkpt>
      <trkpt lat="43.6176" lon="1.2084">
        <ele>214.587494</ele>
        <time>2013-03-24T10:30:11Z</time>
      </trkpt>
      <trkpt lat="43.61757" lon="1.20841">
        <ele>214.691879</ele>
        <time>2013-03-24T10:30:12Z</time>
      </trkpt>
      <trkpt lat="43.61754" lon="1.20841">
        <ele>214.825623</ele>
        <time>2013-03-24T10:30:13Z</time>
      </trkpt>
      <trkpt lat="43.61751" lon="1.20842">
        <ele>214.928131</ele>
        <time>2013-03-24T10:30:14Z</time>
      </trkpt>
      <trkpt lat="43.61748" lon="1.20842">
        <ele>215.047501</ele>
        <time>2013-03-24T10:30:15Z</time>
      </trkpt>
      <trkpt lat="43.61744" lon="1.20842">
        <ele>215.180634</ele>
        <time>2013-03-24T10:30:16Z</time>
      </trkpt>
      <trkpt lat="43.61741" lon="1.20843">
        <ele>215.319366</ele>
        <time>2013-03-24T10:30:17Z</time>
      </trkpt>
      <trkpt lat="43.61738" lon="1.20843">
        <ele>215.44812</ele>
        <time>2013-03-24T10:30:18Z</time>
      </trkpt>
      <trkpt lat="43.61734" lon="1.20844">
        <ele>215.57312</ele>
        <time>2013-03-24T10:30:19Z</time>
      </trkpt>
      <trkpt lat="43.61725" lon="1.20846">
        <ele>215.860001</ele>
        <time>2013-03-24T10:30:22Z</time>
      </trkpt>
      <trkpt lat="43.61722" lon="1.20847">
        <ele>215.99437</ele>
        <time>2013-03-24T10:30:23Z</time>
      </trkpt>
      <trkpt lat="43.61718" lon="1.20848">
        <ele>216.026581</ele>
        <time>2013-03-24T10:30:24Z</time>
      </trkpt>
      <trkpt lat="43.61714" lon="1.2085">
        <ele>216.024719</ele>
        <time>2013-03-24T10:30:25Z</time>
      </trkpt>
      <trkpt lat="43.61711" lon="1.2085">
        <ele>216.053604</ele>
        <time>2013-03-24T10:30:26Z</time>
      </trkpt>
      <trkpt lat="43.61687" lon="1.20857">
        <ele>215.973862</ele>
        <time>2013-03-24T10:30:34Z</time>
      </trkpt>
      <trkpt lat="43.61685" lon="1.20858">
        <ele>216.000809</ele>
        <time>2013-03-24T10:30:35Z</time>
      </trkpt>
      <trkpt lat="43.61682" lon="1.20859">
        <ele>215.962509</ele>
        <time>2013-03-24T10:30:36Z</time>
      </trkpt>
      <trkpt lat="43.61679" lon="1.2086">
        <ele>215.922028</ele>
        <time>2013-03-24T10:30:37Z</time>
      </trkpt>
      <trkpt lat="43.61676" lon="1.20861">
        <ele>215.892868</ele>
        <time>2013-03-24T10:30:38Z</time>
      </trkpt>
      <trkpt lat="43.61646" lon="1.20867">
        <ele>215.517502</ele>
        <time>2013-03-24T10:30:49Z</time>
      </trkpt>
      <trkpt lat="43.6161" lon="1.20869">
        <ele>214.102509</ele>
        <time>2013-03-24T10:31:00Z</time>
      </trkpt>
      <trkpt lat="43.616" lon="1.20867">
        <ele>213.567505</ele>
        <time>2013-03-24T10:31:03Z</time>
      </trkpt>
      <trkpt lat="43.61597" lon="1.20864">
        <ele>213.587494</ele>
        <time>2013-03-24T10:31:04Z</time>
      </trkpt>
      <trkpt lat="43.61595" lon="1.20861">
        <ele>213.667496</ele>
        <time>2013-03-24T10:31:05Z</time>
      </trkpt>
      <trkpt lat="43.61594" lon="1.20857">
        <ele>213.764999</ele>
        <time>2013-03-24T10:31:06Z</time>
      </trkpt>
      <trkpt lat="43.61592" lon="1.20854">
        <ele>213.875</ele>
        <time>2013-03-24T10:31:07Z</time>
      </trkpt>
      <trkpt lat="43.61579" lon="1.20823">
        <ele>215.077499</ele>
        <time>2013-03-24T10:31:17Z</time>
      </trkpt>
      <trkpt lat="43.61578" lon="1.20816">
        <ele>215.455002</ele>
        <time>2013-03-24T10:31:19Z</time>
      </trkpt>
      <trkpt lat="43.61578" lon="1.20812">
        <ele>215.710007</ele>
        <time>2013-03-24T10:31:20Z</time>
      </trkpt>
      <trkpt lat="43.61578" lon="1.20809">
        <ele>215.910004</ele>
        <time>2013-03-24T10:31:21Z</time>
      </trkpt>
      <trkpt lat="43.61579" lon="1.20806">
        <ele>216.112503</ele>
        <time>2013-03-24T10:31:22Z</time>
      </trkpt>
      <trkpt lat="43.61579" lon="1.20804">
        <ele>216.302505</ele>
        <time>2013-03-24T10:31:23Z</time>
      </trkpt>
      <trkpt lat="43.61579" lon="1.208">
        <ele>216.514999</ele>
        <time>2013-03-24T10:31:24Z</time>
      </trkpt>
      <trkpt lat="43.61579" lon="1.20798">
        <ele>216.6875</ele>
        <time>2013-03-24T10:31:25Z</time>
      </trkpt>
      <trkpt lat="43.61578" lon="1.20795">
        <ele>216.802505</ele>
        <time>2013-03-24T10:31:26Z</time>
      </trkpt>
      <trkpt lat="43.61577" lon="1.20793">
        <ele>216.910004</ele>
        <time>2013-03-24T10:31:27Z</time>
      </trkpt>
      <trkpt lat="43.61552" lon="1.20763">
        <ele>217.180298</ele>
        <time>2013-03-24T10:31:37Z</time>
      </trkpt>
      <trkpt lat="43.61529" lon="1.20741">
        <ele>216.40625</ele>
        <time>2013-03-24T10:31:46Z</time>
      </trkpt>
      <trkpt lat="43.61528" lon="1.20737">
        <ele>216.613754</ele>
        <time>2013-03-24T10:31:47Z</time>
      </trkpt>
      <trkpt lat="43.61526" lon="1.20724">
        <ele>217.091248</ele>
        <time>2013-03-24T10:31:50Z</time>
      </trkpt>
      <trkpt lat="43.61524" lon="1.20721">
        <ele>217.059998</ele>
        <time>2013-03-24T10:31:51Z</time>
      </trkpt>
      <trkpt lat="43.61522" lon="1.20719">
        <ele>216.938751</ele>
        <time>2013-03-24T10:31:52Z</time>
      </trkpt>
      <trkpt lat="43.6152" lon="1.20717">
        <ele>216.798752</ele>
        <time>2013-03-24T10:31:53Z</time>
      </trkpt>
      <trkpt lat="43.61517" lon="1.20715">
        <ele>216.654373</ele>
        <time>2013-03-24T10:31:54Z</time>
      </trkpt>
      <trkpt lat="43.61514" lon="1.20713">
        <ele>216.503128</ele>
        <time>2013-03-24T10:31:55Z</time>
      </trkpt>
      <trkpt lat="43.61499" lon="1.20701">
        <ele>215.682373</ele>
        <time>2013-03-24T10:31:59Z</time>
      </trkpt>
      <trkpt lat="43.61483" lon="1.20693">
        <ele>214.708145</ele>
        <time>2013-03-24T10:32:04Z</time>
      </trkpt>
      <trkpt lat="43.61473" lon="1.20693">
        <ele>213.954788</ele>
        <time>2013-03-24T10:32:07Z</time>
      </trkpt>
      <trkpt lat="43.61456" lon="1.20692">
        <ele>212.761215</ele>
        <time>2013-03-24T10:32:10Z</time>
      </trkpt>
      <trkpt lat="43.61449" lon="1.2069">
        <ele>212.334717</ele>
        <time>2013-03-24T10:32:11Z</time>
      </trkpt>
      <trkpt lat="43.61444" lon="1.20685">
        <ele>211.992554</ele>
        <time>2013-03-24T10:32:12Z</time>
      </trkpt>
      <trkpt lat="43.61439" lon="1.20678">
        <ele>211.749512</ele>
        <time>2013-03-24T10:32:13Z</time>
      </trkpt>
      <trkpt lat="43.61435" lon="1.2067">
        <ele>211.543182</ele>
        <time>2013-03-24T10:32:14Z</time>
      </trkpt>
      <trkpt lat="43.61432" lon="1.20663">
        <ele>211.333603</ele>
        <time>2013-03-24T10:32:15Z</time>
      </trkpt>
      <trkpt lat="43.61428" lon="1.20657">
        <ele>211.121964</ele>
        <time>2013-03-24T10:32:16Z</time>
      </trkpt>
      <trkpt lat="43.61406" lon="1.20618">
        <ele>209.292007</ele>
        <time>2013-03-24T10:32:23Z</time>
      </trkpt>
      <trkpt lat="43.61395" lon="1.20606">
        <ele>208.50293</ele>
        <time>2013-03-24T10:32:27Z</time>
      </trkpt>
      <trkpt lat="43.61392" lon="1.206">
        <ele>208.339005</ele>
        <time>2013-03-24T10:32:28Z</time>
      </trkpt>
      <trkpt lat="43.6139" lon="1.20594">
        <ele>208.155045</ele>
        <time>2013-03-24T10:32:29Z</time>
      </trkpt>
      <trkpt lat="43.61374" lon="1.20566">
        <ele>207.057495</ele>
        <time>2013-03-24T10:32:36Z</time>
      </trkpt>
      <trkpt lat="43.61372" lon="1.20564">
        <ele>206.9375</ele>
        <time>2013-03-24T10:32:37Z</time>
      </trkpt>
      <trkpt lat="43.6137" lon="1.20563">
        <ele>206.809998</ele>
        <time>2013-03-24T10:32:38Z</time>
      </trkpt>
      <trkpt lat="43.61367" lon="1.20562">
        <ele>206.645004</ele>
        <time>2013-03-24T10:32:39Z</time>
      </trkpt>
      <trkpt lat="43.61365" lon="1.2056">
        <ele>206.517502</ele>
        <time>2013-03-24T10:32:40Z</time>
      </trkpt>
      <trkpt lat="43.61364" lon="1.20559">
        <ele>206.412506</ele>
        <time>2013-03-24T10:32:41Z</time>
      </trkpt>
      <trkpt lat="43.61362" lon="1.20558">
        <ele>206.292496</ele>
        <time>2013-03-24T10:32:42Z</time>
      </trkpt>
      <trkpt lat="43.6136" lon="1.20556">
        <ele>206.172501</ele>
        <time>2013-03-24T10:32:43Z</time>
      </trkpt>
      <trkpt lat="43.61359" lon="1.20554">
        <ele>206.112503</ele>
        <time>2013-03-24T10:32:44Z</time>
      </trkpt>
      <trkpt lat="43.61359" lon="1.20552">
        <ele>206.097504</ele>
        <time>2013-03-24T10:32:45Z</time>
      </trkpt>
      <trkpt lat="43.61359" lon="1.2055">
        <ele>206.059998</ele>
        <time>2013-03-24T10:32:46Z</time>
      </trkpt>
      <trkpt lat="43.61357" lon="1.20549">
        <ele>205.971527</ele>
        <time>2013-03-24T10:32:47Z</time>
      </trkpt>
      <trkpt lat="43.61355" lon="1.20548">
        <ele>205.902161</ele>
        <time>2013-03-24T10:32:48Z</time>
      </trkpt>
      <trkpt lat="43.61354" lon="1.20549">
        <ele>205.858688</ele>
        <time>2013-03-24T10:32:49Z</time>
      </trkpt>
      <trkpt lat="43.61353" lon="1.2055">
        <ele>205.82428</ele>
        <time>2013-03-24T10:32:50Z</time>
      </trkpt>
      <trkpt lat="43.61352" lon="1.20551">
        <ele>205.796875</ele>
        <time>2013-03-24T10:33:04Z</time>
      </trkpt>
      <trkpt lat="43.61352" lon="1.20552">
        <ele>205.799347</ele>
        <time>2013-03-24T10:33:12Z</time>
      </trkpt>
      <trkpt lat="43.61353" lon="1.20552">
        <ele>205.83876</ele>
        <time>2013-03-24T10:33:25Z</time>
      </trkpt>
      <trkpt lat="43.61352" lon="1.20553">
        <ele>205.794296</ele>
        <time>2013-03-24T10:42:01Z</time>
      </trkpt>
      <trkpt lat="43.61352" lon="1.20554">
        <ele>205.819641</ele>
        <time>2013-03-24T10:42:39Z</time>
      </trkpt>
      <trkpt lat="43.61352" lon="1.20555">
        <ele>205.805161</ele>
        <time>2013-03-24T10:43:48Z</time>
      </trkpt>
      <trkpt lat="43.61352" lon="1.20554">
        <ele>205.791428</ele>
        <time>2013-03-24T10:44:07Z</time>
      </trkpt>
      <trkpt lat="43.61352" lon="1.20553">
        <ele>205.78949</ele>
        <time>2013-03-24T10:44:28Z</time>
      </trkpt>
      <trkpt lat="43.61352" lon="1.20551">
        <ele>205.801636</ele>
        <time>2013-03-24T10:44:29Z</time>
      </trkpt>
      <trkpt lat="43.61353" lon="1.20549">
        <ele>205.821945</ele>
        <time>2013-03-24T10:44:30Z</time>
      </trkpt>
      <trkpt lat="43.61353" lon="1.20547">
        <ele>205.843185</ele>
        <time>2013-03-24T10:44:31Z</time>
      </trkpt>
      <trkpt lat="43.61354" lon="1.20545">
        <ele>205.873672</ele>
        <time>2013-03-24T10:44:32Z</time>
      </trkpt>
      <trkpt lat="43.61355" lon="1.20543">
        <ele>205.918472</ele>
        <time>2013-03-24T10:44:33Z</time>
      </trkpt>
      <trkpt lat="43.61357" lon="1.20541">
        <ele>205.97821</ele>
        <time>2013-03-24T10:44:34Z</time>
      </trkpt>
      <trkpt lat="43.61358" lon="1.2054">
        <ele>206.059998</ele>
        <time>2013-03-24T10:44:35Z</time>
      </trkpt>
      <trkpt lat="43.61369" lon="1.20512">
        <ele>206.717941</ele>
        <time>2013-03-24T10:44:44Z</time>
      </trkpt>
      <trkpt lat="43.61387" lon="1.2046">
        <ele>207.339996</ele>
        <time>2013-03-24T10:44:57Z</time>
      </trkpt>
      <trkpt lat="43.61407" lon="1.20385">
        <ele>208.833054</ele>
        <time>2013-03-24T10:45:14Z</time>
      </trkpt>
      <trkpt lat="43.61401" lon="1.20375">
        <ele>208.459152</ele>
        <time>2013-03-24T10:45:20Z</time>
      </trkpt>
      <trkpt lat="43.61399" lon="1.20375">
        <ele>208.348129</ele>
        <time>2013-03-24T10:45:21Z</time>
      </trkpt>
      <trkpt lat="43.61397" lon="1.20374">
        <ele>208.281876</ele>
        <time>2013-03-24T10:45:22Z</time>
      </trkpt>
      <trkpt lat="43.61395" lon="1.20371">
        <ele>208.235626</ele>
        <time>2013-03-24T10:45:23Z</time>
      </trkpt>
      <trkpt lat="43.61392" lon="1.20367">
        <ele>208.178131</ele>
        <time>2013-03-24T10:45:24Z</time>
      </trkpt>
      <trkpt lat="43.61389" lon="1.20364">
        <ele>208.097504</ele>
        <time>2013-03-24T10:45:25Z</time>
      </trkpt>
      <trkpt lat="43.61379" lon="1.20353">
        <ele>207.803757</ele>
        <time>2013-03-24T10:45:28Z</time>
      </trkpt>
      <trkpt lat="43.61375" lon="1.2035">
        <ele>207.67688</ele>
        <time>2013-03-24T10:45:29Z</time>
      </trkpt>
      <trkpt lat="43.61371" lon="1.20347">
        <ele>207.543747</ele>
        <time>2013-03-24T10:45:30Z</time>
      </trkpt>
      <trkpt lat="43.61334" lon="1.20322">
        <ele>206.978165</ele>
        <time>2013-03-24T10:45:41Z</time>
      </trkpt>
      <trkpt lat="43.6131" lon="1.20301">
        <ele>207.306458</ele>
        <time>2013-03-24T10:45:49Z</time>
      </trkpt>
      <trkpt lat="43.61276" lon="1.20275">
        <ele>209.776154</ele>
        <time>2013-03-24T10:46:01Z</time>
      </trkpt>
      <trkpt lat="43.61248" lon="1.20251">
        <ele>212.798752</ele>
        <time>2013-03-24T10:46:13Z</time>
      </trkpt>
      <trkpt lat="43.6122" lon="1.20227">
        <ele>216.310669</ele>
        <time>2013-03-24T10:46:24Z</time>
      </trkpt>
      <trkpt lat="43.61188" lon="1.20202">
        <ele>220.451874</ele>
        <time>2013-03-24T10:46:37Z</time>
      </trkpt>
      <trkpt lat="43.61163" lon="1.20178">
        <ele>223.301086</ele>
        <time>2013-03-24T10:46:49Z</time>
      </trkpt>
      <trkpt lat="43.61139" lon="1.20157">
        <ele>225.096878</ele>
        <time>2013-03-24T10:47:01Z</time>
      </trkpt>
      <trkpt lat="43.61121" lon="1.20143">
        <ele>226.247391</ele>
        <time>2013-03-24T10:47:12Z</time>
      </trkpt>
      <trkpt lat="43.61102" lon="1.20129">
        <ele>227.159973</ele>
        <time>2013-03-24T10:47:22Z</time>
      </trkpt>
      <trkpt lat="43.61098" lon="1.20125">
        <ele>227.374619</ele>
        <time>2013-03-24T10:47:24Z</time>
      </trkpt>
      <trkpt lat="43.61096" lon="1.20123">
        <ele>227.494324</ele>
        <time>2013-03-24T10:47:25Z</time>
      </trkpt>
      <trkpt lat="43.61094" lon="1.20122">
        <ele>227.573883</ele>
        <time>2013-03-24T10:47:26Z</time>
      </trkpt>
      <trkpt lat="43.6107" lon="1.201">
        <ele>229.468658</ele>
        <time>2013-03-24T10:47:41Z</time>
      </trkpt>
      <trkpt lat="43.61055" lon="1.20091">
        <ele>230.400528</ele>
        <time>2013-03-24T10:47:49Z</time>
      </trkpt>
      <trkpt lat="43.61054" lon="1.2009">
        <ele>230.484344</ele>
        <time>2013-03-24T10:47:50Z</time>
      </trkpt>
      <trkpt lat="43.61052" lon="1.20088">
        <ele>230.579926</ele>
        <time>2013-03-24T10:47:51Z</time>
      </trkpt>
      <trkpt lat="43.61025" lon="1.20068">
        <ele>231.5</ele>
        <time>2013-03-24T10:48:02Z</time>
      </trkpt>
      <trkpt lat="43.60995" lon="1.20041">
        <ele>231.947495</ele>
        <time>2013-03-24T10:48:14Z</time>
      </trkpt>
      <trkpt lat="43.60964" lon="1.20015">
        <ele>232.376251</ele>
        <time>2013-03-24T10:48:27Z</time>
      </trkpt>
      <trkpt lat="43.60942" lon="1.20005">
        <ele>232.546875</ele>
        <time>2013-03-24T10:48:36Z</time>
      </trkpt>
      <trkpt lat="43.60941" lon="1.20007">
        <ele>232.521255</ele>
        <time>2013-03-24T10:48:37Z</time>
      </trkpt>
      <trkpt lat="43.60939" lon="1.20009">
        <ele>232.491257</ele>
        <time>2013-03-24T10:48:38Z</time>
      </trkpt>
      <trkpt lat="43.60937" lon="1.2001">
        <ele>232.47438</ele>
        <time>2013-03-24T10:48:39Z</time>
      </trkpt>
      <trkpt lat="43.60934" lon="1.2001">
        <ele>232.463745</ele>
        <time>2013-03-24T10:48:40Z</time>
      </trkpt>
      <trkpt lat="43.60931" lon="1.2001">
        <ele>232.47438</ele>
        <time>2013-03-24T10:48:41Z</time>
      </trkpt>
      <trkpt lat="43.60928" lon="1.20008">
        <ele>232.501251</ele>
        <time>2013-03-24T10:48:42Z</time>
      </trkpt>
      <trkpt lat="43.60926" lon="1.20007">
        <ele>232.526245</ele>
        <time>2013-03-24T10:48:43Z</time>
      </trkpt>
      <trkpt lat="43.60893" lon="1.19982">
        <ele>232.925003</ele>
        <time>2013-03-24T10:48:54Z</time>
      </trkpt>
      <trkpt lat="43.60861" lon="1.19955">
        <ele>233.032806</ele>
        <time>2013-03-24T10:49:04Z</time>
      </trkpt>
      <trkpt lat="43.60821" lon="1.19925">
        <ele>232.907181</ele>
        <time>2013-03-24T10:49:16Z</time>
      </trkpt>
      <trkpt lat="43.60783" lon="1.1989">
        <ele>232.831879</ele>
        <time>2013-03-24T10:49:28Z</time>
      </trkpt>
      <trkpt lat="43.6078" lon="1.19887">
        <ele>232.805008</ele>
        <time>2013-03-24T10:49:29Z</time>
      </trkpt>
      <trkpt lat="43.6076" lon="1.19873">
        <ele>232.438126</ele>
        <time>2013-03-24T10:49:34Z</time>
      </trkpt>
      <trkpt lat="43.60692" lon="1.19817">
        <ele>228.429993</ele>
        <time>2013-03-24T10:49:44Z</time>
      </trkpt>
      <trkpt lat="43.60644" lon="1.19778">
        <ele>225.720215</ele>
        <time>2013-03-24T10:49:50Z</time>
      </trkpt>
      <trkpt lat="43.60637" lon="1.19772">
        <ele>225.645676</ele>
        <time>2013-03-24T10:49:51Z</time>
      </trkpt>
      <trkpt lat="43.60631" lon="1.19766">
        <ele>225.571716</ele>
        <time>2013-03-24T10:49:52Z</time>
      </trkpt>
      <trkpt lat="43.60625" lon="1.19762">
        <ele>225.723892</ele>
        <time>2013-03-24T10:49:53Z</time>
      </trkpt>
      <trkpt lat="43.60619" lon="1.19758">
        <ele>225.928558</ele>
        <time>2013-03-24T10:49:54Z</time>
      </trkpt>
      <trkpt lat="43.60609" lon="1.1975">
        <ele>226.507202</ele>
        <time>2013-03-24T10:49:56Z</time>
      </trkpt>
      <trkpt lat="43.60605" lon="1.19745">
        <ele>226.897507</ele>
        <time>2013-03-24T10:49:57Z</time>
      </trkpt>
      <trkpt lat="43.60601" lon="1.1974">
        <ele>227.330475</ele>
        <time>2013-03-24T10:49:58Z</time>
      </trkpt>
      <trkpt lat="43.60598" lon="1.19736">
        <ele>227.72438</ele>
        <time>2013-03-24T10:49:59Z</time>
      </trkpt>
      <trkpt lat="43.60593" lon="1.19733">
        <ele>227.994995</ele>
        <time>2013-03-24T10:50:00Z</time>
      </trkpt>
      <trkpt lat="43.60589" lon="1.1973">
        <ele>228.259995</ele>
        <time>2013-03-24T10:50:01Z</time>
      </trkpt>
      <trkpt lat="43.60585" lon="1.19727">
        <ele>228.497299</ele>
        <time>2013-03-24T10:50:02Z</time>
      </trkpt>
      <trkpt lat="43.60581" lon="1.19724">
        <ele>228.706406</ele>
        <time>2013-03-24T10:50:03Z</time>
      </trkpt>
      <trkpt lat="43.60546" lon="1.19697">
        <ele>230.275436</ele>
        <time>2013-03-24T10:50:15Z</time>
      </trkpt>
      <trkpt lat="43.60513" lon="1.19672">
        <ele>229.901871</ele>
        <time>2013-03-24T10:50:26Z</time>
      </trkpt>
      <trkpt lat="43.60509" lon="1.19667">
        <ele>229.807495</ele>
        <time>2013-03-24T10:50:27Z</time>
      </trkpt>
      <trkpt lat="43.60506" lon="1.19663">
        <ele>229.75</ele>
        <time>2013-03-24T10:50:28Z</time>
      </trkpt>
      <trkpt lat="43.60505" lon="1.19657">
        <ele>229.764374</ele>
        <time>2013-03-24T10:50:29Z</time>
      </trkpt>
      <trkpt lat="43.60505" lon="1.19651">
        <ele>229.876251</ele>
        <time>2013-03-24T10:50:30Z</time>
      </trkpt>
      <trkpt lat="43.60506" lon="1.19646">
        <ele>230.041245</ele>
        <time>2013-03-24T10:50:31Z</time>
      </trkpt>
      <trkpt lat="43.60508" lon="1.19641">
        <ele>230.186874</ele>
        <time>2013-03-24T10:50:32Z</time>
      </trkpt>
      <trkpt lat="43.6051" lon="1.19638">
        <ele>230.313126</ele>
        <time>2013-03-24T10:50:33Z</time>
      </trkpt>
      <trkpt lat="43.60513" lon="1.1963">
        <ele>230.591248</ele>
        <time>2013-03-24T10:50:36Z</time>
      </trkpt>
      <trkpt lat="43.60516" lon="1.19624">
        <ele>230.832504</ele>
        <time>2013-03-24T10:50:38Z</time>
      </trkpt>
      <trkpt lat="43.60532" lon="1.19582">
        <ele>231.714996</ele>
        <time>2013-03-24T10:50:50Z</time>
      </trkpt>
      <trkpt lat="43.6055" lon="1.19541">
        <ele>232.434372</ele>
        <time>2013-03-24T10:51:03Z</time>
      </trkpt>
      <trkpt lat="43.60563" lon="1.19516">
        <ele>233.126251</ele>
        <time>2013-03-24T10:51:12Z</time>
      </trkpt>
      <trkpt lat="43.60566" lon="1.19508">
        <ele>233.324371</ele>
        <time>2013-03-24T10:51:21Z</time>
      </trkpt>
      <trkpt lat="43.60566" lon="1.19508">
        <ele>233.324371</ele>
        <time>2013-03-24T10:51:55Z</time>
      </trkpt>
      <trkpt lat="43.60564" lon="1.19501">
        <ele>233.411255</ele>
        <time>2013-03-24T10:52:27Z</time>
      </trkpt>
      <trkpt lat="43.60564" lon="1.195">
        <ele>233.419373</ele>
        <time>2013-03-24T10:52:28Z</time>
      </trkpt>
      <trkpt lat="43.60531" lon="1.19469">
        <ele>232.580002</ele>
        <time>2013-03-24T10:52:40Z</time>
      </trkpt>
      <trkpt lat="43.60516" lon="1.19456">
        <ele>231.574997</ele>
        <time>2013-03-24T10:52:43Z</time>
      </trkpt>
      <trkpt lat="43.6051" lon="1.19451">
        <ele>231.184998</ele>
        <time>2013-03-24T10:52:44Z</time>
      </trkpt>
      <trkpt lat="43.60481" lon="1.19425">
        <ele>228.796021</ele>
        <time>2013-03-24T10:52:48Z</time>
      </trkpt>
      <trkpt lat="43.60473" lon="1.19419">
        <ele>227.791428</ele>
        <time>2013-03-24T10:52:49Z</time>
      </trkpt>
      <trkpt lat="43.60464" lon="1.19413">
        <ele>226.734146</ele>
        <time>2013-03-24T10:52:50Z</time>
      </trkpt>
      <trkpt lat="43.60384" lon="1.19349">
        <ele>219.488907</ele>
        <time>2013-03-24T10:52:59Z</time>
      </trkpt>
      <trkpt lat="43.60331" lon="1.19305">
        <ele>220.787949</ele>
        <time>2013-03-24T10:53:07Z</time>
      </trkpt>
      <trkpt lat="43.60312" lon="1.1929">
        <ele>221.928207</ele>
        <time>2013-03-24T10:53:11Z</time>
      </trkpt>
      <trkpt lat="43.60284" lon="1.19267">
        <ele>222.499374</ele>
        <time>2013-03-24T10:53:17Z</time>
      </trkpt>
      <trkpt lat="43.60279" lon="1.19263">
        <ele>222.57251</ele>
        <time>2013-03-24T10:53:18Z</time>
      </trkpt>
      <trkpt lat="43.60236" lon="1.19228">
        <ele>221.203751</ele>
        <time>2013-03-24T10:53:27Z</time>
      </trkpt>
      <trkpt lat="43.60231" lon="1.19224">
        <ele>220.835144</ele>
        <time>2013-03-24T10:53:28Z</time>
      </trkpt>
      <trkpt lat="43.60226" lon="1.19219">
        <ele>220.427292</ele>
        <time>2013-03-24T10:53:29Z</time>
      </trkpt>
      <trkpt lat="43.6022" lon="1.19213">
        <ele>220</ele>
        <time>2013-03-24T10:53:30Z</time>
      </trkpt>
      <trkpt lat="43.60215" lon="1.19206">
        <ele>219.789993</ele>
        <time>2013-03-24T10:53:31Z</time>
      </trkpt>
      <trkpt lat="43.60212" lon="1.19199">
        <ele>219.634995</ele>
        <time>2013-03-24T10:53:32Z</time>
      </trkpt>
      <trkpt lat="43.6021" lon="1.19192">
        <ele>219.544998</ele>
        <time>2013-03-24T10:53:33Z</time>
      </trkpt>
      <trkpt lat="43.60209" lon="1.19186">
        <ele>219.509995</ele>
        <time>2013-03-24T10:53:34Z</time>
      </trkpt>
      <trkpt lat="43.60208" lon="1.19179">
        <ele>219.475006</ele>
        <time>2013-03-24T10:53:35Z</time>
      </trkpt>
      <trkpt lat="43.60207" lon="1.19165">
        <ele>219.445007</ele>
        <time>2013-03-24T10:53:37Z</time>
      </trkpt>
      <trkpt lat="43.60208" lon="1.19153">
        <ele>219.475006</ele>
        <time>2013-03-24T10:53:39Z</time>
      </trkpt>
      <trkpt lat="43.60216" lon="1.19107">
        <ele>220.165619</ele>
        <time>2013-03-24T10:53:48Z</time>
      </trkpt>
      <trkpt lat="43.6023" lon="1.19055">
        <ele>222.203125</ele>
        <time>2013-03-24T10:53:58Z</time>
      </trkpt>
      <trkpt lat="43.60243" lon="1.1902">
        <ele>223.936249</ele>
        <time>2013-03-24T10:54:07Z</time>
      </trkpt>
      <trkpt lat="43.60257" lon="1.18989">
        <ele>225.690002</ele>
        <time>2013-03-24T10:54:17Z</time>
      </trkpt>
      <trkpt lat="43.60264" lon="1.18967">
        <ele>226.710022</ele>
        <time>2013-03-24T10:54:24Z</time>
      </trkpt>
      <trkpt lat="43.60262" lon="1.18956">
        <ele>226.71875</ele>
        <time>2013-03-24T10:54:29Z</time>
      </trkpt>
      <trkpt lat="43.60257" lon="1.18947">
        <ele>226.422501</ele>
        <time>2013-03-24T10:54:32Z</time>
      </trkpt>
      <trkpt lat="43.60269" lon="1.18905">
        <ele>228.136475</ele>
        <time>2013-03-24T10:54:43Z</time>
      </trkpt>
      <trkpt lat="43.60281" lon="1.18876">
        <ele>229.802582</ele>
        <time>2013-03-24T10:54:53Z</time>
      </trkpt>
      <trkpt lat="43.60297" lon="1.18839">
        <ele>232.339569</ele>
        <time>2013-03-24T10:55:05Z</time>
      </trkpt>
      <trkpt lat="43.60301" lon="1.18831">
        <ele>232.977539</ele>
        <time>2013-03-24T10:55:08Z</time>
      </trkpt>
      <trkpt lat="43.60289" lon="1.18796">
        <ele>232.442505</ele>
        <time>2013-03-24T10:55:18Z</time>
      </trkpt>
      <trkpt lat="43.6028" lon="1.1878">
        <ele>231.748123</ele>
        <time>2013-03-24T10:55:22Z</time>
      </trkpt>
      <trkpt lat="43.60269" lon="1.18744">
        <ele>231.205002</ele>
        <time>2013-03-24T10:55:29Z</time>
      </trkpt>
      <trkpt lat="43.60268" lon="1.18739">
        <ele>231.237839</ele>
        <time>2013-03-24T10:55:30Z</time>
      </trkpt>
      <trkpt lat="43.60268" lon="1.18733">
        <ele>231.273026</ele>
        <time>2013-03-24T10:55:31Z</time>
      </trkpt>
      <trkpt lat="43.60267" lon="1.18727">
        <ele>231.373276</ele>
        <time>2013-03-24T10:55:32Z</time>
      </trkpt>
      <trkpt lat="43.60268" lon="1.18722">
        <ele>231.546829</ele>
        <time>2013-03-24T10:55:33Z</time>
      </trkpt>
      <trkpt lat="43.60268" lon="1.18717">
        <ele>231.673325</ele>
        <time>2013-03-24T10:55:34Z</time>
      </trkpt>
      <trkpt lat="43.60269" lon="1.18713">
        <ele>231.790497</ele>
        <time>2013-03-24T10:55:35Z</time>
      </trkpt>
      <trkpt lat="43.60269" lon="1.18708">
        <ele>231.97551</ele>
        <time>2013-03-24T10:55:36Z</time>
      </trkpt>
      <trkpt lat="43.6027" lon="1.18705">
        <ele>232.164352</ele>
        <time>2013-03-24T10:55:37Z</time>
      </trkpt>
      <trkpt lat="43.60275" lon="1.1867">
        <ele>234.116257</ele>
        <time>2013-03-24T10:55:46Z</time>
      </trkpt>
      <trkpt lat="43.60275" lon="1.18658">
        <ele>234.699371</ele>
        <time>2013-03-24T10:55:50Z</time>
      </trkpt>
      <trkpt lat="43.60275" lon="1.18656">
        <ele>234.903748</ele>
        <time>2013-03-24T10:55:51Z</time>
      </trkpt>
      <trkpt lat="43.60276" lon="1.18653">
        <ele>235.194366</ele>
        <time>2013-03-24T10:55:52Z</time>
      </trkpt>
      <trkpt lat="43.60278" lon="1.1865">
        <ele>235.548752</ele>
        <time>2013-03-24T10:55:53Z</time>
      </trkpt>
      <trkpt lat="43.60279" lon="1.18648">
        <ele>235.818756</ele>
        <time>2013-03-24T10:55:54Z</time>
      </trkpt>
      <trkpt lat="43.6028" lon="1.18647">
        <ele>235.996872</ele>
        <time>2013-03-24T10:55:55Z</time>
      </trkpt>
      <trkpt lat="43.60281" lon="1.18645">
        <ele>236.193756</ele>
        <time>2013-03-24T10:55:56Z</time>
      </trkpt>
      <trkpt lat="43.60283" lon="1.18637">
        <ele>236.863129</ele>
        <time>2013-03-24T10:56:00Z</time>
      </trkpt>
      <trkpt lat="43.60282" lon="1.18635">
        <ele>236.842499</ele>
        <time>2013-03-24T10:56:01Z</time>
      </trkpt>
      <trkpt lat="43.60281" lon="1.18634">
        <ele>236.789993</ele>
        <time>2013-03-24T10:56:02Z</time>
      </trkpt>
      <trkpt lat="43.6028" lon="1.18632">
        <ele>236.694382</ele>
        <time>2013-03-24T10:56:03Z</time>
      </trkpt>
      <trkpt lat="43.60278" lon="1.18629">
        <ele>236.636093</ele>
        <time>2013-03-24T10:56:04Z</time>
      </trkpt>
      <trkpt lat="43.60276" lon="1.18622">
        <ele>236.870697</ele>
        <time>2013-03-24T10:56:06Z</time>
      </trkpt>
      <trkpt lat="43.60276" lon="1.18618">
        <ele>237.156631</ele>
        <time>2013-03-24T10:56:07Z</time>
      </trkpt>
      <trkpt lat="43.60277" lon="1.18616">
        <ele>237.418381</ele>
        <time>2013-03-24T10:56:08Z</time>
      </trkpt>
      <trkpt lat="43.60277" lon="1.18613">
        <ele>237.647949</ele>
        <time>2013-03-24T10:56:09Z</time>
      </trkpt>
      <trkpt lat="43.60277" lon="1.1861">
        <ele>237.803802</ele>
        <time>2013-03-24T10:56:10Z</time>
      </trkpt>
      <trkpt lat="43.60277" lon="1.18608">
        <ele>237.986145</ele>
        <time>2013-03-24T10:56:11Z</time>
      </trkpt>
      <trkpt lat="43.60277" lon="1.18604">
        <ele>238.228287</ele>
        <time>2013-03-24T10:56:12Z</time>
      </trkpt>
      <trkpt lat="43.60275" lon="1.18572">
        <ele>240.315094</ele>
        <time>2013-03-24T10:56:24Z</time>
      </trkpt>
      <trkpt lat="43.60275" lon="1.18567">
        <ele>240.732819</ele>
        <time>2013-03-24T10:56:26Z</time>
      </trkpt>
      <trkpt lat="43.60275" lon="1.18565">
        <ele>240.890869</ele>
        <time>2013-03-24T10:56:27Z</time>
      </trkpt>
      <trkpt lat="43.60276" lon="1.18561">
        <ele>241.106796</ele>
        <time>2013-03-24T10:56:28Z</time>
      </trkpt>
      <trkpt lat="43.60276" lon="1.18558">
        <ele>241.339539</ele>
        <time>2013-03-24T10:56:29Z</time>
      </trkpt>
      <trkpt lat="43.60276" lon="1.18555">
        <ele>241.531067</ele>
        <time>2013-03-24T10:56:30Z</time>
      </trkpt>
      <trkpt lat="43.60273" lon="1.18523">
        <ele>243.073715</ele>
        <time>2013-03-24T10:56:40Z</time>
      </trkpt>
      <trkpt lat="43.60273" lon="1.18487">
        <ele>244.79126</ele>
        <time>2013-03-24T10:56:49Z</time>
      </trkpt>
      <trkpt lat="43.60277" lon="1.18463">
        <ele>246.048752</ele>
        <time>2013-03-24T10:56:57Z</time>
      </trkpt>
      <trkpt lat="43.60278" lon="1.1846">
        <ele>246.331253</ele>
        <time>2013-03-24T10:56:58Z</time>
      </trkpt>
      <trkpt lat="43.60279" lon="1.18456">
        <ele>246.568756</ele>
        <time>2013-03-24T10:56:59Z</time>
      </trkpt>
      <trkpt lat="43.6028" lon="1.18452">
        <ele>246.817505</ele>
        <time>2013-03-24T10:57:00Z</time>
      </trkpt>
      <trkpt lat="43.6028" lon="1.18447">
        <ele>247.053757</ele>
        <time>2013-03-24T10:57:01Z</time>
      </trkpt>
      <trkpt lat="43.60281" lon="1.18443">
        <ele>247.286255</ele>
        <time>2013-03-24T10:57:02Z</time>
      </trkpt>
      <trkpt lat="43.60287" lon="1.18409">
        <ele>249.247498</ele>
        <time>2013-03-24T10:57:11Z</time>
      </trkpt>
      <trkpt lat="43.60288" lon="1.18406">
        <ele>249.482498</ele>
        <time>2013-03-24T10:57:12Z</time>
      </trkpt>
      <trkpt lat="43.60299" lon="1.18374">
        <ele>252.159378</ele>
        <time>2013-03-24T10:57:24Z</time>
      </trkpt>
      <trkpt lat="43.60304" lon="1.18341">
        <ele>254.449432</ele>
        <time>2013-03-24T10:57:35Z</time>
      </trkpt>
      <trkpt lat="43.60309" lon="1.18312">
        <ele>256.093994</ele>
        <time>2013-03-24T10:57:45Z</time>
      </trkpt>
      <trkpt lat="43.60322" lon="1.18278">
        <ele>257.61084</ele>
        <time>2013-03-24T10:57:57Z</time>
      </trkpt>
      <trkpt lat="43.60326" lon="1.18264">
        <ele>258.152466</ele>
        <time>2013-03-24T10:58:02Z</time>
      </trkpt>
      <trkpt lat="43.60326" lon="1.18262">
        <ele>258.121979</ele>
        <time>2013-03-24T10:58:03Z</time>
      </trkpt>
      <trkpt lat="43.60327" lon="1.18259">
        <ele>258.262054</ele>
        <time>2013-03-24T10:58:04Z</time>
      </trkpt>
      <trkpt lat="43.60337" lon="1.18225">
        <ele>258.255005</ele>
        <time>2013-03-24T10:58:15Z</time>
      </trkpt>
      <trkpt lat="43.60349" lon="1.18182">
        <ele>258.22998</ele>
        <time>2013-03-24T10:58:27Z</time>
      </trkpt>
      <trkpt lat="43.6036" lon="1.18138">
        <ele>257.69751</ele>
        <time>2013-03-24T10:58:38Z</time>
      </trkpt>
      <trkpt lat="43.60378" lon="1.18097">
        <ele>260.213074</ele>
        <time>2013-03-24T10:58:49Z</time>
      </trkpt>
      <trkpt lat="43.60379" lon="1.18059">
        <ele>259.957397</ele>
        <time>2013-03-24T10:58:58Z</time>
      </trkpt>
      <trkpt lat="43.6038" lon="1.18047">
        <ele>260.305786</ele>
        <time>2013-03-24T10:59:02Z</time>
      </trkpt>
      <trkpt lat="43.60384" lon="1.18038">
        <ele>260.529938</ele>
        <time>2013-03-24T10:59:06Z</time>
      </trkpt>
      <trkpt lat="43.60377" lon="1.18019">
        <ele>261.168274</ele>
        <time>2013-03-24T10:59:16Z</time>
      </trkpt>
      <trkpt lat="43.60358" lon="1.18004">
        <ele>262.590057</ele>
        <time>2013-03-24T10:59:27Z</time>
      </trkpt>
      <trkpt lat="43.60346" lon="1.17996">
        <ele>263.675049</ele>
        <time>2013-03-24T10:59:34Z</time>
      </trkpt>
      <trkpt lat="43.6034" lon="1.1799">
        <ele>264.215057</ele>
        <time>2013-03-24T10:59:38Z</time>
      </trkpt>
      <trkpt lat="43.60327" lon="1.1798">
        <ele>264.470764</ele>
        <time>2013-03-24T10:59:48Z</time>
      </trkpt>
      <trkpt lat="43.60318" lon="1.17969">
        <ele>264.596161</ele>
        <time>2013-03-24T10:59:58Z</time>
      </trkpt>
      <trkpt lat="43.60318" lon="1.17969">
        <ele>264.596161</ele>
        <time>2013-03-24T11:00:25Z</time>
      </trkpt>
      <trkpt lat="43.60317" lon="1.17968">
        <ele>264.626648</ele>
        <time>2013-03-24T11:00:54Z</time>
      </trkpt>
      <trkpt lat="43.603" lon="1.17958">
        <ele>264.039856</ele>
        <time>2013-03-24T11:01:05Z</time>
      </trkpt>
      <trkpt lat="43.60276" lon="1.17937">
        <ele>262.512726</ele>
        <time>2013-03-24T11:01:12Z</time>
      </trkpt>
      <trkpt lat="43.60271" lon="1.17932">
        <ele>262.133728</ele>
        <time>2013-03-24T11:01:13Z</time>
      </trkpt>
      <trkpt lat="43.60265" lon="1.17928">
        <ele>261.727631</ele>
        <time>2013-03-24T11:01:14Z</time>
      </trkpt>
      <trkpt lat="43.60242" lon="1.1791">
        <ele>260.687653</ele>
        <time>2013-03-24T11:01:19Z</time>
      </trkpt>
      <trkpt lat="43.60242" lon="1.17907">
        <ele>260.794891</ele>
        <time>2013-03-24T11:01:20Z</time>
      </trkpt>
      <trkpt lat="43.60243" lon="1.17904">
        <ele>260.868378</ele>
        <time>2013-03-24T11:01:21Z</time>
      </trkpt>
      <trkpt lat="43.60244" lon="1.17901">
        <ele>260.934692</ele>
        <time>2013-03-24T11:01:22Z</time>
      </trkpt>
      <trkpt lat="43.60245" lon="1.17898">
        <ele>261.003143</ele>
        <time>2013-03-24T11:01:23Z</time>
      </trkpt>
      <trkpt lat="43.60246" lon="1.17894">
        <ele>261.063049</ele>
        <time>2013-03-24T11:01:24Z</time>
      </trkpt>
      <trkpt lat="43.60246" lon="1.17891">
        <ele>261.135498</ele>
        <time>2013-03-24T11:01:25Z</time>
      </trkpt>
      <trkpt lat="43.6026" lon="1.17849">
        <ele>265.833588</ele>
        <time>2013-03-24T11:01:38Z</time>
      </trkpt>
      <trkpt lat="43.60278" lon="1.17806">
        <ele>268.748993</ele>
        <time>2013-03-24T11:01:52Z</time>
      </trkpt>
      <trkpt lat="43.60304" lon="1.1775">
        <ele>270.612427</ele>
        <time>2013-03-24T11:02:10Z</time>
      </trkpt>
      <trkpt lat="43.60331" lon="1.17687">
        <ele>272.252472</ele>
        <time>2013-03-24T11:02:28Z</time>
      </trkpt>
      <trkpt lat="43.60333" lon="1.17684">
        <ele>272.30661</ele>
        <time>2013-03-24T11:02:45Z</time>
      </trkpt>
      <trkpt lat="43.60332" lon="1.1768">
        <ele>272.388977</ele>
        <time>2013-03-24T11:03:43Z</time>
      </trkpt>
      <trkpt lat="43.60307" lon="1.17661">
        <ele>273.099121</ele>
        <time>2013-03-24T11:03:55Z</time>
      </trkpt>
      <trkpt lat="43.60276" lon="1.17633">
        <ele>274.110626</ele>
        <time>2013-03-24T11:04:06Z</time>
      </trkpt>
      <trkpt lat="43.60291" lon="1.17591">
        <ele>274.796265</ele>
        <time>2013-03-24T11:04:16Z</time>
      </trkpt>
      <trkpt lat="43.60296" lon="1.17577">
        <ele>274.930634</ele>
        <time>2013-03-24T11:04:19Z</time>
      </trkpt>
      <trkpt lat="43.60308" lon="1.1755">
        <ele>275.096863</ele>
        <time>2013-03-24T11:04:25Z</time>
      </trkpt>
      <trkpt lat="43.60327" lon="1.17503">
        <ele>275.165283</ele>
        <time>2013-03-24T11:04:35Z</time>
      </trkpt>
      <trkpt lat="43.60356" lon="1.17462">
        <ele>274.479065</ele>
        <time>2013-03-24T11:04:45Z</time>
      </trkpt>
      <trkpt lat="43.60369" lon="1.17445">
        <ele>274.272491</ele>
        <time>2013-03-24T11:04:49Z</time>
      </trkpt>
      <trkpt lat="43.60374" lon="1.17421">
        <ele>274.144989</ele>
        <time>2013-03-24T11:04:54Z</time>
      </trkpt>
      <trkpt lat="43.60369" lon="1.17392">
        <ele>274.242493</ele>
        <time>2013-03-24T11:05:00Z</time>
      </trkpt>
      <trkpt lat="43.60364" lon="1.17385">
        <ele>274.433777</ele>
        <time>2013-03-24T11:05:02Z</time>
      </trkpt>
      <trkpt lat="43.60342" lon="1.17349">
        <ele>274.948608</ele>
        <time>2013-03-24T11:05:11Z</time>
      </trkpt>
      <trkpt lat="43.60335" lon="1.17316">
        <ele>275</ele>
        <time>2013-03-24T11:05:17Z</time>
      </trkpt>
      <trkpt lat="43.60328" lon="1.17299">
        <ele>275</ele>
        <time>2013-03-24T11:05:20Z</time>
      </trkpt>
      <trkpt lat="43.60315" lon="1.17276">
        <ele>275</ele>
        <time>2013-03-24T11:05:24Z</time>
      </trkpt>
      <trkpt lat="43.60303" lon="1.1725">
        <ele>275.094543</ele>
        <time>2013-03-24T11:05:29Z</time>
      </trkpt>
      <trkpt lat="43.6029" lon="1.17233">
        <ele>275.020355</ele>
        <time>2013-03-24T11:05:33Z</time>
      </trkpt>
      <trkpt lat="43.60282" lon="1.17226">
        <ele>274.734131</ele>
        <time>2013-03-24T11:05:35Z</time>
      </trkpt>
      <trkpt lat="43.60261" lon="1.17206">
        <ele>273.765625</ele>
        <time>2013-03-24T11:05:40Z</time>
      </trkpt>
      <trkpt lat="43.60234" lon="1.17185">
        <ele>271.908051</ele>
        <time>2013-03-24T11:05:46Z</time>
      </trkpt>
      <trkpt lat="43.6023" lon="1.17181">
        <ele>271.486145</ele>
        <time>2013-03-24T11:05:47Z</time>
      </trkpt>
      <trkpt lat="43.60224" lon="1.17178">
        <ele>271.028473</ele>
        <time>2013-03-24T11:05:48Z</time>
      </trkpt>
      <trkpt lat="43.60219" lon="1.17175">
        <ele>270.572296</ele>
        <time>2013-03-24T11:05:49Z</time>
      </trkpt>
      <trkpt lat="43.60213" lon="1.1717">
        <ele>270.142639</ele>
        <time>2013-03-24T11:05:50Z</time>
      </trkpt>
      <trkpt lat="43.60208" lon="1.17166">
        <ele>269.753723</ele>
        <time>2013-03-24T11:05:51Z</time>
      </trkpt>
      <trkpt lat="43.60203" lon="1.17162">
        <ele>269.373169</ele>
        <time>2013-03-24T11:05:52Z</time>
      </trkpt>
      <trkpt lat="43.60198" lon="1.17158">
        <ele>269</ele>
        <time>2013-03-24T11:05:53Z</time>
      </trkpt>
      <trkpt lat="43.60187" lon="1.17149">
        <ele>268.987274</ele>
        <time>2013-03-24T11:05:55Z</time>
      </trkpt>
      <trkpt lat="43.60181" lon="1.17145">
        <ele>269.059937</ele>
        <time>2013-03-24T11:05:56Z</time>
      </trkpt>
      <trkpt lat="43.60146" lon="1.17117">
        <ele>269.987488</ele>
        <time>2013-03-24T11:06:03Z</time>
      </trkpt>
      <trkpt lat="43.60141" lon="1.17114">
        <ele>270.10376</ele>
        <time>2013-03-24T11:06:04Z</time>
      </trkpt>
      <trkpt lat="43.60136" lon="1.1711">
        <ele>270.220001</ele>
        <time>2013-03-24T11:06:05Z</time>
      </trkpt>
      <trkpt lat="43.60132" lon="1.17107">
        <ele>270.338745</ele>
        <time>2013-03-24T11:06:06Z</time>
      </trkpt>
      <trkpt lat="43.60128" lon="1.17103">
        <ele>270.454987</ele>
        <time>2013-03-24T11:06:07Z</time>
      </trkpt>
      <trkpt lat="43.60124" lon="1.171">
        <ele>270.567505</ele>
        <time>2013-03-24T11:06:08Z</time>
      </trkpt>
      <trkpt lat="43.6012" lon="1.17097">
        <ele>270.670013</ele>
        <time>2013-03-24T11:06:09Z</time>
      </trkpt>
      <trkpt lat="43.60115" lon="1.17094">
        <ele>270.773743</ele>
        <time>2013-03-24T11:06:10Z</time>
      </trkpt>
      <trkpt lat="43.60111" lon="1.1709">
        <ele>270.890015</ele>
        <time>2013-03-24T11:06:11Z</time>
      </trkpt>
      <trkpt lat="43.60085" lon="1.1707">
        <ele>271.435059</ele>
        <time>2013-03-24T11:06:17Z</time>
      </trkpt>
      <trkpt lat="43.60061" lon="1.17046">
        <ele>271.654144</ele>
        <time>2013-03-24T11:06:25Z</time>
      </trkpt>
      <trkpt lat="43.60061" lon="1.17042">
        <ele>271.696991</ele>
        <time>2013-03-24T11:06:26Z</time>
      </trkpt>
      <trkpt lat="43.60062" lon="1.17039">
        <ele>271.78595</ele>
        <time>2013-03-24T11:06:27Z</time>
      </trkpt>
      <trkpt lat="43.60068" lon="1.17022">
        <ele>272.150604</ele>
        <time>2013-03-24T11:06:32Z</time>
      </trkpt>
      <trkpt lat="43.60069" lon="1.17018">
        <ele>272.17688</ele>
        <time>2013-03-24T11:06:33Z</time>
      </trkpt>
      <trkpt lat="43.60085" lon="1.16971">
        <ele>272.993683</ele>
        <time>2013-03-24T11:06:44Z</time>
      </trkpt>
      <trkpt lat="43.601" lon="1.16928">
        <ele>274.221436</ele>
        <time>2013-03-24T11:06:54Z</time>
      </trkpt>
      <trkpt lat="43.60112" lon="1.16898">
        <ele>275.447906</ele>
        <time>2013-03-24T11:07:02Z</time>
      </trkpt>
      <trkpt lat="43.60118" lon="1.16864">
        <ele>277.047516</ele>
        <time>2013-03-24T11:07:09Z</time>
      </trkpt>
      <trkpt lat="43.60118" lon="1.16861">
        <ele>277.176727</ele>
        <time>2013-03-24T11:07:10Z</time>
      </trkpt>
      <trkpt lat="43.60121" lon="1.16837">
        <ele>278.069519</ele>
        <time>2013-03-24T11:07:15Z</time>
      </trkpt>
      <trkpt lat="43.60121" lon="1.16833">
        <ele>278.246521</ele>
        <time>2013-03-24T11:07:16Z</time>
      </trkpt>
      <trkpt lat="43.60121" lon="1.16828">
        <ele>278.425629</ele>
        <time>2013-03-24T11:07:17Z</time>
      </trkpt>
      <trkpt lat="43.60125" lon="1.16807">
        <ele>279.082886</ele>
        <time>2013-03-24T11:07:22Z</time>
      </trkpt>
      <trkpt lat="43.60125" lon="1.16802">
        <ele>279.23761</ele>
        <time>2013-03-24T11:07:23Z</time>
      </trkpt>
      <trkpt lat="43.60125" lon="1.16798">
        <ele>279.359589</ele>
        <time>2013-03-24T11:07:24Z</time>
      </trkpt>
      <trkpt lat="43.60126" lon="1.16794">
        <ele>279.497772</ele>
        <time>2013-03-24T11:07:25Z</time>
      </trkpt>
      <trkpt lat="43.60126" lon="1.1679">
        <ele>279.639832</ele>
        <time>2013-03-24T11:07:26Z</time>
      </trkpt>
      <trkpt lat="43.60118" lon="1.16735">
        <ele>281.698761</ele>
        <time>2013-03-24T11:07:37Z</time>
      </trkpt>
      <trkpt lat="43.60113" lon="1.16681">
        <ele>283.236328</ele>
        <time>2013-03-24T11:07:50Z</time>
      </trkpt>
      <trkpt lat="43.60118" lon="1.16625">
        <ele>284.121857</ele>
        <time>2013-03-24T11:08:02Z</time>
      </trkpt>
      <trkpt lat="43.6012" lon="1.16594">
        <ele>284.578125</ele>
        <time>2013-03-24T11:08:11Z</time>
      </trkpt>
      <trkpt lat="43.60121" lon="1.16591">
        <ele>284.587494</ele>
        <time>2013-03-24T11:08:12Z</time>
      </trkpt>
      <trkpt lat="43.60123" lon="1.1659">
        <ele>284.529999</ele>
        <time>2013-03-24T11:08:14Z</time>
      </trkpt>
      <trkpt lat="43.60124" lon="1.16592">
        <ele>284.5</ele>
        <time>2013-03-24T11:08:15Z</time>
      </trkpt>
      <trkpt lat="43.60126" lon="1.16593">
        <ele>284.449371</ele>
        <time>2013-03-24T11:08:16Z</time>
      </trkpt>
      <trkpt lat="43.60127" lon="1.16595">
        <ele>284.391266</ele>
        <time>2013-03-24T11:08:17Z</time>
      </trkpt>
      <trkpt lat="43.60129" lon="1.16596">
        <ele>284.337494</ele>
        <time>2013-03-24T11:08:18Z</time>
      </trkpt>
      <trkpt lat="43.6013" lon="1.16598">
        <ele>284.28064</ele>
        <time>2013-03-24T11:08:19Z</time>
      </trkpt>
      <trkpt lat="43.60132" lon="1.16599">
        <ele>284.21875</ele>
        <time>2013-03-24T11:08:20Z</time>
      </trkpt>
      <trkpt lat="43.60133" lon="1.16601">
        <ele>284.154358</ele>
        <time>2013-03-24T11:08:21Z</time>
      </trkpt>
      <trkpt lat="43.60135" lon="1.16603">
        <ele>284.090637</ele>
        <time>2013-03-24T11:08:22Z</time>
      </trkpt>
      <trkpt lat="43.60136" lon="1.16605">
        <ele>284.023132</ele>
        <time>2013-03-24T11:08:23Z</time>
      </trkpt>
      <trkpt lat="43.60138" lon="1.16607">
        <ele>283.963135</ele>
        <time>2013-03-24T11:08:24Z</time>
      </trkpt>
      <trkpt lat="43.60139" lon="1.16608">
        <ele>283.900635</ele>
        <time>2013-03-24T11:08:25Z</time>
      </trkpt>
      <trkpt lat="43.60141" lon="1.16609">
        <ele>283.850616</ele>
        <time>2013-03-24T11:08:26Z</time>
      </trkpt>
      <trkpt lat="43.60142" lon="1.1661">
        <ele>283.81189</ele>
        <time>2013-03-24T11:08:27Z</time>
      </trkpt>
      <trkpt lat="43.60143" lon="1.16611">
        <ele>283.768127</ele>
        <time>2013-03-24T11:08:28Z</time>
      </trkpt>
      <trkpt lat="43.60144" lon="1.16612">
        <ele>283.724365</ele>
        <time>2013-03-24T11:08:29Z</time>
      </trkpt>
      <trkpt lat="43.6016" lon="1.16611">
        <ele>283.08313</ele>
        <time>2013-03-24T11:08:40Z</time>
      </trkpt>
      <trkpt lat="43.60183" lon="1.16603">
        <ele>282.215637</ele>
        <time>2013-03-24T11:08:49Z</time>
      </trkpt>
      <trkpt lat="43.60184" lon="1.16603">
        <ele>282.149994</ele>
        <time>2013-03-24T11:08:50Z</time>
      </trkpt>
      <trkpt lat="43.60207" lon="1.16596">
        <ele>281.26059</ele>
        <time>2013-03-24T11:09:00Z</time>
      </trkpt>
      <trkpt lat="43.60228" lon="1.16589">
        <ele>280.404999</ele>
        <time>2013-03-24T11:09:07Z</time>
      </trkpt>
      <trkpt lat="43.60231" lon="1.16587">
        <ele>280.269989</ele>
        <time>2013-03-24T11:09:08Z</time>
      </trkpt>
      <trkpt lat="43.60261" lon="1.16579">
        <ele>278.836975</ele>
        <time>2013-03-24T11:09:18Z</time>
      </trkpt>
      <trkpt lat="43.60273" lon="1.16583">
        <ele>278.289886</ele>
        <time>2013-03-24T11:09:22Z</time>
      </trkpt>
      <trkpt lat="43.60276" lon="1.16586">
        <ele>278.205688</ele>
        <time>2013-03-24T11:09:23Z</time>
      </trkpt>
      <trkpt lat="43.60279" lon="1.16587">
        <ele>278.069733</ele>
        <time>2013-03-24T11:09:24Z</time>
      </trkpt>
      <trkpt lat="43.60285" lon="1.16586">
        <ele>277.757446</ele>
        <time>2013-03-24T11:09:25Z</time>
      </trkpt>
      <trkpt lat="43.60289" lon="1.16587">
        <ele>277.498474</ele>
        <time>2013-03-24T11:09:26Z</time>
      </trkpt>
      <trkpt lat="43.60293" lon="1.16588">
        <ele>277.214447</ele>
        <time>2013-03-24T11:09:27Z</time>
      </trkpt>
      <trkpt lat="43.60299" lon="1.16588">
        <ele>276.870331</ele>
        <time>2013-03-24T11:09:28Z</time>
      </trkpt>
      <trkpt lat="43.60305" lon="1.16588">
        <ele>276.469696</ele>
        <time>2013-03-24T11:09:29Z</time>
      </trkpt>
      <trkpt lat="43.60311" lon="1.16588">
        <ele>276.055725</ele>
        <time>2013-03-24T11:09:30Z</time>
      </trkpt>
      <trkpt lat="43.60317" lon="1.16588">
        <ele>275.635925</ele>
        <time>2013-03-24T11:09:31Z</time>
      </trkpt>
      <trkpt lat="43.60323" lon="1.16589">
        <ele>275.271057</ele>
        <time>2013-03-24T11:09:32Z</time>
      </trkpt>
      <trkpt lat="43.60328" lon="1.1659">
        <ele>275.002625</ele>
        <time>2013-03-24T11:09:33Z</time>
      </trkpt>
      <trkpt lat="43.60333" lon="1.16591">
        <ele>274.845398</ele>
        <time>2013-03-24T11:09:34Z</time>
      </trkpt>
      <trkpt lat="43.60343" lon="1.16595">
        <ele>274.4664</ele>
        <time>2013-03-24T11:09:36Z</time>
      </trkpt>
      <trkpt lat="43.60357" lon="1.16601">
        <ele>273.929779</ele>
        <time>2013-03-24T11:09:39Z</time>
      </trkpt>
      <trkpt lat="43.60362" lon="1.16604">
        <ele>273.76297</ele>
        <time>2013-03-24T11:09:40Z</time>
      </trkpt>
      <trkpt lat="43.60372" lon="1.16611">
        <ele>273.411072</ele>
        <time>2013-03-24T11:09:42Z</time>
      </trkpt>
      <trkpt lat="43.60398" lon="1.16631">
        <ele>272.586884</ele>
        <time>2013-03-24T11:09:49Z</time>
      </trkpt>
      <trkpt lat="43.60401" lon="1.16634">
        <ele>272.48999</ele>
        <time>2013-03-24T11:09:50Z</time>
      </trkpt>
      <trkpt lat="43.60404" lon="1.16637">
        <ele>272.411255</ele>
        <time>2013-03-24T11:09:51Z</time>
      </trkpt>
      <trkpt lat="43.60408" lon="1.16639">
        <ele>272.288116</ele>
        <time>2013-03-24T11:09:52Z</time>
      </trkpt>
      <trkpt lat="43.60412" lon="1.16641">
        <ele>272.143127</ele>
        <time>2013-03-24T11:09:53Z</time>
      </trkpt>
      <trkpt lat="43.60416" lon="1.16642">
        <ele>271.980621</ele>
        <time>2013-03-24T11:09:54Z</time>
      </trkpt>
      <trkpt lat="43.60419" lon="1.16643">
        <ele>271.725769</ele>
        <time>2013-03-24T11:09:55Z</time>
      </trkpt>
      <trkpt lat="43.60433" lon="1.16646">
        <ele>270.611084</ele>
        <time>2013-03-24T11:09:59Z</time>
      </trkpt>
      <trkpt lat="43.60436" lon="1.16649">
        <ele>270.389069</ele>
        <time>2013-03-24T11:10:00Z</time>
      </trkpt>
      <trkpt lat="43.60439" lon="1.16652">
        <ele>270.204163</ele>
        <time>2013-03-24T11:10:01Z</time>
      </trkpt>
      <trkpt lat="43.60442" lon="1.16655">
        <ele>269.990845</ele>
        <time>2013-03-24T11:10:02Z</time>
      </trkpt>
      <trkpt lat="43.60446" lon="1.16659">
        <ele>269.762146</ele>
        <time>2013-03-24T11:10:03Z</time>
      </trkpt>
      <trkpt lat="43.6045" lon="1.16662">
        <ele>269.529083</ele>
        <time>2013-03-24T11:10:04Z</time>
      </trkpt>
      <trkpt lat="43.60454" lon="1.16666">
        <ele>269.250916</ele>
        <time>2013-03-24T11:10:05Z</time>
      </trkpt>
      <trkpt lat="43.60458" lon="1.16669">
        <ele>269.053131</ele>
        <time>2013-03-24T11:10:06Z</time>
      </trkpt>
      <trkpt lat="43.60461" lon="1.16672">
        <ele>268.979919</ele>
        <time>2013-03-24T11:10:07Z</time>
      </trkpt>
      <trkpt lat="43.60463" lon="1.16675">
        <ele>268.892517</ele>
        <time>2013-03-24T11:10:08Z</time>
      </trkpt>
      <trkpt lat="43.60466" lon="1.16678">
        <ele>268.78125</ele>
        <time>2013-03-24T11:10:09Z</time>
      </trkpt>
      <trkpt lat="43.60469" lon="1.1668">
        <ele>268.673889</ele>
        <time>2013-03-24T11:10:10Z</time>
      </trkpt>
      <trkpt lat="43.60472" lon="1.16683">
        <ele>268.569946</ele>
        <time>2013-03-24T11:10:11Z</time>
      </trkpt>
      <trkpt lat="43.60475" lon="1.16686">
        <ele>268.4646</ele>
        <time>2013-03-24T11:10:12Z</time>
      </trkpt>
      <trkpt lat="43.60478" lon="1.16689">
        <ele>268.362366</ele>
        <time>2013-03-24T11:10:13Z</time>
      </trkpt>
      <trkpt lat="43.6048" lon="1.16692">
        <ele>268.241882</ele>
        <time>2013-03-24T11:10:14Z</time>
      </trkpt>
      <trkpt lat="43.60482" lon="1.16695">
        <ele>268.124664</ele>
        <time>2013-03-24T11:10:15Z</time>
      </trkpt>
      <trkpt lat="43.60485" lon="1.16698">
        <ele>267.964325</ele>
        <time>2013-03-24T11:10:16Z</time>
      </trkpt>
      <trkpt lat="43.60504" lon="1.1672">
        <ele>266.972504</ele>
        <time>2013-03-24T11:10:23Z</time>
      </trkpt>
      <trkpt lat="43.60517" lon="1.16738">
        <ele>267.085907</ele>
        <time>2013-03-24T11:10:30Z</time>
      </trkpt>
      <trkpt lat="43.60545" lon="1.16769">
        <ele>265.745636</ele>
        <time>2013-03-24T11:10:39Z</time>
      </trkpt>
      <trkpt lat="43.60568" lon="1.16808">
        <ele>265.905609</ele>
        <time>2013-03-24T11:10:47Z</time>
      </trkpt>
      <trkpt lat="43.60581" lon="1.16834">
        <ele>265.190002</ele>
        <time>2013-03-24T11:10:52Z</time>
      </trkpt>
      <trkpt lat="43.60595" lon="1.1686">
        <ele>264.48999</ele>
        <time>2013-03-24T11:10:57Z</time>
      </trkpt>
      <trkpt lat="43.60599" lon="1.16873">
        <ele>264.491241</ele>
        <time>2013-03-24T11:10:59Z</time>
      </trkpt>
      <trkpt lat="43.60608" lon="1.16891">
        <ele>264.4086</ele>
        <time>2013-03-24T11:11:05Z</time>
      </trkpt>
      <trkpt lat="43.60625" lon="1.16932">
        <ele>263.65094</ele>
        <time>2013-03-24T11:11:14Z</time>
      </trkpt>
      <trkpt lat="43.60624" lon="1.16957">
        <ele>263.814392</ele>
        <time>2013-03-24T11:11:21Z</time>
      </trkpt>
      <trkpt lat="43.60629" lon="1.16975">
        <ele>263.282776</ele>
        <time>2013-03-24T11:11:26Z</time>
      </trkpt>
      <trkpt lat="43.60638" lon="1.17015">
        <ele>261.875</ele>
        <time>2013-03-24T11:11:34Z</time>
      </trkpt>
      <trkpt lat="43.60644" lon="1.17031">
        <ele>261.25</ele>
        <time>2013-03-24T11:11:37Z</time>
      </trkpt>
      <trkpt lat="43.60648" lon="1.17048">
        <ele>260.974365</ele>
        <time>2013-03-24T11:11:40Z</time>
      </trkpt>
      <trkpt lat="43.60655" lon="1.17067">
        <ele>260.711517</ele>
        <time>2013-03-24T11:11:44Z</time>
      </trkpt>
      <trkpt lat="43.60668" lon="1.17112">
        <ele>261.254608</ele>
        <time>2013-03-24T11:11:52Z</time>
      </trkpt>
      <trkpt lat="43.60679" lon="1.17136">
        <ele>261.183014</ele>
        <time>2013-03-24T11:11:56Z</time>
      </trkpt>
      <trkpt lat="43.60686" lon="1.17148">
        <ele>260.946259</ele>
        <time>2013-03-24T11:11:58Z</time>
      </trkpt>
      <trkpt lat="43.60698" lon="1.17187">
        <ele>261.185547</ele>
        <time>2013-03-24T11:12:04Z</time>
      </trkpt>
      <trkpt lat="43.60712" lon="1.17229">
        <ele>259.635254</ele>
        <time>2013-03-24T11:12:15Z</time>
      </trkpt>
      <trkpt lat="43.60723" lon="1.17265">
        <ele>258.313568</ele>
        <time>2013-03-24T11:12:22Z</time>
      </trkpt>
      <trkpt lat="43.60734" lon="1.1729">
        <ele>258.740082</ele>
        <time>2013-03-24T11:12:29Z</time>
      </trkpt>
      <trkpt lat="43.60755" lon="1.1731">
        <ele>259.252563</ele>
        <time>2013-03-24T11:12:36Z</time>
      </trkpt>
      <trkpt lat="43.60759" lon="1.17311">
        <ele>259.117645</ele>
        <time>2013-03-24T11:12:38Z</time>
      </trkpt>
      <trkpt lat="43.60781" lon="1.17324">
        <ele>258.694702</ele>
        <time>2013-03-24T11:12:45Z</time>
      </trkpt>
      <trkpt lat="43.60801" lon="1.17342">
        <ele>260.171295</ele>
        <time>2013-03-24T11:12:51Z</time>
      </trkpt>
      <trkpt lat="43.60811" lon="1.17347">
        <ele>260.422699</ele>
        <time>2013-03-24T11:12:53Z</time>
      </trkpt>
      <trkpt lat="43.60831" lon="1.17367">
        <ele>261.470886</ele>
        <time>2013-03-24T11:12:59Z</time>
      </trkpt>
      <trkpt lat="43.60837" lon="1.1737">
        <ele>261.106079</ele>
        <time>2013-03-24T11:13:11Z</time>
      </trkpt>
      <trkpt lat="43.60841" lon="1.17368">
        <ele>260.520935</ele>
        <time>2013-03-24T11:13:20Z</time>
      </trkpt>
      <trkpt lat="43.60856" lon="1.17361">
        <ele>258.289917</ele>
        <time>2013-03-24T11:13:23Z</time>
      </trkpt>
      <trkpt lat="43.6088" lon="1.17367">
        <ele>256.350494</ele>
        <time>2013-03-24T11:13:27Z</time>
      </trkpt>
      <trkpt lat="43.60894" lon="1.17376">
        <ele>255.167297</ele>
        <time>2013-03-24T11:13:30Z</time>
      </trkpt>
      <trkpt lat="43.60906" lon="1.17384">
        <ele>254.011139</ele>
        <time>2013-03-24T11:13:33Z</time>
      </trkpt>
      <trkpt lat="43.60928" lon="1.17402">
        <ele>253.496429</ele>
        <time>2013-03-24T11:13:40Z</time>
      </trkpt>
      <trkpt lat="43.60945" lon="1.17412">
        <ele>253.830475</ele>
        <time>2013-03-24T11:13:44Z</time>
      </trkpt>
      <trkpt lat="43.60973" lon="1.17424">
        <ele>253.933151</ele>
        <time>2013-03-24T11:13:50Z</time>
      </trkpt>
      <trkpt lat="43.60983" lon="1.17431">
        <ele>253.551498</ele>
        <time>2013-03-24T11:13:52Z</time>
      </trkpt>
      <trkpt lat="43.61005" lon="1.17445">
        <ele>252.173401</ele>
        <time>2013-03-24T11:13:56Z</time>
      </trkpt>
      <trkpt lat="43.6103" lon="1.17464">
        <ele>252.375031</ele>
        <time>2013-03-24T11:14:01Z</time>
      </trkpt>
      <trkpt lat="43.6105" lon="1.17496">
        <ele>253.275757</ele>
        <time>2013-03-24T11:14:09Z</time>
      </trkpt>
      <trkpt lat="43.6106" lon="1.17521">
        <ele>253.471497</ele>
        <time>2013-03-24T11:14:19Z</time>
      </trkpt>
      <trkpt lat="43.61061" lon="1.17523">
        <ele>253.477219</ele>
        <time>2013-03-24T11:14:20Z</time>
      </trkpt>
      <trkpt lat="43.61065" lon="1.17529">
        <ele>253.322662</ele>
        <time>2013-03-24T11:14:23Z</time>
      </trkpt>
      <trkpt lat="43.61068" lon="1.17537">
        <ele>253.232758</ele>
        <time>2013-03-24T11:14:31Z</time>
      </trkpt>
      <trkpt lat="43.61071" lon="1.17542">
        <ele>253.169785</ele>
        <time>2013-03-24T11:14:36Z</time>
      </trkpt>
      <trkpt lat="43.61076" lon="1.1756">
        <ele>253.329575</ele>
        <time>2013-03-24T11:14:44Z</time>
      </trkpt>
      <trkpt lat="43.61076" lon="1.17561">
        <ele>253.324219</ele>
        <time>2013-03-24T11:14:45Z</time>
      </trkpt>
      <trkpt lat="43.61077" lon="1.17568">
        <ele>253.380005</ele>
        <time>2013-03-24T11:14:47Z</time>
      </trkpt>
      <trkpt lat="43.61081" lon="1.17577">
        <ele>253.223755</ele>
        <time>2013-03-24T11:14:50Z</time>
      </trkpt>
      <trkpt lat="43.61091" lon="1.17617">
        <ele>253.183746</ele>
        <time>2013-03-24T11:15:01Z</time>
      </trkpt>
      <trkpt lat="43.61093" lon="1.17633">
        <ele>254.068436</ele>
        <time>2013-03-24T11:15:05Z</time>
      </trkpt>
      <trkpt lat="43.61112" lon="1.17696">
        <ele>256.920319</ele>
        <time>2013-03-24T11:15:17Z</time>
      </trkpt>
      <trkpt lat="43.61127" lon="1.17742">
        <ele>258.460999</ele>
        <time>2013-03-24T11:15:26Z</time>
      </trkpt>
      <trkpt lat="43.61143" lon="1.17805">
        <ele>259.484894</ele>
        <time>2013-03-24T11:15:38Z</time>
      </trkpt>
      <trkpt lat="43.61146" lon="1.17818">
        <ele>259.445709</ele>
        <time>2013-03-24T11:15:40Z</time>
      </trkpt>
      <trkpt lat="43.61148" lon="1.17824">
        <ele>259.331726</ele>
        <time>2013-03-24T11:15:41Z</time>
      </trkpt>
      <trkpt lat="43.6115" lon="1.17831">
        <ele>259.293427</ele>
        <time>2013-03-24T11:15:42Z</time>
      </trkpt>
      <trkpt lat="43.61151" lon="1.17837">
        <ele>259.319855</ele>
        <time>2013-03-24T11:15:43Z</time>
      </trkpt>
      <trkpt lat="43.61152" lon="1.17843">
        <ele>259.299103</ele>
        <time>2013-03-24T11:15:44Z</time>
      </trkpt>
      <trkpt lat="43.61154" lon="1.17848">
        <ele>259.153931</ele>
        <time>2013-03-24T11:15:45Z</time>
      </trkpt>
      <trkpt lat="43.61156" lon="1.17852">
        <ele>259.037201</ele>
        <time>2013-03-24T11:15:46Z</time>
      </trkpt>
      <trkpt lat="43.61157" lon="1.17855">
        <ele>259.01474</ele>
        <time>2013-03-24T11:15:47Z</time>
      </trkpt>
      <trkpt lat="43.61158" lon="1.17858">
        <ele>258.992188</ele>
        <time>2013-03-24T11:15:48Z</time>
      </trkpt>
      <trkpt lat="43.6116" lon="1.17862">
        <ele>258.947632</ele>
        <time>2013-03-24T11:15:49Z</time>
      </trkpt>
      <trkpt lat="43.61172" lon="1.17891">
        <ele>258.58902</ele>
        <time>2013-03-24T11:15:57Z</time>
      </trkpt>
      <trkpt lat="43.61173" lon="1.17895">
        <ele>258.5466</ele>
        <time>2013-03-24T11:15:58Z</time>
      </trkpt>
      <trkpt lat="43.61174" lon="1.17899">
        <ele>258.562469</ele>
        <time>2013-03-24T11:15:59Z</time>
      </trkpt>
      <trkpt lat="43.61176" lon="1.17903">
        <ele>258.57486</ele>
        <time>2013-03-24T11:16:00Z</time>
      </trkpt>
      <trkpt lat="43.61177" lon="1.17908">
        <ele>258.583557</ele>
        <time>2013-03-24T11:16:01Z</time>
      </trkpt>
      <trkpt lat="43.61178" lon="1.17912">
        <ele>258.639679</ele>
        <time>2013-03-24T11:16:02Z</time>
      </trkpt>
      <trkpt lat="43.61179" lon="1.17917">
        <ele>258.717163</ele>
        <time>2013-03-24T11:16:03Z</time>
      </trkpt>
      <trkpt lat="43.6118" lon="1.17922">
        <ele>258.785522</ele>
        <time>2013-03-24T11:16:04Z</time>
      </trkpt>
      <trkpt lat="43.61181" lon="1.17927">
        <ele>258.852905</ele>
        <time>2013-03-24T11:16:05Z</time>
      </trkpt>
      <trkpt lat="43.61181" lon="1.17931">
        <ele>258.952515</ele>
        <time>2013-03-24T11:16:06Z</time>
      </trkpt>
      <trkpt lat="43.61182" lon="1.17936">
        <ele>259.078766</ele>
        <time>2013-03-24T11:16:07Z</time>
      </trkpt>
      <trkpt lat="43.61183" lon="1.17941">
        <ele>259.173737</ele>
        <time>2013-03-24T11:16:08Z</time>
      </trkpt>
      <trkpt lat="43.61197" lon="1.1799">
        <ele>259.839386</ele>
        <time>2013-03-24T11:16:18Z</time>
      </trkpt>
      <trkpt lat="43.61209" lon="1.1804">
        <ele>259.025726</ele>
        <time>2013-03-24T11:16:27Z</time>
      </trkpt>
      <trkpt lat="43.61212" lon="1.18053">
        <ele>258.944916</ele>
        <time>2013-03-24T11:16:29Z</time>
      </trkpt>
      <trkpt lat="43.61213" lon="1.1806">
        <ele>258.986877</ele>
        <time>2013-03-24T11:16:30Z</time>
      </trkpt>
      <trkpt lat="43.61216" lon="1.18073">
        <ele>259.025635</ele>
        <time>2013-03-24T11:16:32Z</time>
      </trkpt>
      <trkpt lat="43.61217" lon="1.1808">
        <ele>259.033752</ele>
        <time>2013-03-24T11:16:33Z</time>
      </trkpt>
      <trkpt lat="43.61218" lon="1.18086">
        <ele>259.068756</ele>
        <time>2013-03-24T11:16:34Z</time>
      </trkpt>
      <trkpt lat="43.61221" lon="1.18099">
        <ele>259.109375</ele>
        <time>2013-03-24T11:16:36Z</time>
      </trkpt>
      <trkpt lat="43.61223" lon="1.18105">
        <ele>259.063751</ele>
        <time>2013-03-24T11:16:37Z</time>
      </trkpt>
      <trkpt lat="43.61226" lon="1.18111">
        <ele>259.005005</ele>
        <time>2013-03-24T11:16:38Z</time>
      </trkpt>
      <trkpt lat="43.61228" lon="1.18116">
        <ele>258.956604</ele>
        <time>2013-03-24T11:16:39Z</time>
      </trkpt>
      <trkpt lat="43.61229" lon="1.18122">
        <ele>258.830505</ele>
        <time>2013-03-24T11:16:40Z</time>
      </trkpt>
      <trkpt lat="43.61251" lon="1.18177">
        <ele>257.60498</ele>
        <time>2013-03-24T11:16:50Z</time>
      </trkpt>
      <trkpt lat="43.61256" lon="1.18182">
        <ele>257.360992</ele>
        <time>2013-03-24T11:16:51Z</time>
      </trkpt>
      <trkpt lat="43.61272" lon="1.18199">
        <ele>256.588593</ele>
        <time>2013-03-24T11:16:55Z</time>
      </trkpt>
      <trkpt lat="43.61288" lon="1.18215">
        <ele>255.994995</ele>
        <time>2013-03-24T11:16:59Z</time>
      </trkpt>
      <trkpt lat="43.61293" lon="1.1822">
        <ele>255.889999</ele>
        <time>2013-03-24T11:17:00Z</time>
      </trkpt>
      <trkpt lat="43.61298" lon="1.18223">
        <ele>255.789993</ele>
        <time>2013-03-24T11:17:01Z</time>
      </trkpt>
      <trkpt lat="43.61303" lon="1.18227">
        <ele>255.675003</ele>
        <time>2013-03-24T11:17:02Z</time>
      </trkpt>
      <trkpt lat="43.61308" lon="1.18229">
        <ele>255.565002</ele>
        <time>2013-03-24T11:17:03Z</time>
      </trkpt>
      <trkpt lat="43.61312" lon="1.18232">
        <ele>255.460007</ele>
        <time>2013-03-24T11:17:04Z</time>
      </trkpt>
      <trkpt lat="43.61317" lon="1.18235">
        <ele>255.354996</ele>
        <time>2013-03-24T11:17:05Z</time>
      </trkpt>
      <trkpt lat="43.61322" lon="1.18235">
        <ele>255.25</ele>
        <time>2013-03-24T11:17:06Z</time>
      </trkpt>
      <trkpt lat="43.61326" lon="1.18234">
        <ele>255.154999</ele>
        <time>2013-03-24T11:17:07Z</time>
      </trkpt>
      <trkpt lat="43.6133" lon="1.18232">
        <ele>255.072495</ele>
        <time>2013-03-24T11:17:08Z</time>
      </trkpt>
      <trkpt lat="43.61334" lon="1.1823">
        <ele>254.985001</ele>
        <time>2013-03-24T11:17:09Z</time>
      </trkpt>
      <trkpt lat="43.61339" lon="1.1823">
        <ele>254.880005</ele>
        <time>2013-03-24T11:17:10Z</time>
      </trkpt>
      <trkpt lat="43.61343" lon="1.1823">
        <ele>254.777496</ele>
        <time>2013-03-24T11:17:11Z</time>
      </trkpt>
      <trkpt lat="43.61347" lon="1.18229">
        <ele>254.684998</ele>
        <time>2013-03-24T11:17:12Z</time>
      </trkpt>
      <trkpt lat="43.61352" lon="1.18227">
        <ele>254.570007</ele>
        <time>2013-03-24T11:17:13Z</time>
      </trkpt>
      <trkpt lat="43.61358" lon="1.18226">
        <ele>254.455002</ele>
        <time>2013-03-24T11:17:14Z</time>
      </trkpt>
      <trkpt lat="43.61362" lon="1.18225">
        <ele>254.345001</ele>
        <time>2013-03-24T11:17:15Z</time>
      </trkpt>
      <trkpt lat="43.61367" lon="1.18223">
        <ele>254.247498</ele>
        <time>2013-03-24T11:17:16Z</time>
      </trkpt>
      <trkpt lat="43.61371" lon="1.18222">
        <ele>254.162506</ele>
        <time>2013-03-24T11:17:17Z</time>
      </trkpt>
      <trkpt lat="43.61376" lon="1.18222">
        <ele>254.052505</ele>
        <time>2013-03-24T11:17:18Z</time>
      </trkpt>
      <trkpt lat="43.61381" lon="1.18221">
        <ele>253.985306</ele>
        <time>2013-03-24T11:17:19Z</time>
      </trkpt>
      <trkpt lat="43.61386" lon="1.1822">
        <ele>253.954742</ele>
        <time>2013-03-24T11:17:20Z</time>
      </trkpt>
      <trkpt lat="43.61391" lon="1.18218">
        <ele>253.916443</ele>
        <time>2013-03-24T11:17:21Z</time>
      </trkpt>
      <trkpt lat="43.61396" lon="1.18216">
        <ele>253.869827</ele>
        <time>2013-03-24T11:17:22Z</time>
      </trkpt>
      <trkpt lat="43.61401" lon="1.18214">
        <ele>253.816254</ele>
        <time>2013-03-24T11:17:23Z</time>
      </trkpt>
      <trkpt lat="43.61412" lon="1.18211">
        <ele>253.68959</ele>
        <time>2013-03-24T11:17:25Z</time>
      </trkpt>
      <trkpt lat="43.61467" lon="1.18195">
        <ele>252.102661</ele>
        <time>2013-03-24T11:17:34Z</time>
      </trkpt>
      <trkpt lat="43.61479" lon="1.18193">
        <ele>251.559875</ele>
        <time>2013-03-24T11:17:36Z</time>
      </trkpt>
      <trkpt lat="43.61485" lon="1.18192">
        <ele>251.289993</ele>
        <time>2013-03-24T11:17:37Z</time>
      </trkpt>
      <trkpt lat="43.61508" lon="1.18188">
        <ele>250.226181</ele>
        <time>2013-03-24T11:17:41Z</time>
      </trkpt>
      <trkpt lat="43.61518" lon="1.18188">
        <ele>249.792496</ele>
        <time>2013-03-24T11:17:43Z</time>
      </trkpt>
      <trkpt lat="43.61523" lon="1.18188">
        <ele>249.587509</ele>
        <time>2013-03-24T11:17:44Z</time>
      </trkpt>
      <trkpt lat="43.61528" lon="1.18188">
        <ele>249.392502</ele>
        <time>2013-03-24T11:17:45Z</time>
      </trkpt>
      <trkpt lat="43.61533" lon="1.18188">
        <ele>249.157501</ele>
        <time>2013-03-24T11:17:46Z</time>
      </trkpt>
      <trkpt lat="43.61537" lon="1.18186">
        <ele>248.872498</ele>
        <time>2013-03-24T11:17:47Z</time>
      </trkpt>
      <trkpt lat="43.6154" lon="1.18183">
        <ele>248.547501</ele>
        <time>2013-03-24T11:17:48Z</time>
      </trkpt>
      <trkpt lat="43.61545" lon="1.18182">
        <ele>248.232498</ele>
        <time>2013-03-24T11:17:49Z</time>
      </trkpt>
      <trkpt lat="43.61555" lon="1.1818">
        <ele>247.712494</ele>
        <time>2013-03-24T11:17:51Z</time>
      </trkpt>
      <trkpt lat="43.61575" lon="1.18183">
        <ele>246.227493</ele>
        <time>2013-03-24T11:17:55Z</time>
      </trkpt>
      <trkpt lat="43.6158" lon="1.18185">
        <ele>245.985001</ele>
        <time>2013-03-24T11:17:56Z</time>
      </trkpt>
      <trkpt lat="43.61584" lon="1.18189">
        <ele>245.832504</ele>
        <time>2013-03-24T11:17:57Z</time>
      </trkpt>
      <trkpt lat="43.61587" lon="1.18193">
        <ele>245.802505</ele>
        <time>2013-03-24T11:17:58Z</time>
      </trkpt>
      <trkpt lat="43.61591" lon="1.18198">
        <ele>245.804993</ele>
        <time>2013-03-24T11:17:59Z</time>
      </trkpt>
      <trkpt lat="43.61596" lon="1.18202">
        <ele>245.664993</ele>
        <time>2013-03-24T11:18:00Z</time>
      </trkpt>
      <trkpt lat="43.61601" lon="1.18204">
        <ele>245.354996</ele>
        <time>2013-03-24T11:18:01Z</time>
      </trkpt>
      <trkpt lat="43.61607" lon="1.18207">
        <ele>245.028809</ele>
        <time>2013-03-24T11:18:02Z</time>
      </trkpt>
      <trkpt lat="43.61613" lon="1.18211">
        <ele>244.684357</ele>
        <time>2013-03-24T11:18:03Z</time>
      </trkpt>
      <trkpt lat="43.61619" lon="1.18213">
        <ele>244.265961</ele>
        <time>2013-03-24T11:18:04Z</time>
      </trkpt>
      <trkpt lat="43.61624" lon="1.18213">
        <ele>243.747665</ele>
        <time>2013-03-24T11:18:05Z</time>
      </trkpt>
      <trkpt lat="43.6163" lon="1.18211">
        <ele>243.093506</ele>
        <time>2013-03-24T11:18:06Z</time>
      </trkpt>
      <trkpt lat="43.61635" lon="1.1821">
        <ele>242.515198</ele>
        <time>2013-03-24T11:18:07Z</time>
      </trkpt>
      <trkpt lat="43.6164" lon="1.1821">
        <ele>242.074585</ele>
        <time>2013-03-24T11:18:08Z</time>
      </trkpt>
      <trkpt lat="43.61644" lon="1.18211">
        <ele>241.739548</ele>
        <time>2013-03-24T11:18:09Z</time>
      </trkpt>
      <trkpt lat="43.61647" lon="1.18212">
        <ele>241.533646</ele>
        <time>2013-03-24T11:18:10Z</time>
      </trkpt>
      <trkpt lat="43.6165" lon="1.18215">
        <ele>241.516281</ele>
        <time>2013-03-24T11:18:11Z</time>
      </trkpt>
      <trkpt lat="43.61653" lon="1.18218">
        <ele>241.468475</ele>
        <time>2013-03-24T11:18:12Z</time>
      </trkpt>
      <trkpt lat="43.61656" lon="1.18221">
        <ele>241.405472</ele>
        <time>2013-03-24T11:18:13Z</time>
      </trkpt>
      <trkpt lat="43.61659" lon="1.18226">
        <ele>241.411362</ele>
        <time>2013-03-24T11:18:14Z</time>
      </trkpt>
      <trkpt lat="43.61662" lon="1.18231">
        <ele>241.430908</ele>
        <time>2013-03-24T11:18:15Z</time>
      </trkpt>
      <trkpt lat="43.61669" lon="1.18243">
        <ele>241.297394</ele>
        <time>2013-03-24T11:18:17Z</time>
      </trkpt>
      <trkpt lat="43.61675" lon="1.18255">
        <ele>241.347977</ele>
        <time>2013-03-24T11:18:19Z</time>
      </trkpt>
      <trkpt lat="43.61677" lon="1.1826">
        <ele>241.384415</ele>
        <time>2013-03-24T11:18:20Z</time>
      </trkpt>
      <trkpt lat="43.61679" lon="1.18265">
        <ele>241.448822</ele>
        <time>2013-03-24T11:18:21Z</time>
      </trkpt>
      <trkpt lat="43.61688" lon="1.18293">
        <ele>241.742493</ele>
        <time>2013-03-24T11:18:28Z</time>
      </trkpt>
      <trkpt lat="43.61702" lon="1.18319">
        <ele>241.449371</ele>
        <time>2013-03-24T11:18:33Z</time>
      </trkpt>
      <trkpt lat="43.61705" lon="1.18325">
        <ele>241.384995</ele>
        <time>2013-03-24T11:18:34Z</time>
      </trkpt>
      <trkpt lat="43.61709" lon="1.18332">
        <ele>241.266251</ele>
        <time>2013-03-24T11:18:35Z</time>
      </trkpt>
      <trkpt lat="43.61714" lon="1.18338">
        <ele>241.080002</ele>
        <time>2013-03-24T11:18:36Z</time>
      </trkpt>
      <trkpt lat="43.61717" lon="1.18344">
        <ele>240.96312</ele>
        <time>2013-03-24T11:18:37Z</time>
      </trkpt>
      <trkpt lat="43.61721" lon="1.18349">
        <ele>240.823746</ele>
        <time>2013-03-24T11:18:38Z</time>
      </trkpt>
      <trkpt lat="43.61728" lon="1.18358">
        <ele>240.483505</ele>
        <time>2013-03-24T11:18:40Z</time>
      </trkpt>
      <trkpt lat="43.61732" lon="1.18362">
        <ele>240.263092</ele>
        <time>2013-03-24T11:18:41Z</time>
      </trkpt>
      <trkpt lat="43.61735" lon="1.18367">
        <ele>240.20813</ele>
        <time>2013-03-24T11:18:42Z</time>
      </trkpt>
      <trkpt lat="43.61738" lon="1.18373">
        <ele>240.153748</ele>
        <time>2013-03-24T11:18:43Z</time>
      </trkpt>
      <trkpt lat="43.61741" lon="1.18379">
        <ele>240.008743</ele>
        <time>2013-03-24T11:18:44Z</time>
      </trkpt>
      <trkpt lat="43.61743" lon="1.18385">
        <ele>240.057495</ele>
        <time>2013-03-24T11:18:45Z</time>
      </trkpt>
      <trkpt lat="43.61745" lon="1.18391">
        <ele>240.095001</ele>
        <time>2013-03-24T11:18:46Z</time>
      </trkpt>
      <trkpt lat="43.61746" lon="1.18396">
        <ele>240.19812</ele>
        <time>2013-03-24T11:18:47Z</time>
      </trkpt>
      <trkpt lat="43.61749" lon="1.184">
        <ele>240.016251</ele>
        <time>2013-03-24T11:18:48Z</time>
      </trkpt>
      <trkpt lat="43.61752" lon="1.18402">
        <ele>239.675003</ele>
        <time>2013-03-24T11:18:49Z</time>
      </trkpt>
      <trkpt lat="43.61775" lon="1.18421">
        <ele>237.908539</ele>
        <time>2013-03-24T11:18:57Z</time>
      </trkpt>
      <trkpt lat="43.61779" lon="1.18427">
        <ele>237.715851</ele>
        <time>2013-03-24T11:18:59Z</time>
      </trkpt>
      <trkpt lat="43.61783" lon="1.1843">
        <ele>237.628372</ele>
        <time>2013-03-24T11:19:00Z</time>
      </trkpt>
      <trkpt lat="43.61798" lon="1.18449">
        <ele>237.406265</ele>
        <time>2013-03-24T11:19:05Z</time>
      </trkpt>
      <trkpt lat="43.61801" lon="1.18452">
        <ele>237.218948</ele>
        <time>2013-03-24T11:19:06Z</time>
      </trkpt>
      <trkpt lat="43.61804" lon="1.18455">
        <ele>237.063232</ele>
        <time>2013-03-24T11:19:07Z</time>
      </trkpt>
      <trkpt lat="43.61808" lon="1.18459">
        <ele>236.877792</ele>
        <time>2013-03-24T11:19:08Z</time>
      </trkpt>
      <trkpt lat="43.61812" lon="1.18463">
        <ele>236.666321</ele>
        <time>2013-03-24T11:19:09Z</time>
      </trkpt>
      <trkpt lat="43.61815" lon="1.18468">
        <ele>236.557617</ele>
        <time>2013-03-24T11:19:10Z</time>
      </trkpt>
      <trkpt lat="43.61819" lon="1.18474">
        <ele>236.432922</ele>
        <time>2013-03-24T11:19:11Z</time>
      </trkpt>
      <trkpt lat="43.61822" lon="1.1848">
        <ele>236.412506</ele>
        <time>2013-03-24T11:19:12Z</time>
      </trkpt>
      <trkpt lat="43.61824" lon="1.18484">
        <ele>236.455002</ele>
        <time>2013-03-24T11:19:13Z</time>
      </trkpt>
      <trkpt lat="43.61825" lon="1.18489">
        <ele>236.585007</ele>
        <time>2013-03-24T11:19:14Z</time>
      </trkpt>
      <trkpt lat="43.61826" lon="1.18493">
        <ele>236.762497</ele>
        <time>2013-03-24T11:19:15Z</time>
      </trkpt>
      <trkpt lat="43.61827" lon="1.18498">
        <ele>236.932495</ele>
        <time>2013-03-24T11:19:16Z</time>
      </trkpt>
      <trkpt lat="43.61835" lon="1.18519">
        <ele>237.192596</ele>
        <time>2013-03-24T11:19:21Z</time>
      </trkpt>
      <trkpt lat="43.61837" lon="1.18522">
        <ele>237.125122</ele>
        <time>2013-03-24T11:19:22Z</time>
      </trkpt>
      <trkpt lat="43.6184" lon="1.18527">
        <ele>236.939346</ele>
        <time>2013-03-24T11:19:23Z</time>
      </trkpt>
      <trkpt lat="43.61849" lon="1.18545">
        <ele>236.220001</ele>
        <time>2013-03-24T11:19:28Z</time>
      </trkpt>
      <trkpt lat="43.61851" lon="1.18548">
        <ele>235.964371</ele>
        <time>2013-03-24T11:19:29Z</time>
      </trkpt>
      <trkpt lat="43.61853" lon="1.18551">
        <ele>235.751251</ele>
        <time>2013-03-24T11:19:30Z</time>
      </trkpt>
      <trkpt lat="43.61855" lon="1.18556">
        <ele>235.605621</ele>
        <time>2013-03-24T11:19:40Z</time>
      </trkpt>
      <trkpt lat="43.61855" lon="1.18556">
        <ele>235.605621</ele>
        <time>2013-03-24T11:20:04Z</time>
      </trkpt>
      <trkpt lat="43.61868" lon="1.18583">
        <ele>234.811249</ele>
        <time>2013-03-24T11:20:16Z</time>
      </trkpt>
      <trkpt lat="43.6187" lon="1.18587">
        <ele>234.656876</ele>
        <time>2013-03-24T11:20:17Z</time>
      </trkpt>
      <trkpt lat="43.61872" lon="1.18591">
        <ele>234.484375</ele>
        <time>2013-03-24T11:20:18Z</time>
      </trkpt>
      <trkpt lat="43.61872" lon="1.18595">
        <ele>234.559372</ele>
        <time>2013-03-24T11:20:19Z</time>
      </trkpt>
      <trkpt lat="43.61873" lon="1.186">
        <ele>234.688034</ele>
        <time>2013-03-24T11:20:20Z</time>
      </trkpt>
      <trkpt lat="43.61874" lon="1.18605">
        <ele>234.656876</ele>
        <time>2013-03-24T11:20:21Z</time>
      </trkpt>
      <trkpt lat="43.61878" lon="1.18622">
        <ele>234.653412</ele>
        <time>2013-03-24T11:20:24Z</time>
      </trkpt>
      <trkpt lat="43.61878" lon="1.18631">
        <ele>234.937302</ele>
        <time>2013-03-24T11:20:26Z</time>
      </trkpt>
      <trkpt lat="43.61879" lon="1.18638">
        <ele>234.985535</ele>
        <time>2013-03-24T11:20:27Z</time>
      </trkpt>
      <trkpt lat="43.61882" lon="1.18644">
        <ele>234.850433</ele>
        <time>2013-03-24T11:20:28Z</time>
      </trkpt>
      <trkpt lat="43.61885" lon="1.18649">
        <ele>234.697098</ele>
        <time>2013-03-24T11:20:29Z</time>
      </trkpt>
      <trkpt lat="43.61886" lon="1.18655">
        <ele>234.654953</ele>
        <time>2013-03-24T11:20:30Z</time>
      </trkpt>
      <trkpt lat="43.61888" lon="1.18661">
        <ele>234.602646</ele>
        <time>2013-03-24T11:20:31Z</time>
      </trkpt>
      <trkpt lat="43.61889" lon="1.18668">
        <ele>234.480835</ele>
        <time>2013-03-24T11:20:32Z</time>
      </trkpt>
      <trkpt lat="43.61891" lon="1.18674">
        <ele>234.328552</ele>
        <time>2013-03-24T11:20:33Z</time>
      </trkpt>
      <trkpt lat="43.61901" lon="1.18698">
        <ele>233.082367</ele>
        <time>2013-03-24T11:20:38Z</time>
      </trkpt>
      <trkpt lat="43.61915" lon="1.187">
        <ele>231.066498</ele>
        <time>2013-03-24T11:20:41Z</time>
      </trkpt>
      <trkpt lat="43.61919" lon="1.18703">
        <ele>230.57077</ele>
        <time>2013-03-24T11:20:42Z</time>
      </trkpt>
      <trkpt lat="43.61921" lon="1.18708">
        <ele>230.186874</ele>
        <time>2013-03-24T11:20:43Z</time>
      </trkpt>
      <trkpt lat="43.61923" lon="1.18713">
        <ele>230.016708</ele>
        <time>2013-03-24T11:20:44Z</time>
      </trkpt>
      <trkpt lat="43.61926" lon="1.18718">
        <ele>230.080063</ele>
        <time>2013-03-24T11:20:45Z</time>
      </trkpt>
      <trkpt lat="43.61928" lon="1.18722">
        <ele>230.125</ele>
        <time>2013-03-24T11:20:46Z</time>
      </trkpt>
      <trkpt lat="43.61929" lon="1.18727">
        <ele>230.137497</ele>
        <time>2013-03-24T11:20:47Z</time>
      </trkpt>
      <trkpt lat="43.61929" lon="1.18731">
        <ele>230.132507</ele>
        <time>2013-03-24T11:20:48Z</time>
      </trkpt>
      <trkpt lat="43.61928" lon="1.18736">
        <ele>230.107498</ele>
        <time>2013-03-24T11:20:49Z</time>
      </trkpt>
      <trkpt lat="43.61927" lon="1.18742">
        <ele>230.092499</ele>
        <time>2013-03-24T11:20:50Z</time>
      </trkpt>
      <trkpt lat="43.61926" lon="1.18748">
        <ele>230.067505</ele>
        <time>2013-03-24T11:20:51Z</time>
      </trkpt>
      <trkpt lat="43.61924" lon="1.1876">
        <ele>230.020004</ele>
        <time>2013-03-24T11:20:53Z</time>
      </trkpt>
      <trkpt lat="43.61924" lon="1.18766">
        <ele>230.029999</ele>
        <time>2013-03-24T11:20:54Z</time>
      </trkpt>
      <trkpt lat="43.61925" lon="1.18773">
        <ele>230.050003</ele>
        <time>2013-03-24T11:20:55Z</time>
      </trkpt>
      <trkpt lat="43.61925" lon="1.18779">
        <ele>230.044998</ele>
        <time>2013-03-24T11:20:56Z</time>
      </trkpt>
      <trkpt lat="43.61925" lon="1.18785">
        <ele>229.950912</ele>
        <time>2013-03-24T11:20:57Z</time>
      </trkpt>
      <trkpt lat="43.61925" lon="1.18792">
        <ele>229.7388</ele>
        <time>2013-03-24T11:20:58Z</time>
      </trkpt>
      <trkpt lat="43.61925" lon="1.18799">
        <ele>229.511688</ele>
        <time>2013-03-24T11:20:59Z</time>
      </trkpt>
      <trkpt lat="43.61925" lon="1.18806">
        <ele>229.268829</ele>
        <time>2013-03-24T11:21:00Z</time>
      </trkpt>
      <trkpt lat="43.61924" lon="1.18813">
        <ele>229.031586</ele>
        <time>2013-03-24T11:21:01Z</time>
      </trkpt>
      <trkpt lat="43.61924" lon="1.18821">
        <ele>228.775269</ele>
        <time>2013-03-24T11:21:02Z</time>
      </trkpt>
      <trkpt lat="43.61923" lon="1.18828">
        <ele>228.597076</ele>
        <time>2013-03-24T11:21:03Z</time>
      </trkpt>
      <trkpt lat="43.61922" lon="1.18835">
        <ele>228.476532</ele>
        <time>2013-03-24T11:21:04Z</time>
      </trkpt>
      <trkpt lat="43.6192" lon="1.18842">
        <ele>228.387268</ele>
        <time>2013-03-24T11:21:05Z</time>
      </trkpt>
      <trkpt lat="43.61918" lon="1.18849">
        <ele>228.469604</ele>
        <time>2013-03-24T11:21:06Z</time>
      </trkpt>
      <trkpt lat="43.61915" lon="1.18855">
        <ele>228.592392</ele>
        <time>2013-03-24T11:21:07Z</time>
      </trkpt>
      <trkpt lat="43.61913" lon="1.18861">
        <ele>228.568115</ele>
        <time>2013-03-24T11:21:08Z</time>
      </trkpt>
      <trkpt lat="43.61913" lon="1.18867">
        <ele>228.477966</ele>
        <time>2013-03-24T11:21:09Z</time>
      </trkpt>
      <trkpt lat="43.61911" lon="1.18873">
        <ele>228.434189</ele>
        <time>2013-03-24T11:21:10Z</time>
      </trkpt>
      <trkpt lat="43.6191" lon="1.18879">
        <ele>228.380127</ele>
        <time>2013-03-24T11:21:11Z</time>
      </trkpt>
      <trkpt lat="43.61908" lon="1.18884">
        <ele>228.310638</ele>
        <time>2013-03-24T11:21:12Z</time>
      </trkpt>
      <trkpt lat="43.61906" lon="1.18889">
        <ele>228.284882</ele>
        <time>2013-03-24T11:21:13Z</time>
      </trkpt>
      <trkpt lat="43.619" lon="1.18904">
        <ele>228.173599</ele>
        <time>2013-03-24T11:21:16Z</time>
      </trkpt>
      <trkpt lat="43.61899" lon="1.18909">
        <ele>228.064499</ele>
        <time>2013-03-24T11:21:17Z</time>
      </trkpt>
      <trkpt lat="43.61892" lon="1.18931">
        <ele>227.584732</ele>
        <time>2013-03-24T11:21:21Z</time>
      </trkpt>
      <trkpt lat="43.6189" lon="1.18936">
        <ele>227.426651</ele>
        <time>2013-03-24T11:21:22Z</time>
      </trkpt>
      <trkpt lat="43.61888" lon="1.18942">
        <ele>227.240875</ele>
        <time>2013-03-24T11:21:23Z</time>
      </trkpt>
      <trkpt lat="43.61887" lon="1.18947">
        <ele>227.045685</ele>
        <time>2013-03-24T11:21:24Z</time>
      </trkpt>
      <trkpt lat="43.61886" lon="1.18952">
        <ele>226.823288</ele>
        <time>2013-03-24T11:21:25Z</time>
      </trkpt>
      <trkpt lat="43.61885" lon="1.18958">
        <ele>226.559464</ele>
        <time>2013-03-24T11:21:26Z</time>
      </trkpt>
      <trkpt lat="43.61883" lon="1.18964">
        <ele>226.261978</ele>
        <time>2013-03-24T11:21:27Z</time>
      </trkpt>
      <trkpt lat="43.61881" lon="1.1897">
        <ele>225.989349</ele>
        <time>2013-03-24T11:21:28Z</time>
      </trkpt>
      <trkpt lat="43.61879" lon="1.18976">
        <ele>225.949997</ele>
        <time>2013-03-24T11:21:29Z</time>
      </trkpt>
      <trkpt lat="43.61878" lon="1.18983">
        <ele>225.993362</ele>
        <time>2013-03-24T11:21:30Z</time>
      </trkpt>
      <trkpt lat="43.61876" lon="1.18989">
        <ele>226.046555</ele>
        <time>2013-03-24T11:21:31Z</time>
      </trkpt>
      <trkpt lat="43.61874" lon="1.18994">
        <ele>226.041428</ele>
        <time>2013-03-24T11:21:32Z</time>
      </trkpt>
      <trkpt lat="43.61873" lon="1.18999">
        <ele>226.022537</ele>
        <time>2013-03-24T11:21:33Z</time>
      </trkpt>
      <trkpt lat="43.61871" lon="1.19004">
        <ele>226.066406</ele>
        <time>2013-03-24T11:21:34Z</time>
      </trkpt>
      <trkpt lat="43.61868" lon="1.19008">
        <ele>226.103134</ele>
        <time>2013-03-24T11:21:35Z</time>
      </trkpt>
      <trkpt lat="43.61867" lon="1.19013">
        <ele>226.080688</ele>
        <time>2013-03-24T11:21:36Z</time>
      </trkpt>
      <trkpt lat="43.61865" lon="1.19017">
        <ele>226.0578</ele>
        <time>2013-03-24T11:21:37Z</time>
      </trkpt>
      <trkpt lat="43.61863" lon="1.1902">
        <ele>226.104065</ele>
        <time>2013-03-24T11:21:38Z</time>
      </trkpt>
      <trkpt lat="43.61861" lon="1.19021">
        <ele>226.182953</ele>
        <time>2013-03-24T11:21:39Z</time>
      </trkpt>
      <trkpt lat="43.61859" lon="1.19022">
        <ele>226.238419</ele>
        <time>2013-03-24T11:21:40Z</time>
      </trkpt>
      <trkpt lat="43.61856" lon="1.19027">
        <ele>226.2155</ele>
        <time>2013-03-24T11:21:46Z</time>
      </trkpt>
      <trkpt lat="43.61857" lon="1.19029">
        <ele>226.134521</ele>
        <time>2013-03-24T11:21:47Z</time>
      </trkpt>
      <trkpt lat="43.61858" lon="1.1903">
        <ele>226.036392</ele>
        <time>2013-03-24T11:21:49Z</time>
      </trkpt>
      <trkpt lat="43.61859" lon="1.1903">
        <ele>225.987991</ele>
        <time>2013-03-24T11:21:51Z</time>
      </trkpt>
      <trkpt lat="43.61862" lon="1.19031">
        <ele>225.858505</ele>
        <time>2013-03-24T11:22:03Z</time>
      </trkpt>
      <trkpt lat="43.61868" lon="1.19034">
        <ele>225.515213</ele>
        <time>2013-03-24T11:22:14Z</time>
      </trkpt>
      <trkpt lat="43.6187" lon="1.19035">
        <ele>225.427704</ele>
        <time>2013-03-24T11:22:15Z</time>
      </trkpt>
      <trkpt lat="43.61872" lon="1.19035">
        <ele>225.36438</ele>
        <time>2013-03-24T11:22:16Z</time>
      </trkpt>
      <trkpt lat="43.61874" lon="1.19034">
        <ele>225.30246</ele>
        <time>2013-03-24T11:22:17Z</time>
      </trkpt>
      <trkpt lat="43.61875" lon="1.19035">
        <ele>225.238663</ele>
        <time>2013-03-24T11:22:18Z</time>
      </trkpt>
      <trkpt lat="43.61876" lon="1.19037">
        <ele>225.174637</ele>
        <time>2013-03-24T11:22:19Z</time>
      </trkpt>
      <trkpt lat="43.61878" lon="1.19039">
        <ele>225.106644</ele>
        <time>2013-03-24T11:22:20Z</time>
      </trkpt>
      <trkpt lat="43.6188" lon="1.19042">
        <ele>225.0401</ele>
        <time>2013-03-24T11:22:21Z</time>
      </trkpt>
      <trkpt lat="43.61882" lon="1.19044">
        <ele>225.040268</ele>
        <time>2013-03-24T11:22:22Z</time>
      </trkpt>
      <trkpt lat="43.61883" lon="1.19047">
        <ele>225.155121</ele>
        <time>2013-03-24T11:22:23Z</time>
      </trkpt>
      <trkpt lat="43.61886" lon="1.19052">
        <ele>225.352005</ele>
        <time>2013-03-24T11:22:25Z</time>
      </trkpt>
      <trkpt lat="43.61886" lon="1.19055">
        <ele>225.391281</ele>
        <time>2013-03-24T11:22:26Z</time>
      </trkpt>
      <trkpt lat="43.61887" lon="1.19063">
        <ele>225.432114</ele>
        <time>2013-03-24T11:22:29Z</time>
      </trkpt>
      <trkpt lat="43.61887" lon="1.19064">
        <ele>225.470627</ele>
        <time>2013-03-24T11:22:30Z</time>
      </trkpt>
      <trkpt lat="43.61887" lon="1.19066">
        <ele>225.474686</ele>
        <time>2013-03-24T11:22:31Z</time>
      </trkpt>
      <trkpt lat="43.61887" lon="1.19068">
        <ele>225.478745</ele>
        <time>2013-03-24T11:22:32Z</time>
      </trkpt>
      <trkpt lat="43.61888" lon="1.1907">
        <ele>225.519058</ele>
        <time>2013-03-24T11:22:33Z</time>
      </trkpt>
      <trkpt lat="43.61888" lon="1.19072">
        <ele>225.550507</ele>
        <time>2013-03-24T11:22:34Z</time>
      </trkpt>
      <trkpt lat="43.61889" lon="1.19074">
        <ele>225.629211</ele>
        <time>2013-03-24T11:22:35Z</time>
      </trkpt>
      <trkpt lat="43.61889" lon="1.19076">
        <ele>225.654175</ele>
        <time>2013-03-24T11:22:36Z</time>
      </trkpt>
      <trkpt lat="43.6189" lon="1.19078">
        <ele>225.717957</ele>
        <time>2013-03-24T11:22:37Z</time>
      </trkpt>
      <trkpt lat="43.61903" lon="1.19111">
        <ele>227.543747</ele>
        <time>2013-03-24T11:22:50Z</time>
      </trkpt>
      <trkpt lat="43.61911" lon="1.19115">
        <ele>228.307495</ele>
        <time>2013-03-24T11:22:59Z</time>
      </trkpt>
      <trkpt lat="43.61913" lon="1.19114">
        <ele>228.481247</ele>
        <time>2013-03-24T11:23:00Z</time>
      </trkpt>
      <trkpt lat="43.61914" lon="1.19112">
        <ele>228.553757</ele>
        <time>2013-03-24T11:23:01Z</time>
      </trkpt>
      <trkpt lat="43.61915" lon="1.19109">
        <ele>228.536255</ele>
        <time>2013-03-24T11:23:02Z</time>
      </trkpt>
      <trkpt lat="43.61915" lon="1.19107">
        <ele>228.486252</ele>
        <time>2013-03-24T11:23:03Z</time>
      </trkpt>
      <trkpt lat="43.61916" lon="1.19104">
        <ele>228.462494</ele>
        <time>2013-03-24T11:23:04Z</time>
      </trkpt>
      <trkpt lat="43.61917" lon="1.19102">
        <ele>228.494995</ele>
        <time>2013-03-24T11:23:05Z</time>
      </trkpt>
      <trkpt lat="43.61918" lon="1.191">
        <ele>228.514999</ele>
        <time>2013-03-24T11:23:06Z</time>
      </trkpt>
      <trkpt lat="43.61932" lon="1.19063">
        <ele>229.149994</ele>
        <time>2013-03-24T11:23:17Z</time>
      </trkpt>
      <trkpt lat="43.61966" lon="1.19009">
        <ele>231.903702</ele>
        <time>2013-03-24T11:23:32Z</time>
      </trkpt>
      <trkpt lat="43.62017" lon="1.18986">
        <ele>234.777054</ele>
        <time>2013-03-24T11:23:47Z</time>
      </trkpt>
      <trkpt lat="43.62071" lon="1.18993">
        <ele>237.918747</ele>
        <time>2013-03-24T11:24:01Z</time>
      </trkpt>
      <trkpt lat="43.62112" lon="1.18988">
        <ele>239.555634</ele>
        <time>2013-03-24T11:24:13Z</time>
      </trkpt>
      <trkpt lat="43.62162" lon="1.18966">
        <ele>240.592484</ele>
        <time>2013-03-24T11:24:29Z</time>
      </trkpt>
      <trkpt lat="43.62199" lon="1.18941">
        <ele>242.440002</ele>
        <time>2013-03-24T11:24:41Z</time>
      </trkpt>
      <trkpt lat="43.62243" lon="1.18897">
        <ele>244.169998</ele>
        <time>2013-03-24T11:24:56Z</time>
      </trkpt>
      <trkpt lat="43.62283" lon="1.18849">
        <ele>246.59375</ele>
        <time>2013-03-24T11:25:11Z</time>
      </trkpt>
      <trkpt lat="43.62328" lon="1.18795">
        <ele>248.318756</ele>
        <time>2013-03-24T11:25:28Z</time>
      </trkpt>
      <trkpt lat="43.62355" lon="1.18761">
        <ele>249.91098</ele>
        <time>2013-03-24T11:25:42Z</time>
      </trkpt>
      <trkpt lat="43.62375" lon="1.18726">
        <ele>251.514999</ele>
        <time>2013-03-24T11:25:55Z</time>
      </trkpt>
      <trkpt lat="43.62377" lon="1.18727">
        <ele>251.478745</ele>
        <time>2013-03-24T11:25:56Z</time>
      </trkpt>
      <trkpt lat="43.62381" lon="1.18733">
        <ele>251.282501</ele>
        <time>2013-03-24T11:25:59Z</time>
      </trkpt>
      <trkpt lat="43.62381" lon="1.18736">
        <ele>251.198746</ele>
        <time>2013-03-24T11:26:00Z</time>
      </trkpt>
      <trkpt lat="43.62381" lon="1.1874">
        <ele>251.072495</ele>
        <time>2013-03-24T11:26:01Z</time>
      </trkpt>
      <trkpt lat="43.62378" lon="1.1876">
        <ele>250.401245</ele>
        <time>2013-03-24T11:26:06Z</time>
      </trkpt>
      <trkpt lat="43.62379" lon="1.18765">
        <ele>250.256256</ele>
        <time>2013-03-24T11:26:07Z</time>
      </trkpt>
      <trkpt lat="43.6238" lon="1.1877">
        <ele>250.089996</ele>
        <time>2013-03-24T11:26:08Z</time>
      </trkpt>
      <trkpt lat="43.6238" lon="1.18775">
        <ele>249.922501</ele>
        <time>2013-03-24T11:26:09Z</time>
      </trkpt>
      <trkpt lat="43.62379" lon="1.18781">
        <ele>249.741257</ele>
        <time>2013-03-24T11:26:10Z</time>
      </trkpt>
      <trkpt lat="43.62377" lon="1.18787">
        <ele>249.558746</ele>
        <time>2013-03-24T11:26:11Z</time>
      </trkpt>
      <trkpt lat="43.62372" lon="1.18806">
        <ele>248.919998</ele>
        <time>2013-03-24T11:26:14Z</time>
      </trkpt>
      <trkpt lat="43.62369" lon="1.18812">
        <ele>248.652496</ele>
        <time>2013-03-24T11:26:15Z</time>
      </trkpt>
      <trkpt lat="43.62366" lon="1.18818">
        <ele>248.375</ele>
        <time>2013-03-24T11:26:16Z</time>
      </trkpt>
      <trkpt lat="43.62362" lon="1.18824">
        <ele>248.110001</ele>
        <time>2013-03-24T11:26:17Z</time>
      </trkpt>
      <trkpt lat="43.62358" lon="1.18829">
        <ele>247.846252</ele>
        <time>2013-03-24T11:26:18Z</time>
      </trkpt>
      <trkpt lat="43.62354" lon="1.18835">
        <ele>247.566605</ele>
        <time>2013-03-24T11:26:19Z</time>
      </trkpt>
      <trkpt lat="43.62352" lon="1.18843">
        <ele>247.331604</ele>
        <time>2013-03-24T11:26:20Z</time>
      </trkpt>
      <trkpt lat="43.62351" lon="1.18851">
        <ele>247.1297</ele>
        <time>2013-03-24T11:26:21Z</time>
      </trkpt>
      <trkpt lat="43.62351" lon="1.18859">
        <ele>246.933701</ele>
        <time>2013-03-24T11:26:22Z</time>
      </trkpt>
      <trkpt lat="43.62352" lon="1.18867">
        <ele>246.743011</ele>
        <time>2013-03-24T11:26:23Z</time>
      </trkpt>
      <trkpt lat="43.62352" lon="1.18874">
        <ele>246.56517</ele>
        <time>2013-03-24T11:26:24Z</time>
      </trkpt>
      <trkpt lat="43.62354" lon="1.18882">
        <ele>246.380493</ele>
        <time>2013-03-24T11:26:25Z</time>
      </trkpt>
      <trkpt lat="43.62357" lon="1.18889">
        <ele>246.211975</ele>
        <time>2013-03-24T11:26:26Z</time>
      </trkpt>
      <trkpt lat="43.62359" lon="1.18896">
        <ele>246.028091</ele>
        <time>2013-03-24T11:26:27Z</time>
      </trkpt>
      <trkpt lat="43.62361" lon="1.18902">
        <ele>245.828751</ele>
        <time>2013-03-24T11:26:28Z</time>
      </trkpt>
      <trkpt lat="43.62374" lon="1.18933">
        <ele>244.841248</ele>
        <time>2013-03-24T11:26:33Z</time>
      </trkpt>
      <trkpt lat="43.62378" lon="1.18938">
        <ele>244.567505</ele>
        <time>2013-03-24T11:26:34Z</time>
      </trkpt>
      <trkpt lat="43.62383" lon="1.18943">
        <ele>244.306244</ele>
        <time>2013-03-24T11:26:35Z</time>
      </trkpt>
      <trkpt lat="43.62387" lon="1.18948">
        <ele>244.051254</ele>
        <time>2013-03-24T11:26:36Z</time>
      </trkpt>
      <trkpt lat="43.62391" lon="1.18952">
        <ele>243.824997</ele>
        <time>2013-03-24T11:26:37Z</time>
      </trkpt>
      <trkpt lat="43.62395" lon="1.18956">
        <ele>243.602493</ele>
        <time>2013-03-24T11:26:38Z</time>
      </trkpt>
      <trkpt lat="43.62399" lon="1.18959">
        <ele>243.417496</ele>
        <time>2013-03-24T11:26:39Z</time>
      </trkpt>
      <trkpt lat="43.62404" lon="1.18962">
        <ele>243.214996</ele>
        <time>2013-03-24T11:26:40Z</time>
      </trkpt>
      <trkpt lat="43.6241" lon="1.18965">
        <ele>242.985001</ele>
        <time>2013-03-24T11:26:41Z</time>
      </trkpt>
      <trkpt lat="43.62415" lon="1.18968">
        <ele>242.771255</ele>
        <time>2013-03-24T11:26:42Z</time>
      </trkpt>
      <trkpt lat="43.62421" lon="1.18971">
        <ele>242.551254</ele>
        <time>2013-03-24T11:26:43Z</time>
      </trkpt>
      <trkpt lat="43.62425" lon="1.18974">
        <ele>242.342499</ele>
        <time>2013-03-24T11:26:44Z</time>
      </trkpt>
      <trkpt lat="43.6243" lon="1.18978">
        <ele>242.127502</ele>
        <time>2013-03-24T11:26:45Z</time>
      </trkpt>
      <trkpt lat="43.62434" lon="1.18982">
        <ele>241.895004</ele>
        <time>2013-03-24T11:26:46Z</time>
      </trkpt>
      <trkpt lat="43.62439" lon="1.18986">
        <ele>241.666245</ele>
        <time>2013-03-24T11:26:47Z</time>
      </trkpt>
      <trkpt lat="43.62443" lon="1.18989">
        <ele>241.460007</ele>
        <time>2013-03-24T11:26:48Z</time>
      </trkpt>
      <trkpt lat="43.62447" lon="1.18993">
        <ele>241.252502</ele>
        <time>2013-03-24T11:26:49Z</time>
      </trkpt>
      <trkpt lat="43.62462" lon="1.19008">
        <ele>240.40625</ele>
        <time>2013-03-24T11:26:53Z</time>
      </trkpt>
      <trkpt lat="43.62482" lon="1.19034">
        <ele>239.634995</ele>
        <time>2013-03-24T11:26:59Z</time>
      </trkpt>
      <trkpt lat="43.62485" lon="1.19038">
        <ele>239.559998</ele>
        <time>2013-03-24T11:27:00Z</time>
      </trkpt>
      <trkpt lat="43.62488" lon="1.19044">
        <ele>239.497498</ele>
        <time>2013-03-24T11:27:01Z</time>
      </trkpt>
      <trkpt lat="43.62491" lon="1.19049">
        <ele>239.432495</ele>
        <time>2013-03-24T11:27:02Z</time>
      </trkpt>
      <trkpt lat="43.62495" lon="1.19053">
        <ele>239.347504</ele>
        <time>2013-03-24T11:27:03Z</time>
      </trkpt>
      <trkpt lat="43.62499" lon="1.19058">
        <ele>239.264999</ele>
        <time>2013-03-24T11:27:04Z</time>
      </trkpt>
      <trkpt lat="43.62502" lon="1.19063">
        <ele>239.190002</ele>
        <time>2013-03-24T11:27:05Z</time>
      </trkpt>
      <trkpt lat="43.62505" lon="1.19067">
        <ele>239.132507</ele>
        <time>2013-03-24T11:27:06Z</time>
      </trkpt>
      <trkpt lat="43.62507" lon="1.1907">
        <ele>239.082504</ele>
        <time>2013-03-24T11:27:07Z</time>
      </trkpt>
      <trkpt lat="43.62513" lon="1.19076">
        <ele>239</ele>
        <time>2013-03-24T11:27:09Z</time>
      </trkpt>
      <trkpt lat="43.62517" lon="1.19079">
        <ele>239</ele>
        <time>2013-03-24T11:27:10Z</time>
      </trkpt>
      <trkpt lat="43.62521" lon="1.19082">
        <ele>239</ele>
        <time>2013-03-24T11:27:11Z</time>
      </trkpt>
      <trkpt lat="43.62525" lon="1.19084">
        <ele>239</ele>
        <time>2013-03-24T11:27:12Z</time>
      </trkpt>
      <trkpt lat="43.62529" lon="1.19087">
        <ele>239</ele>
        <time>2013-03-24T11:27:13Z</time>
      </trkpt>
      <trkpt lat="43.62533" lon="1.1909">
        <ele>239</ele>
        <time>2013-03-24T11:27:14Z</time>
      </trkpt>
      <trkpt lat="43.62537" lon="1.19092">
        <ele>239</ele>
        <time>2013-03-24T11:27:15Z</time>
      </trkpt>
      <trkpt lat="43.62541" lon="1.19094">
        <ele>239</ele>
        <time>2013-03-24T11:27:16Z</time>
      </trkpt>
      <trkpt lat="43.62568" lon="1.19126">
        <ele>239</ele>
        <time>2013-03-24T11:27:25Z</time>
      </trkpt>
      <trkpt lat="43.62594" lon="1.19145">
        <ele>238.927673</ele>
        <time>2013-03-24T11:27:32Z</time>
      </trkpt>
      <trkpt lat="43.62603" lon="1.19154">
        <ele>238.766251</ele>
        <time>2013-03-24T11:27:35Z</time>
      </trkpt>
      <trkpt lat="43.62614" lon="1.19162">
        <ele>238.631882</ele>
        <time>2013-03-24T11:27:42Z</time>
      </trkpt>
      <trkpt lat="43.62628" lon="1.19174">
        <ele>238.436874</ele>
        <time>2013-03-24T11:27:49Z</time>
      </trkpt>
      <trkpt lat="43.62638" lon="1.19184">
        <ele>238.268127</ele>
        <time>2013-03-24T11:27:54Z</time>
      </trkpt>
      <trkpt lat="43.62656" lon="1.19198">
        <ele>238.041245</ele>
        <time>2013-03-24T11:28:00Z</time>
      </trkpt>
      <trkpt lat="43.62673" lon="1.19217">
        <ele>238</ele>
        <time>2013-03-24T11:28:07Z</time>
      </trkpt>
      <trkpt lat="43.62676" lon="1.19219">
        <ele>238</ele>
        <time>2013-03-24T11:28:08Z</time>
      </trkpt>
      <trkpt lat="43.62694" lon="1.19238">
        <ele>238</ele>
        <time>2013-03-24T11:28:15Z</time>
      </trkpt>
      <trkpt lat="43.62742" lon="1.19259">
        <ele>238</ele>
        <time>2013-03-24T11:28:28Z</time>
      </trkpt>
      <trkpt lat="43.62782" lon="1.19263">
        <ele>237.951248</ele>
        <time>2013-03-24T11:28:39Z</time>
      </trkpt>
      <trkpt lat="43.62821" lon="1.19254">
        <ele>237.197845</ele>
        <time>2013-03-24T11:28:50Z</time>
      </trkpt>
      <trkpt lat="43.62862" lon="1.19252">
        <ele>237.095001</ele>
        <time>2013-03-24T11:29:00Z</time>
      </trkpt>
      <trkpt lat="43.62908" lon="1.19264">
        <ele>237.090561</ele>
        <time>2013-03-24T11:29:11Z</time>
      </trkpt>
      <trkpt lat="43.6294" lon="1.19264">
        <ele>237.112503</ele>
        <time>2013-03-24T11:29:19Z</time>
      </trkpt>
      <trkpt lat="43.62943" lon="1.19265">
        <ele>237.144379</ele>
        <time>2013-03-24T11:29:20Z</time>
      </trkpt>
      <trkpt lat="43.62946" lon="1.19267">
        <ele>237.168121</ele>
        <time>2013-03-24T11:29:21Z</time>
      </trkpt>
      <trkpt lat="43.62949" lon="1.19268">
        <ele>237.183746</ele>
        <time>2013-03-24T11:29:22Z</time>
      </trkpt>
      <trkpt lat="43.62952" lon="1.19268">
        <ele>237.195618</ele>
        <time>2013-03-24T11:29:23Z</time>
      </trkpt>
      <trkpt lat="43.62955" lon="1.19269">
        <ele>237.206253</ele>
        <time>2013-03-24T11:29:24Z</time>
      </trkpt>
      <trkpt lat="43.62958" lon="1.1927">
        <ele>237.226868</ele>
        <time>2013-03-24T11:29:25Z</time>
      </trkpt>
      <trkpt lat="43.62961" lon="1.19271">
        <ele>237.243744</ele>
        <time>2013-03-24T11:29:26Z</time>
      </trkpt>
      <trkpt lat="43.62964" lon="1.19272">
        <ele>237.263123</ele>
        <time>2013-03-24T11:29:27Z</time>
      </trkpt>
      <trkpt lat="43.63017" lon="1.19289">
        <ele>237.551254</ele>
        <time>2013-03-24T11:29:42Z</time>
      </trkpt>
      <trkpt lat="43.63048" lon="1.19303">
        <ele>237.792496</ele>
        <time>2013-03-24T11:29:52Z</time>
      </trkpt>
      <trkpt lat="43.6306" lon="1.19311">
        <ele>237.772995</ele>
        <time>2013-03-24T11:29:56Z</time>
      </trkpt>
      <trkpt lat="43.6306" lon="1.19315">
        <ele>237.805405</ele>
        <time>2013-03-24T11:29:57Z</time>
      </trkpt>
      <trkpt lat="43.63061" lon="1.19318">
        <ele>237.783127</ele>
        <time>2013-03-24T11:29:58Z</time>
      </trkpt>
      <trkpt lat="43.6306" lon="1.19321">
        <ele>237.759995</ele>
        <time>2013-03-24T11:29:59Z</time>
      </trkpt>
      <trkpt lat="43.63058" lon="1.19324">
        <ele>237.748749</ele>
        <time>2013-03-24T11:30:00Z</time>
      </trkpt>
      <trkpt lat="43.63057" lon="1.19328">
        <ele>237.721878</ele>
        <time>2013-03-24T11:30:01Z</time>
      </trkpt>
      <trkpt lat="43.63055" lon="1.19331">
        <ele>237.692505</ele>
        <time>2013-03-24T11:30:02Z</time>
      </trkpt>
      <trkpt lat="43.63054" lon="1.19335">
        <ele>237.661255</ele>
        <time>2013-03-24T11:30:03Z</time>
      </trkpt>
      <trkpt lat="43.63053" lon="1.19339">
        <ele>237.627502</ele>
        <time>2013-03-24T11:30:04Z</time>
      </trkpt>
      <trkpt lat="43.63035" lon="1.19381">
        <ele>237.414993</ele>
        <time>2013-03-24T11:30:14Z</time>
      </trkpt>
      <trkpt lat="43.63029" lon="1.19395">
        <ele>237.547501</ele>
        <time>2013-03-24T11:30:17Z</time>
      </trkpt>
      <trkpt lat="43.63027" lon="1.194">
        <ele>237.595001</ele>
        <time>2013-03-24T11:30:18Z</time>
      </trkpt>
      <trkpt lat="43.63024" lon="1.19405">
        <ele>237.645004</ele>
        <time>2013-03-24T11:30:19Z</time>
      </trkpt>
      <trkpt lat="43.63012" lon="1.19444">
        <ele>237.940002</ele>
        <time>2013-03-24T11:30:28Z</time>
      </trkpt>
      <trkpt lat="43.62992" lon="1.19534">
        <ele>238</ele>
        <time>2013-03-24T11:30:43Z</time>
      </trkpt>
      <trkpt lat="43.62991" lon="1.1954">
        <ele>238</ele>
        <time>2013-03-24T11:30:44Z</time>
      </trkpt>
      <trkpt lat="43.62985" lon="1.19583">
        <ele>237.586197</ele>
        <time>2013-03-24T11:30:51Z</time>
      </trkpt>
      <trkpt lat="43.62981" lon="1.19601">
        <ele>237.213623</ele>
        <time>2013-03-24T11:30:54Z</time>
      </trkpt>
      <trkpt lat="43.62979" lon="1.19614">
        <ele>236.985382</ele>
        <time>2013-03-24T11:30:56Z</time>
      </trkpt>
      <trkpt lat="43.6297" lon="1.19665">
        <ele>236.306244</ele>
        <time>2013-03-24T11:31:04Z</time>
      </trkpt>
      <trkpt lat="43.62972" lon="1.1967">
        <ele>236.183121</ele>
        <time>2013-03-24T11:31:05Z</time>
      </trkpt>
      <trkpt lat="43.62974" lon="1.19675">
        <ele>236.055634</ele>
        <time>2013-03-24T11:31:06Z</time>
      </trkpt>
      <trkpt lat="43.62992" lon="1.19702">
        <ele>235.432495</ele>
        <time>2013-03-24T11:31:14Z</time>
      </trkpt>
      <trkpt lat="43.63013" lon="1.19714">
        <ele>234.982498</ele>
        <time>2013-03-24T11:31:21Z</time>
      </trkpt>
      <trkpt lat="43.63015" lon="1.19716">
        <ele>234.925003</ele>
        <time>2013-03-24T11:31:22Z</time>
      </trkpt>
      <trkpt lat="43.63018" lon="1.19717">
        <ele>234.862503</ele>
        <time>2013-03-24T11:31:23Z</time>
      </trkpt>
      <trkpt lat="43.63047" lon="1.1973">
        <ele>234.212494</ele>
        <time>2013-03-24T11:31:32Z</time>
      </trkpt>
      <trkpt lat="43.63063" lon="1.1975">
        <ele>234</ele>
        <time>2013-03-24T11:31:38Z</time>
      </trkpt>
      <trkpt lat="43.63066" lon="1.19751">
        <ele>234</ele>
        <time>2013-03-24T11:31:39Z</time>
      </trkpt>
      <trkpt lat="43.63068" lon="1.19754">
        <ele>234</ele>
        <time>2013-03-24T11:31:40Z</time>
      </trkpt>
      <trkpt lat="43.6307" lon="1.19757">
        <ele>234</ele>
        <time>2013-03-24T11:31:41Z</time>
      </trkpt>
      <trkpt lat="43.63072" lon="1.1976">
        <ele>234</ele>
        <time>2013-03-24T11:31:42Z</time>
      </trkpt>
      <trkpt lat="43.63075" lon="1.19763">
        <ele>234</ele>
        <time>2013-03-24T11:31:43Z</time>
      </trkpt>
      <trkpt lat="43.631" lon="1.19781">
        <ele>234</ele>
        <time>2013-03-24T11:31:51Z</time>
      </trkpt>
      <trkpt lat="43.63104" lon="1.1978">
        <ele>233.985397</ele>
        <time>2013-03-24T11:31:52Z</time>
      </trkpt>
      <trkpt lat="43.63108" lon="1.19778">
        <ele>233.940994</ele>
        <time>2013-03-24T11:31:53Z</time>
      </trkpt>
      <trkpt lat="43.63111" lon="1.19777">
        <ele>233.895081</ele>
        <time>2013-03-24T11:31:54Z</time>
      </trkpt>
      <trkpt lat="43.63114" lon="1.19778">
        <ele>233.860733</ele>
        <time>2013-03-24T11:31:55Z</time>
      </trkpt>
      <trkpt lat="43.63117" lon="1.1978">
        <ele>233.838943</ele>
        <time>2013-03-24T11:31:56Z</time>
      </trkpt>
      <trkpt lat="43.63121" lon="1.19783">
        <ele>233.82019</ele>
        <time>2013-03-24T11:31:57Z</time>
      </trkpt>
      <trkpt lat="43.63123" lon="1.19785">
        <ele>233.817856</ele>
        <time>2013-03-24T11:31:58Z</time>
      </trkpt>
      <trkpt lat="43.63125" lon="1.19787">
        <ele>233.817215</ele>
        <time>2013-03-24T11:31:59Z</time>
      </trkpt>
      <trkpt lat="43.63128" lon="1.1979">
        <ele>233.815201</ele>
        <time>2013-03-24T11:32:00Z</time>
      </trkpt>
      <trkpt lat="43.63131" lon="1.19792">
        <ele>233.823288</ele>
        <time>2013-03-24T11:32:01Z</time>
      </trkpt>
      <trkpt lat="43.63134" lon="1.19795">
        <ele>233.841293</ele>
        <time>2013-03-24T11:32:02Z</time>
      </trkpt>
      <trkpt lat="43.63136" lon="1.19798">
        <ele>233.857025</ele>
        <time>2013-03-24T11:32:03Z</time>
      </trkpt>
      <trkpt lat="43.63139" lon="1.198">
        <ele>233.880814</ele>
        <time>2013-03-24T11:32:04Z</time>
      </trkpt>
      <trkpt lat="43.63141" lon="1.19803">
        <ele>233.916443</ele>
        <time>2013-03-24T11:32:05Z</time>
      </trkpt>
      <trkpt lat="43.63163" lon="1.1984">
        <ele>233.833344</ele>
        <time>2013-03-24T11:32:14Z</time>
      </trkpt>
      <trkpt lat="43.63168" lon="1.19843">
        <ele>233.803131</ele>
        <time>2013-03-24T11:32:15Z</time>
      </trkpt>
      <trkpt lat="43.63194" lon="1.19856">
        <ele>233.774994</ele>
        <time>2013-03-24T11:32:20Z</time>
      </trkpt>
      <trkpt lat="43.63199" lon="1.19857">
        <ele>233.785004</ele>
        <time>2013-03-24T11:32:21Z</time>
      </trkpt>
      <trkpt lat="43.63205" lon="1.19857">
        <ele>233.785004</ele>
        <time>2013-03-24T11:32:22Z</time>
      </trkpt>
      <trkpt lat="43.6321" lon="1.19856">
        <ele>233.77063</ele>
        <time>2013-03-24T11:32:23Z</time>
      </trkpt>
      <trkpt lat="43.63215" lon="1.19854">
        <ele>233.741257</ele>
        <time>2013-03-24T11:32:24Z</time>
      </trkpt>
      <trkpt lat="43.63221" lon="1.19852">
        <ele>233.711243</ele>
        <time>2013-03-24T11:32:25Z</time>
      </trkpt>
      <trkpt lat="43.63237" lon="1.1985">
        <ele>233.680618</ele>
        <time>2013-03-24T11:32:29Z</time>
      </trkpt>
      <trkpt lat="43.63241" lon="1.19851">
        <ele>233.710632</ele>
        <time>2013-03-24T11:32:30Z</time>
      </trkpt>
      <trkpt lat="43.63244" lon="1.19853">
        <ele>233.729996</ele>
        <time>2013-03-24T11:32:31Z</time>
      </trkpt>
      <trkpt lat="43.63247" lon="1.19853">
        <ele>233.730621</ele>
        <time>2013-03-24T11:32:32Z</time>
      </trkpt>
      <trkpt lat="43.63251" lon="1.19851">
        <ele>233.711243</ele>
        <time>2013-03-24T11:32:33Z</time>
      </trkpt>
      <trkpt lat="43.63255" lon="1.1985">
        <ele>233.699371</ele>
        <time>2013-03-24T11:32:34Z</time>
      </trkpt>
      <trkpt lat="43.63259" lon="1.19849">
        <ele>233.684372</ele>
        <time>2013-03-24T11:32:35Z</time>
      </trkpt>
      <trkpt lat="43.63264" lon="1.19848">
        <ele>233.66188</ele>
        <time>2013-03-24T11:32:36Z</time>
      </trkpt>
      <trkpt lat="43.63269" lon="1.19846">
        <ele>233.631256</ele>
        <time>2013-03-24T11:32:37Z</time>
      </trkpt>
      <trkpt lat="43.63272" lon="1.19844">
        <ele>233.593124</ele>
        <time>2013-03-24T11:32:38Z</time>
      </trkpt>
      <trkpt lat="43.63305" lon="1.19816">
        <ele>233.580627</ele>
        <time>2013-03-24T11:32:49Z</time>
      </trkpt>
      <trkpt lat="43.63307" lon="1.19815">
        <ele>233.617111</ele>
        <time>2013-03-24T11:32:50Z</time>
      </trkpt>
      <trkpt lat="43.63331" lon="1.19793">
        <ele>233.789993</ele>
        <time>2013-03-24T11:32:58Z</time>
      </trkpt>
      <trkpt lat="43.63367" lon="1.19765">
        <ele>233.351868</ele>
        <time>2013-03-24T11:33:08Z</time>
      </trkpt>
      <trkpt lat="43.63376" lon="1.19752">
        <ele>233.145004</ele>
        <time>2013-03-24T11:33:11Z</time>
      </trkpt>
      <trkpt lat="43.63379" lon="1.19747">
        <ele>233.070007</ele>
        <time>2013-03-24T11:33:12Z</time>
      </trkpt>
      <trkpt lat="43.63382" lon="1.19743">
        <ele>233</ele>
        <time>2013-03-24T11:33:13Z</time>
      </trkpt>
      <trkpt lat="43.63385" lon="1.19738">
        <ele>233</ele>
        <time>2013-03-24T11:33:14Z</time>
      </trkpt>
      <trkpt lat="43.63389" lon="1.19735">
        <ele>233</ele>
        <time>2013-03-24T11:33:15Z</time>
      </trkpt>
      <trkpt lat="43.6342" lon="1.19693">
        <ele>233</ele>
        <time>2013-03-24T11:33:26Z</time>
      </trkpt>
      <trkpt lat="43.6343" lon="1.19682">
        <ele>233</ele>
        <time>2013-03-24T11:33:29Z</time>
      </trkpt>
      <trkpt lat="43.63434" lon="1.19678">
        <ele>233</ele>
        <time>2013-03-24T11:33:30Z</time>
      </trkpt>
      <trkpt lat="43.63446" lon="1.19665">
        <ele>233</ele>
        <time>2013-03-24T11:33:33Z</time>
      </trkpt>
      <trkpt lat="43.6345" lon="1.19662">
        <ele>233</ele>
        <time>2013-03-24T11:33:34Z</time>
      </trkpt>
      <trkpt lat="43.63462" lon="1.1965">
        <ele>232.983521</ele>
        <time>2013-03-24T11:33:37Z</time>
      </trkpt>
      <trkpt lat="43.63516" lon="1.19585">
        <ele>232</ele>
        <time>2013-03-24T11:33:50Z</time>
      </trkpt>
      <trkpt lat="43.63525" lon="1.19575">
        <ele>232</ele>
        <time>2013-03-24T11:33:52Z</time>
      </trkpt>
      <trkpt lat="43.6353" lon="1.19571">
        <ele>232</ele>
        <time>2013-03-24T11:33:53Z</time>
      </trkpt>
      <trkpt lat="43.63534" lon="1.19566">
        <ele>232</ele>
        <time>2013-03-24T11:33:54Z</time>
      </trkpt>
      <trkpt lat="43.63547" lon="1.19551">
        <ele>232</ele>
        <time>2013-03-24T11:33:57Z</time>
      </trkpt>
      <trkpt lat="43.63551" lon="1.19545">
        <ele>232</ele>
        <time>2013-03-24T11:33:58Z</time>
      </trkpt>
      <trkpt lat="43.63554" lon="1.19539">
        <ele>232</ele>
        <time>2013-03-24T11:33:59Z</time>
      </trkpt>
      <trkpt lat="43.63557" lon="1.19533">
        <ele>232</ele>
        <time>2013-03-24T11:34:00Z</time>
      </trkpt>
      <trkpt lat="43.6356" lon="1.19527">
        <ele>232</ele>
        <time>2013-03-24T11:34:01Z</time>
      </trkpt>
      <trkpt lat="43.63563" lon="1.1952">
        <ele>232</ele>
        <time>2013-03-24T11:34:02Z</time>
      </trkpt>
      <trkpt lat="43.63566" lon="1.19515">
        <ele>232</ele>
        <time>2013-03-24T11:34:03Z</time>
      </trkpt>
      <trkpt lat="43.63569" lon="1.1951">
        <ele>232</ele>
        <time>2013-03-24T11:34:04Z</time>
      </trkpt>
      <trkpt lat="43.63573" lon="1.19505">
        <ele>232</ele>
        <time>2013-03-24T11:34:05Z</time>
      </trkpt>
      <trkpt lat="43.63577" lon="1.195">
        <ele>232</ele>
        <time>2013-03-24T11:34:06Z</time>
      </trkpt>
      <trkpt lat="43.63581" lon="1.19495">
        <ele>232</ele>
        <time>2013-03-24T11:34:07Z</time>
      </trkpt>
      <trkpt lat="43.63584" lon="1.19491">
        <ele>232</ele>
        <time>2013-03-24T11:34:08Z</time>
      </trkpt>
      <trkpt lat="43.63587" lon="1.19488">
        <ele>232</ele>
        <time>2013-03-24T11:34:09Z</time>
      </trkpt>
      <trkpt lat="43.63592" lon="1.19485">
        <ele>232</ele>
        <time>2013-03-24T11:34:10Z</time>
      </trkpt>
      <trkpt lat="43.63596" lon="1.19483">
        <ele>231.947495</ele>
        <time>2013-03-24T11:34:11Z</time>
      </trkpt>
      <trkpt lat="43.636" lon="1.19481">
        <ele>231.860001</ele>
        <time>2013-03-24T11:34:12Z</time>
      </trkpt>
      <trkpt lat="43.63603" lon="1.19477">
        <ele>231.792496</ele>
        <time>2013-03-24T11:34:13Z</time>
      </trkpt>
      <trkpt lat="43.63605" lon="1.19473">
        <ele>231.755005</ele>
        <time>2013-03-24T11:34:14Z</time>
      </trkpt>
      <trkpt lat="43.63605" lon="1.19468">
        <ele>231.742493</ele>
        <time>2013-03-24T11:34:15Z</time>
      </trkpt>
      <trkpt lat="43.63606" lon="1.19458">
        <ele>231.727493</ele>
        <time>2013-03-24T11:34:17Z</time>
      </trkpt>
      <trkpt lat="43.63607" lon="1.19453">
        <ele>231.705002</ele>
        <time>2013-03-24T11:34:18Z</time>
      </trkpt>
      <trkpt lat="43.63607" lon="1.19448">
        <ele>231.695007</ele>
        <time>2013-03-24T11:34:19Z</time>
      </trkpt>
      <trkpt lat="43.63608" lon="1.19444">
        <ele>231.682495</ele>
        <time>2013-03-24T11:34:20Z</time>
      </trkpt>
      <trkpt lat="43.63607" lon="1.19439">
        <ele>231.692505</ele>
        <time>2013-03-24T11:34:21Z</time>
      </trkpt>
      <trkpt lat="43.63606" lon="1.19435">
        <ele>231.707504</ele>
        <time>2013-03-24T11:34:22Z</time>
      </trkpt>
      <trkpt lat="43.63606" lon="1.19432">
        <ele>231.712494</ele>
        <time>2013-03-24T11:34:23Z</time>
      </trkpt>
      <trkpt lat="43.63606" lon="1.19428">
        <ele>231.704544</ele>
        <time>2013-03-24T11:34:24Z</time>
      </trkpt>
      <trkpt lat="43.63607" lon="1.19426">
        <ele>231.703125</ele>
        <time>2013-03-24T11:34:25Z</time>
      </trkpt>
      <trkpt lat="43.63609" lon="1.19418">
        <ele>231.70462</ele>
        <time>2013-03-24T11:34:29Z</time>
      </trkpt>
      <trkpt lat="43.63606" lon="1.19413">
        <ele>231.791473</ele>
        <time>2013-03-24T11:34:33Z</time>
      </trkpt>
      <trkpt lat="43.63607" lon="1.19401">
        <ele>231.827164</ele>
        <time>2013-03-24T11:34:38Z</time>
      </trkpt>
      <trkpt lat="43.63607" lon="1.19397">
        <ele>231.842575</ele>
        <time>2013-03-24T11:34:39Z</time>
      </trkpt>
      <trkpt lat="43.63607" lon="1.19393">
        <ele>231.860397</ele>
        <time>2013-03-24T11:34:40Z</time>
      </trkpt>
      <trkpt lat="43.63607" lon="1.19389">
        <ele>231.882889</ele>
        <time>2013-03-24T11:34:41Z</time>
      </trkpt>
      <trkpt lat="43.63607" lon="1.19385">
        <ele>231.908356</ele>
        <time>2013-03-24T11:34:42Z</time>
      </trkpt>
      <trkpt lat="43.63601" lon="1.19345">
        <ele>232</ele>
        <time>2013-03-24T11:34:52Z</time>
      </trkpt>
      <trkpt lat="43.63595" lon="1.19299">
        <ele>232.101257</ele>
        <time>2013-03-24T11:35:03Z</time>
      </trkpt>
      <trkpt lat="43.63584" lon="1.19235">
        <ele>233.143753</ele>
        <time>2013-03-24T11:35:17Z</time>
      </trkpt>
      <trkpt lat="43.63577" lon="1.19167">
        <ele>234</ele>
        <time>2013-03-24T11:35:31Z</time>
      </trkpt>
      <trkpt lat="43.63565" lon="1.19075">
        <ele>234.394394</ele>
        <time>2013-03-24T11:35:48Z</time>
      </trkpt>
      <trkpt lat="43.63554" lon="1.18978">
        <ele>234.772507</ele>
        <time>2013-03-24T11:36:04Z</time>
      </trkpt>
      <trkpt lat="43.63544" lon="1.18905">
        <ele>234.972504</ele>
        <time>2013-03-24T11:36:15Z</time>
      </trkpt>
      <trkpt lat="43.63542" lon="1.1887">
        <ele>235.000229</ele>
        <time>2013-03-24T11:36:20Z</time>
      </trkpt>
      <trkpt lat="43.63539" lon="1.18769">
        <ele>235.052505</ele>
        <time>2013-03-24T11:36:35Z</time>
      </trkpt>
      <trkpt lat="43.63541" lon="1.18765">
        <ele>235</ele>
        <time>2013-03-24T11:36:36Z</time>
      </trkpt>
      <trkpt lat="43.63545" lon="1.18762">
        <ele>234.981674</ele>
        <time>2013-03-24T11:36:37Z</time>
      </trkpt>
      <trkpt lat="43.6355" lon="1.18762">
        <ele>234.961334</ele>
        <time>2013-03-24T11:36:38Z</time>
      </trkpt>
      <trkpt lat="43.63554" lon="1.18763">
        <ele>234.934921</ele>
        <time>2013-03-24T11:36:39Z</time>
      </trkpt>
      <trkpt lat="43.63559" lon="1.18764">
        <ele>234.902039</ele>
        <time>2013-03-24T11:36:40Z</time>
      </trkpt>
      <trkpt lat="43.63574" lon="1.18768">
        <ele>234.77507</ele>
        <time>2013-03-24T11:36:43Z</time>
      </trkpt>
      <trkpt lat="43.63651" lon="1.18782">
        <ele>234.246887</ele>
        <time>2013-03-24T11:36:59Z</time>
      </trkpt>
      <trkpt lat="43.63735" lon="1.18798">
        <ele>233.732254</ele>
        <time>2013-03-24T11:37:16Z</time>
      </trkpt>
      <trkpt lat="43.63804" lon="1.18825">
        <ele>233</ele>
        <time>2013-03-24T11:37:30Z</time>
      </trkpt>
      <trkpt lat="43.63875" lon="1.18894">
        <ele>232.33577</ele>
        <time>2013-03-24T11:37:46Z</time>
      </trkpt>
      <trkpt lat="43.63907" lon="1.18924">
        <ele>232</ele>
        <time>2013-03-24T11:37:53Z</time>
      </trkpt>
      <trkpt lat="43.63986" lon="1.18975">
        <ele>232</ele>
        <time>2013-03-24T11:38:10Z</time>
      </trkpt>
      <trkpt lat="43.64074" lon="1.19019">
        <ele>232.369003</ele>
        <time>2013-03-24T11:38:27Z</time>
      </trkpt>
      <trkpt lat="43.64162" lon="1.19058">
        <ele>231.860321</ele>
        <time>2013-03-24T11:38:42Z</time>
      </trkpt>
      <trkpt lat="43.64168" lon="1.19061">
        <ele>231.793137</ele>
        <time>2013-03-24T11:38:43Z</time>
      </trkpt>
      <trkpt lat="43.64213" lon="1.19077">
        <ele>230.636246</ele>
        <time>2013-03-24T11:38:50Z</time>
      </trkpt>
      <trkpt lat="43.64219" lon="1.19081">
        <ele>230.575256</ele>
        <time>2013-03-24T11:38:51Z</time>
      </trkpt>
      <trkpt lat="43.64224" lon="1.19086">
        <ele>230.504272</ele>
        <time>2013-03-24T11:38:52Z</time>
      </trkpt>
      <trkpt lat="43.64239" lon="1.19101">
        <ele>230.407715</ele>
        <time>2013-03-24T11:38:55Z</time>
      </trkpt>
      <trkpt lat="43.64245" lon="1.19103">
        <ele>230.336716</ele>
        <time>2013-03-24T11:38:56Z</time>
      </trkpt>
      <trkpt lat="43.64251" lon="1.19104">
        <ele>230.224808</ele>
        <time>2013-03-24T11:38:57Z</time>
      </trkpt>
      <trkpt lat="43.64345" lon="1.19107">
        <ele>231.817841</ele>
        <time>2013-03-24T11:39:12Z</time>
      </trkpt>
      <trkpt lat="43.64459" lon="1.19085">
        <ele>232.181702</ele>
        <time>2013-03-24T11:39:32Z</time>
      </trkpt>
      <trkpt lat="43.64562" lon="1.19074">
        <ele>231.150909</ele>
        <time>2013-03-24T11:39:49Z</time>
      </trkpt>
      <trkpt lat="43.6468" lon="1.19036">
        <ele>231</ele>
        <time>2013-03-24T11:40:07Z</time>
      </trkpt>
      <trkpt lat="43.64769" lon="1.19025">
        <ele>231</ele>
        <time>2013-03-24T11:40:20Z</time>
      </trkpt>
      <trkpt lat="43.64887" lon="1.18996">
        <ele>229.115005</ele>
        <time>2013-03-24T11:40:37Z</time>
      </trkpt>
      <trkpt lat="43.64952" lon="1.18998">
        <ele>227.365036</ele>
        <time>2013-03-24T11:40:45Z</time>
      </trkpt>
      <trkpt lat="43.64959" lon="1.18994">
        <ele>227.100571</ele>
        <time>2013-03-24T11:40:46Z</time>
      </trkpt>
      <trkpt lat="43.64965" lon="1.18988">
        <ele>226.964951</ele>
        <time>2013-03-24T11:40:47Z</time>
      </trkpt>
      <trkpt lat="43.64971" lon="1.18982">
        <ele>226.891205</ele>
        <time>2013-03-24T11:40:48Z</time>
      </trkpt>
      <trkpt lat="43.64978" lon="1.18978">
        <ele>226.80249</ele>
        <time>2013-03-24T11:40:49Z</time>
      </trkpt>
      <trkpt lat="43.64984" lon="1.18975">
        <ele>226.645233</ele>
        <time>2013-03-24T11:40:50Z</time>
      </trkpt>
      <trkpt lat="43.64991" lon="1.18973">
        <ele>226.381241</ele>
        <time>2013-03-24T11:40:51Z</time>
      </trkpt>
      <trkpt lat="43.64997" lon="1.18972">
        <ele>226.097504</ele>
        <time>2013-03-24T11:40:52Z</time>
      </trkpt>
      <trkpt lat="43.6503" lon="1.18971">
        <ele>224.617905</ele>
        <time>2013-03-24T11:40:57Z</time>
      </trkpt>
      <trkpt lat="43.65037" lon="1.18972">
        <ele>224.418533</ele>
        <time>2013-03-24T11:40:58Z</time>
      </trkpt>
      <trkpt lat="43.65141" lon="1.18979">
        <ele>223.684998</ele>
        <time>2013-03-24T11:41:13Z</time>
      </trkpt>
      <trkpt lat="43.65147" lon="1.18981">
        <ele>223.544998</ele>
        <time>2013-03-24T11:41:14Z</time>
      </trkpt>
      <trkpt lat="43.65211" lon="1.19007">
        <ele>222.788757</ele>
        <time>2013-03-24T11:41:24Z</time>
      </trkpt>
      <trkpt lat="43.65274" lon="1.1901">
        <ele>221.479492</ele>
        <time>2013-03-24T11:41:34Z</time>
      </trkpt>
      <trkpt lat="43.65363" lon="1.19031">
        <ele>213.951736</ele>
        <time>2013-03-24T11:41:44Z</time>
      </trkpt>
      <trkpt lat="43.65484" lon="1.19065">
        <ele>198.830002</ele>
        <time>2013-03-24T11:41:53Z</time>
      </trkpt>
      <trkpt lat="43.65629" lon="1.19113">
        <ele>184.284866</ele>
        <time>2013-03-24T11:42:03Z</time>
      </trkpt>
      <trkpt lat="43.65676" lon="1.19134">
        <ele>181.261292</ele>
        <time>2013-03-24T11:42:08Z</time>
      </trkpt>
    </trkseg>
  </trk>
</gpx>